Osage River (Missouri), Tuscumbia (06926080)

StateMissouriLatestUnknown (4090 cfs)
RiverOsage RiverRatingObservedEstimated
Updated2020-08-14 8:00 (46 minutes ago)Flood - The river is flooding. Obstacles can be treacherous or deadly. The river should be avoided at this stage for casual trips and definitely for the inexperienced. Trips should be attempted only with protective gear and equipment.Flood(none)(none)
Discharge4090 cfs (median: 11800 cfs)High - The river is high and potentially dangerous, especially for the young and / or inexperienced. Normal stream obstacles are sometimes difficult to navigate. Extended distances can be attempted, but canoe travel may not be advisable.High(none)(none)
Height3.87 feetGood - Conditions are ideal for a canoe or kayak. Boats typically will drag on fewer than one-quarter of riffles, if at all, and portages are unnecessary or rare. Normal float lengths can be attempted without a problem.Good(none)(none)
TrendFalling (falling over 24 hours)Low - River is low but can still be floated. Some riffles are okay but most come with significant dragging and might need a portage. Float lengths should be reduced to accommodate low flow, dragging, and portages.Low(none)(none)
USGSExternal icon USGS Site (External icon Google Maps)Poor - River is too low to float comfortably. Most or all riffles will drag or must be portaged and some obstacles (such as slick shelf rock) cause undue problems. Avoid the river at this stage for casual paddling trips.Poor(none)(none)

Trending Data

Plot Image

Trips for Osage River (Missouri), Tuscumbia (06926080)

DateStartEndDistanceConditionDischargeHeightFishingDetails

A total of 0 rows are displayed.

Condition Descriptions

Fishing Conditions

Fish Species

Notes

Classic Trip List

The classic River Trips application is still available for use. It is updated with the new system using a data retrofit. It is no longer maintained. The original River Trips application is no longer updated (as of 1 Dec 2016) but can be checked for errors or for the condition of the data before it was converted to the new system.

Gauge Data Table

ObservationHeightDischargeMaximum
Discharge
Minimum
Discharge
Mean
Discharge
P05P10P20P25P50
(Median)
P75P80P90P95
2020-08-14 08:00 3.87 4090 40000 (2019) 1210 (2018) 16200 1210 2200 11800 34600 40000
2020-08-14 07:00 4.08 4460 40000 (2019) 1210 (2018) 16200 1210 2200 11800 34600 40000
2020-08-14 06:00 4.31 4830 40000 (2019) 1210 (2018) 16200 1210 2200 11800 34600 40000
2020-08-14 05:00 4.58 5270 40000 (2019) 1210 (2018) 16200 1210 2200 11800 34600 40000
2020-08-14 04:00 4.88 5810 40000 (2019) 1210 (2018) 16200 1210 2200 11800 34600 40000
2020-08-14 03:00 5.22 6450 40000 (2019) 1210 (2018) 16200 1210 2200 11800 34600 40000
2020-08-14 02:00 5.57 7160 40000 (2019) 1210 (2018) 16200 1210 2200 11800 34600 40000
2020-08-14 01:00 5.96 7980 40000 (2019) 1210 (2018) 16200 1210 2200 11800 34600 40000
2020-08-14 00:00 6.36 8860 40000 (2019) 1210 (2018) 16200 1210 2200 11800 34600 40000
2020-08-13 23:00 6.78 9820 44800 (2019) 1090 (2018) 20600 1090 4870 18200 38700 44800
2020-08-13 22:00 7.18 10800 44800 (2019) 1090 (2018) 20600 1090 4870 18200 38700 44800
2020-08-13 21:00 7.50 11600 44800 (2019) 1090 (2018) 20600 1090 4870 18200 38700 44800
2020-08-13 20:00 7.57 11700 44800 (2019) 1090 (2018) 20600 1090 4870 18200 38700 44800
2020-08-13 19:00 6.92 10200 44800 (2019) 1090 (2018) 20600 1090 4870 18200 38700 44800
2020-08-13 18:00 5.67 7360 44800 (2019) 1090 (2018) 20600 1090 4870 18200 38700 44800
2020-08-13 17:00 4.12 4520 44800 (2019) 1090 (2018) 20600 1090 4870 18200 38700 44800
2020-08-13 16:00 3.25 3140 44800 (2019) 1090 (2018) 20600 1090 4870 18200 38700 44800
2020-08-13 15:00 3.19 3060 44800 (2019) 1090 (2018) 20600 1090 4870 18200 38700 44800
2020-08-13 14:00 3.28 3180 44800 (2019) 1090 (2018) 20600 1090 4870 18200 38700 44800
2020-08-13 13:00 3.40 3350 44800 (2019) 1090 (2018) 20600 1090 4870 18200 38700 44800
2020-08-13 12:00 3.52 3520 44800 (2019) 1090 (2018) 20600 1090 4870 18200 38700 44800
2020-08-13 11:00 3.67 3740 44800 (2019) 1090 (2018) 20600 1090 4870 18200 38700 44800
2020-08-13 10:00 3.84 4040 44800 (2019) 1090 (2018) 20600 1090 4870 18200 38700 44800
2020-08-13 09:00 4.04 4390 44800 (2019) 1090 (2018) 20600 1090 4870 18200 38700 44800
2020-08-13 08:00 4.27 4760 44800 (2019) 1090 (2018) 20600 1090 4870 18200 38700 44800
2020-08-13 07:00 4.53 5180 44800 (2019) 1090 (2018) 20600 1090 4870 18200 38700 44800
2020-08-13 06:00 4.83 5720 44800 (2019) 1090 (2018) 20600 1090 4870 18200 38700 44800
2020-08-13 05:00 5.16 6330 44800 (2019) 1090 (2018) 20600 1090 4870 18200 38700 44800
2020-08-13 04:00 5.53 7070 44800 (2019) 1090 (2018) 20600 1090 4870 18200 38700 44800
2020-08-13 03:00 5.94 7940 44800 (2019) 1090 (2018) 20600 1090 4870 18200 38700 44800
2020-08-13 02:00 6.38 8900 44800 (2019) 1090 (2018) 20600 1090 4870 18200 38700 44800
2020-08-13 01:00 6.85 9990 44800 (2019) 1090 (2018) 20600 1090 4870 18200 38700 44800
2020-08-13 00:00 7.33 11100 44800 (2019) 1090 (2018) 20600 1090 4870 18200 38700 44800
2020-08-12 23:00 7.84 12400 49000 (2019) 1100 (2018) 22500 1100 4650 20000 42900 49000
2020-08-12 22:00 8.31 13700 49000 (2019) 1100 (2018) 22500 1100 4650 20000 42900 49000
2020-08-12 21:00 8.62 14500 49000 (2019) 1100 (2018) 22500 1100 4650 20000 42900 49000
2020-08-12 20:00 8.32 13700 49000 (2019) 1100 (2018) 22500 1100 4650 20000 42900 49000
2020-08-12 19:00 6.89 10100 49000 (2019) 1100 (2018) 22500 1100 4650 20000 42900 49000
2020-08-12 18:00 4.89 5830 49000 (2019) 1100 (2018) 22500 1100 4650 20000 42900 49000
2020-08-12 17:00 3.60 3630 49000 (2019) 1100 (2018) 22500 1100 4650 20000 42900 49000
2020-08-12 16:00 3.19 3060 49000 (2019) 1100 (2018) 22500 1100 4650 20000 42900 49000
2020-08-12 15:00 3.09 2920 49000 (2019) 1100 (2018) 22500 1100 4650 20000 42900 49000
2020-08-12 14:00 3.16 3020 49000 (2019) 1100 (2018) 22500 1100 4650 20000 42900 49000
2020-08-12 13:00 3.25 3140 49000 (2019) 1100 (2018) 22500 1100 4650 20000 42900 49000
2020-08-12 12:00 3.36 3290 49000 (2019) 1100 (2018) 22500 1100 4650 20000 42900 49000
2020-08-12 11:00 3.48 3460 49000 (2019) 1100 (2018) 22500 1100 4650 20000 42900 49000
2020-08-12 10:00 3.63 3680 49000 (2019) 1100 (2018) 22500 1100 4650 20000 42900 49000
2020-08-12 09:00 3.80 3970 49000 (2019) 1100 (2018) 22500 1100 4650 20000 42900 49000
2020-08-12 08:00 4.00 4320 49000 (2019) 1100 (2018) 22500 1100 4650 20000 42900 49000
2020-08-12 07:00 4.23 4700 49000 (2019) 1100 (2018) 22500 1100 4650 20000 42900 49000
2020-08-12 06:00 4.49 5120 49000 (2019) 1100 (2018) 22500 1100 4650 20000 42900 49000
2020-08-12 05:00 4.79 5640 49000 (2019) 1100 (2018) 22500 1100 4650 20000 42900 49000
2020-08-12 04:00 5.12 6260 49000 (2019) 1100 (2018) 22500 1100 4650 20000 42900 49000
2020-08-12 03:00 5.49 6990 49000 (2019) 1100 (2018) 22500 1100 4650 20000 42900 49000
2020-08-12 02:00 5.89 7830 49000 (2019) 1100 (2018) 22500 1100 4650 20000 42900 49000
2020-08-12 01:00 6.32 8770 49000 (2019) 1100 (2018) 22500 1100 4650 20000 42900 49000
2020-08-12 00:00 6.79 9850 49000 (2019) 1100 (2018) 22500 1100 4650 20000 42900 49000
2020-08-11 23:00 7.29 11000 50700 (2019) 1210 (2018) 23500 1210 5580 21000 43900 50700
2020-08-11 22:00 7.80 12300 50700 (2019) 1210 (2018) 23500 1210 5580 21000 43900 50700
2020-08-11 21:00 8.29 13600 50700 (2019) 1210 (2018) 23500 1210 5580 21000 43900 50700
2020-08-11 20:00 8.66 14600 50700 (2019) 1210 (2018) 23500 1210 5580 21000 43900 50700
2020-08-11 19:00 8.57 14400 50700 (2019) 1210 (2018) 23500 1210 5580 21000 43900 50700
2020-08-11 18:00 7.90 12600 50700 (2019) 1210 (2018) 23500 1210 5580 21000 43900 50700
2020-08-11 17:00 7.07 10500 50700 (2019) 1210 (2018) 23500 1210 5580 21000 43900 50700
2020-08-11 16:00 5.89 7830 50700 (2019) 1210 (2018) 23500 1210 5580 21000 43900 50700
2020-08-11 15:00 4.75 5570 50700 (2019) 1210 (2018) 23500 1210 5580 21000 43900 50700
2020-08-11 14:00 4.45 5050 50700 (2019) 1210 (2018) 23500 1210 5580 21000 43900 50700
2020-08-11 13:00 4.66 5410 50700 (2019) 1210 (2018) 23500 1210 5580 21000 43900 50700
2020-08-11 12:00 4.99 6010 50700 (2019) 1210 (2018) 23500 1210 5580 21000 43900 50700
2020-08-11 11:00 5.37 6750 50700 (2019) 1210 (2018) 23500 1210 5580 21000 43900 50700
2020-08-11 10:00 5.80 7640 50700 (2019) 1210 (2018) 23500 1210 5580 21000 43900 50700
2020-08-11 09:00 6.28 8680 50700 (2019) 1210 (2018) 23500 1210 5580 21000 43900 50700
2020-08-11 08:00 6.81 9890 50700 (2019) 1210 (2018) 23500 1210 5580 21000 43900 50700
2020-08-11 07:00 7.39 11300 50700 (2019) 1210 (2018) 23500 1210 5580 21000 43900 50700
2020-08-11 06:00 8.03 12900 50700 (2019) 1210 (2018) 23500 1210 5580 21000 43900 50700
2020-08-11 05:00 8.73 14800 50700 (2019) 1210 (2018) 23500 1210 5580 21000 43900 50700
2020-08-11 04:00 9.49 17000 50700 (2019) 1210 (2018) 23500 1210 5580 21000 43900 50700
2020-08-11 03:00 10.34 19500 50700 (2019) 1210 (2018) 23500 1210 5580 21000 43900 50700
2020-08-11 02:00 11.30 22000 50700 (2019) 1210 (2018) 23500 1210 5580 21000 43900 50700
2020-08-11 01:00 12.32 24900 50700 (2019) 1210 (2018) 23500 1210 5580 21000 43900 50700
2020-08-11 00:00 13.40 28000 50700 (2019) 1210 (2018) 23500 1210 5580 21000 43900 50700
2020-08-10 23:00 14.39 31000 50800 (2019) 1520 (2018) 22100 1520 4790 18100 43500 50800
2020-08-10 22:00 14.56 31500 50800 (2019) 1520 (2018) 22100 1520 4790 18100 43500 50800
2020-08-10 21:00 14.48 31200 50800 (2019) 1520 (2018) 22100 1520 4790 18100 43500 50800
2020-08-10 20:00 14.48 31200 50800 (2019) 1520 (2018) 22100 1520 4790 18100 43500 50800
2020-08-10 19:00 14.17 30300 50800 (2019) 1520 (2018) 22100 1520 4790 18100 43500 50800
2020-08-10 18:00 13.70 28900 50800 (2019) 1520 (2018) 22100 1520 4790 18100 43500 50800
2020-08-10 17:00 13.06 27000 50800 (2019) 1520 (2018) 22100 1520 4790 18100 43500 50800
2020-08-10 16:00 12.23 24600 50800 (2019) 1520 (2018) 22100 1520 4790 18100 43500 50800
2020-08-10 15:00 11.03 21300 50800 (2019) 1520 (2018) 22100 1520 4790 18100 43500 50800
2020-08-10 14:00 9.39 16700 50800 (2019) 1520 (2018) 22100 1520 4790 18100 43500 50800
2020-08-10 13:00 6.90 10100 50800 (2019) 1520 (2018) 22100 1520 4790 18100 43500 50800
2020-08-10 12:00 4.79 5640 50800 (2019) 1520 (2018) 22100 1520 4790 18100 43500 50800
2020-08-10 11:00 4.51 5150 50800 (2019) 1520 (2018) 22100 1520 4790 18100 43500 50800
2020-08-10 10:00 4.78 5620 50800 (2019) 1520 (2018) 22100 1520 4790 18100 43500 50800
2020-08-10 09:00 5.13 6280 50800 (2019) 1520 (2018) 22100 1520 4790 18100 43500 50800
2020-08-10 08:00 5.53 7070 50800 (2019) 1520 (2018) 22100 1520 4790 18100 43500 50800
2020-08-10 07:00 5.96 7980 50800 (2019) 1520 (2018) 22100 1520 4790 18100 43500 50800
2020-08-10 06:00 6.45 9060 50800 (2019) 1520 (2018) 22100 1520 4790 18100 43500 50800
2020-08-10 05:00 6.99 10300 50800 (2019) 1520 (2018) 22100 1520 4790 18100 43500 50800
2020-08-10 04:00 7.57 11700 50800 (2019) 1520 (2018) 22100 1520 4790 18100 43500 50800
2020-08-10 03:00 8.22 13400 50800 (2019) 1520 (2018) 22100 1520 4790 18100 43500 50800
2020-08-10 02:00 8.92 15300 50800 (2019) 1520 (2018) 22100 1520 4790 18100 43500 50800
2020-08-10 01:00 9.71 17600 50800 (2019) 1520 (2018) 22100 1520 4790 18100 43500 50800
2020-08-10 00:00 10.56 20000 50800 (2019) 1520 (2018) 22100 1520 4790 18100 43500 50800
2020-08-09 23:00 11.43 22400 50900 (2019) 5340 (2018) 21700 5340 6280 15200 43500 50900
2020-08-09 22:00 12.18 24500 50900 (2019) 5340 (2018) 21700 5340 6280 15200 43500 50900
2020-08-09 21:00 12.30 24800 50900 (2019) 5340 (2018) 21700 5340 6280 15200 43500 50900
2020-08-09 20:00 12.12 24300 50900 (2019) 5340 (2018) 21700 5340 6280 15200 43500 50900
2020-08-09 19:00 11.50 22600 50900 (2019) 5340 (2018) 21700 5340 6280 15200 43500 50900
2020-08-09 18:00 10.23 19200 50900 (2019) 5340 (2018) 21700 5340 6280 15200 43500 50900
2020-08-09 17:00 8.31 13700 50900 (2019) 5340 (2018) 21700 5340 6280 15200 43500 50900
2020-08-09 16:00 5.71 7450 50900 (2019) 5340 (2018) 21700 5340 6280 15200 43500 50900
2020-08-09 15:00 4.01 4340 50900 (2019) 5340 (2018) 21700 5340 6280 15200 43500 50900
2020-08-09 14:00 3.29 3200 50900 (2019) 5340 (2018) 21700 5340 6280 15200 43500 50900
2020-08-09 13:00 2.91 2690 50900 (2019) 5340 (2018) 21700 5340 6280 15200 43500 50900
2020-08-09 12:00 2.77 2510 50900 (2019) 5340 (2018) 21700 5340 6280 15200 43500 50900
2020-08-09 11:00 2.78 2520 50900 (2019) 5340 (2018) 21700 5340 6280 15200 43500 50900
2020-08-09 10:00 2.78 2520 50900 (2019) 5340 (2018) 21700 5340 6280 15200 43500 50900
2020-08-09 09:00 2.79 2530 50900 (2019) 5340 (2018) 21700 5340 6280 15200 43500 50900
2020-08-09 08:00 2.81 2560 50900 (2019) 5340 (2018) 21700 5340 6280 15200 43500 50900
2020-08-09 07:00 2.81 2560 50900 (2019) 5340 (2018) 21700 5340 6280 15200 43500 50900
2020-08-09 06:00 2.83 2580 50900 (2019) 5340 (2018) 21700 5340 6280 15200 43500 50900
2020-08-09 05:00 2.87 2640 50900 (2019) 5340 (2018) 21700 5340 6280 15200 43500 50900
2020-08-09 04:00 2.89 2660 50900 (2019) 5340 (2018) 21700 5340 6280 15200 43500 50900
2020-08-09 03:00 2.93 2710 50900 (2019) 5340 (2018) 21700 5340 6280 15200 43500 50900
2020-08-09 02:00 2.97 2770 50900 (2019) 5340 (2018) 21700 5340 6280 15200 43500 50900
2020-08-09 01:00 3.02 2830 50900 (2019) 5340 (2018) 21700 5340 6280 15200 43500 50900
2020-08-09 00:00 3.09 2920 50900 (2019) 5340 (2018) 21700 5340 6280 15200 43500 50900
2020-08-08 23:00 3.16 3020 50900 (2019) 3620 (2016) 22900 3620 5090 18600 45100 50900
2020-08-08 22:00 3.24 3130 50900 (2019) 3620 (2016) 22900 3620 5090 18600 45100 50900
2020-08-08 21:00 3.33 3250 50900 (2019) 3620 (2016) 22900 3620 5090 18600 45100 50900
2020-08-08 20:00 3.43 3390 50900 (2019) 3620 (2016) 22900 3620 5090 18600 45100 50900
2020-08-08 19:00 3.55 3560 50900 (2019) 3620 (2016) 22900 3620 5090 18600 45100 50900
2020-08-08 18:00 3.69 3780 50900 (2019) 3620 (2016) 22900 3620 5090 18600 45100 50900
2020-08-08 17:00 3.85 4050 50900 (2019) 3620 (2016) 22900 3620 5090 18600 45100 50900
2020-08-08 16:00 4.05 4410 50900 (2019) 3620 (2016) 22900 3620 5090 18600 45100 50900
2020-08-08 15:00 4.28 4780 50900 (2019) 3620 (2016) 22900 3620 5090 18600 45100 50900
2020-08-08 14:00 4.54 5200 50900 (2019) 3620 (2016) 22900 3620 5090 18600 45100 50900
2020-08-08 13:00 4.83 5720 50900 (2019) 3620 (2016) 22900 3620 5090 18600 45100 50900
2020-08-08 12:00 5.17 6350 50900 (2019) 3620 (2016) 22900 3620 5090 18600 45100 50900
2020-08-08 11:00 5.56 7140 50900 (2019) 3620 (2016) 22900 3620 5090 18600 45100 50900
2020-08-08 10:00 5.99 8040 50900 (2019) 3620 (2016) 22900 3620 5090 18600 45100 50900
2020-08-08 09:00 6.46 9080 50900 (2019) 3620 (2016) 22900 3620 5090 18600 45100 50900
2020-08-08 08:00 6.97 10300 50900 (2019) 3620 (2016) 22900 3620 5090 18600 45100 50900
2020-08-08 07:00 7.51 11600 50900 (2019) 3620 (2016) 22900 3620 5090 18600 45100 50900
2020-08-08 06:00 8.12 13200 50900 (2019) 3620 (2016) 22900 3620 5090 18600 45100 50900
2020-08-08 05:00 8.76 14900 50900 (2019) 3620 (2016) 22900 3620 5090 18600 45100 50900
2020-08-08 04:00 9.40 16700 50900 (2019) 3620 (2016) 22900 3620 5090 18600 45100 50900
2020-08-08 03:00 9.99 18400 50900 (2019) 3620 (2016) 22900 3620 5090 18600 45100 50900
2020-08-08 02:00 10.74 20500 50900 (2019) 3620 (2016) 22900 3620 5090 18600 45100 50900
2020-08-08 01:00 11.66 23000 50900 (2019) 3620 (2016) 22900 3620 5090 18600 45100 50900
2020-08-08 00:00 12.54 25500 50900 (2019) 3620 (2016) 22900 3620 5090 18600 45100 50900
2020-08-07 23:00 13.04 27000 51000 (2019) 2940 (2016) 24700 2940 3240 22400 48400 51000
2020-08-07 22:00 13.17 27300 51000 (2019) 2940 (2016) 24700 2940 3240 22400 48400 51000
2020-08-07 21:00 13.12 27200 51000 (2019) 2940 (2016) 24700 2940 3240 22400 48400 51000
2020-08-07 20:00 13.10 27100 51000 (2019) 2940 (2016) 24700 2940 3240 22400 48400 51000
2020-08-07 19:00 12.80 26300 51000 (2019) 2940 (2016) 24700 2940 3240 22400 48400 51000
2020-08-07 18:00 11.97 23900 51000 (2019) 2940 (2016) 24700 2940 3240 22400 48400 51000
2020-08-07 17:00 10.85 20800 51000 (2019) 2940 (2016) 24700 2940 3240 22400 48400 51000
2020-08-07 16:00 9.69 17600 51000 (2019) 2940 (2016) 24700 2940 3240 22400 48400 51000
2020-08-07 15:00 8.85 15100 51000 (2019) 2940 (2016) 24700 2940 3240 22400 48400 51000
2020-08-07 14:00 8.26 13500 51000 (2019) 2940 (2016) 24700 2940 3240 22400 48400 51000
2020-08-07 13:00 7.93 12700 51000 (2019) 2940 (2016) 24700 2940 3240 22400 48400 51000
2020-08-07 12:00 7.61 11800 51000 (2019) 2940 (2016) 24700 2940 3240 22400 48400 51000
2020-08-07 11:00 7.35 11200 51000 (2019) 2940 (2016) 24700 2940 3240 22400 48400 51000
2020-08-07 10:00 7.54 11700 51000 (2019) 2940 (2016) 24700 2940 3240 22400 48400 51000
2020-08-07 09:00 8.09 13100 51000 (2019) 2940 (2016) 24700 2940 3240 22400 48400 51000
2020-08-07 08:00 8.79 15000 51000 (2019) 2940 (2016) 24700 2940 3240 22400 48400 51000
2020-08-07 07:00 9.55 17100 51000 (2019) 2940 (2016) 24700 2940 3240 22400 48400 51000
2020-08-07 06:00 10.39 19600 51000 (2019) 2940 (2016) 24700 2940 3240 22400 48400 51000
2020-08-07 05:00 11.34 22200 51000 (2019) 2940 (2016) 24700 2940 3240 22400 48400 51000
2020-08-07 04:00 12.36 25000 51000 (2019) 2940 (2016) 24700 2940 3240 22400 48400 51000
2020-08-07 03:00 13.48 28200 51000 (2019) 2940 (2016) 24700 2940 3240 22400 48400 51000
2020-08-07 02:00 14.66 31800 51000 (2019) 2940 (2016) 24700 2940 3240 22400 48400 51000
2020-08-07 01:00 15.81 35400 51000 (2019) 2940 (2016) 24700 2940 3240 22400 48400 51000
2020-08-07 00:00 15.99 35900 51000 (2019) 2940 (2016) 24700 2940 3240 22400 48400 51000
2020-08-06 23:00 15.94 35800 51000 (2019) 8390 (2018) 27800 8390 8440 26000 49100 51000
2020-08-06 22:00 15.86 35500 51000 (2019) 8390 (2018) 27800 8390 8440 26000 49100 51000
2020-08-06 21:00 15.82 35400 51000 (2019) 8390 (2018) 27800 8390 8440 26000 49100 51000
2020-08-06 20:00 15.76 35200 51000 (2019) 8390 (2018) 27800 8390 8440 26000 49100 51000
2020-08-06 19:00 15.67 34900 51000 (2019) 8390 (2018) 27800 8390 8440 26000 49100 51000
2020-08-06 18:00 15.52 34400 51000 (2019) 8390 (2018) 27800 8390 8440 26000 49100 51000
2020-08-06 17:00 15.32 33800 51000 (2019) 8390 (2018) 27800 8390 8440 26000 49100 51000
2020-08-06 16:00 15.09 33100 51000 (2019) 8390 (2018) 27800 8390 8440 26000 49100 51000
2020-08-06 15:00 14.82 32300 51000 (2019) 8390 (2018) 27800 8390 8440 26000 49100 51000
2020-08-06 14:00 14.49 31300 51000 (2019) 8390 (2018) 27800 8390 8440 26000 49100 51000
2020-08-06 13:00 14.07 30000 51000 (2019) 8390 (2018) 27800 8390 8440 26000 49100 51000
2020-08-06 12:00 13.56 28500 51000 (2019) 8390 (2018) 27800 8390 8440 26000 49100 51000
2020-08-06 11:00 12.95 26700 51000 (2019) 8390 (2018) 27800 8390 8440 26000 49100 51000
2020-08-06 10:00 12.28 24800 51000 (2019) 8390 (2018) 27800 8390 8440 26000 49100 51000
2020-08-06 09:00 11.86 23600 51000 (2019) 8390 (2018) 27800 8390 8440 26000 49100 51000
2020-08-06 08:00 12.04 24100 51000 (2019) 8390 (2018) 27800 8390 8440 26000 49100 51000
2020-08-06 07:00 12.08 24200 51000 (2019) 8390 (2018) 27800 8390 8440 26000 49100 51000
2020-08-06 06:00 11.81 23400 51000 (2019) 8390 (2018) 27800 8390 8440 26000 49100 51000
2020-08-06 05:00 12.27 24700 51000 (2019) 8390 (2018) 27800 8390 8440 26000 49100 51000
2020-08-06 04:00 13.31 27700 51000 (2019) 8390 (2018) 27800 8390 8440 26000 49100 51000
2020-08-06 03:00 14.22 30400 51000 (2019) 8390 (2018) 27800 8390 8440 26000 49100 51000
2020-08-06 02:00 14.14 30200 51000 (2019) 8390 (2018) 27800 8390 8440 26000 49100 51000
2020-08-06 01:00 14.24 30500 51000 (2019) 8390 (2018) 27800 8390 8440 26000 49100 51000
2020-08-06 00:00 14.34 30800 51000 (2019) 8390 (2018) 27800 8390 8440 26000 49100 51000
2020-08-05 23:00 14.56 31500 51000 (2019) 998 (2018) 19800 998 1970 13500 43800 51000
2020-08-05 22:00 14.66 31800 51000 (2019) 998 (2018) 19800 998 1970 13500 43800 51000
2020-08-05 21:00 14.66 31800 51000 (2019) 998 (2018) 19800 998 1970 13500 43800 51000
2020-08-05 20:00 14.99 32800 51000 (2019) 998 (2018) 19800 998 1970 13500 43800 51000
2020-08-05 19:00 14.96 32700 51000 (2019) 998 (2018) 19800 998 1970 13500 43800 51000
2020-08-05 18:00 14.71 31900 51000 (2019) 998 (2018) 19800 998 1970 13500 43800 51000
2020-08-05 17:00 14.40 31000 51000 (2019) 998 (2018) 19800 998 1970 13500 43800 51000
2020-08-05 16:00 13.99 29800 51000 (2019) 998 (2018) 19800 998 1970 13500 43800 51000
2020-08-05 15:00 13.49 28300 51000 (2019) 998 (2018) 19800 998 1970 13500 43800 51000
2020-08-05 14:00 12.79 26200 51000 (2019) 998 (2018) 19800 998 1970 13500 43800 51000
2020-08-05 13:00 11.95 23800 51000 (2019) 998 (2018) 19800 998 1970 13500 43800 51000
2020-08-05 12:00 10.84 20800 51000 (2019) 998 (2018) 19800 998 1970 13500 43800 51000
2020-08-05 11:00 9.75 17700 51000 (2019) 998 (2018) 19800 998 1970 13500 43800 51000
2020-08-05 10:00 9.03 15600 51000 (2019) 998 (2018) 19800 998 1970 13500 43800 51000
2020-08-05 09:00 8.64 14600 51000 (2019) 998 (2018) 19800 998 1970 13500 43800 51000
2020-08-05 08:00 8.42 14000 51000 (2019) 998 (2018) 19800 998 1970 13500 43800 51000
2020-08-05 07:00 8.64 14600 51000 (2019) 998 (2018) 19800 998 1970 13500 43800 51000
2020-08-05 06:00 9.27 16300 51000 (2019) 998 (2018) 19800 998 1970 13500 43800 51000
2020-08-05 05:00 10.09 18800 51000 (2019) 998 (2018) 19800 998 1970 13500 43800 51000
2020-08-05 04:00 11.01 21300 51000 (2019) 998 (2018) 19800 998 1970 13500 43800 51000
2020-08-05 03:00 12.00 24000 51000 (2019) 998 (2018) 19800 998 1970 13500 43800 51000
2020-08-05 02:00 13.07 27000 51000 (2019) 998 (2018) 19800 998 1970 13500 43800 51000
2020-08-05 01:00 14.12 30100 51000 (2019) 998 (2018) 19800 998 1970 13500 43800 51000
2020-08-05 00:00 14.56 31500 51000 (2019) 998 (2018) 19800 998 1970 13500 43800 51000
2020-08-04 23:00 14.97 32700 51000 (2019) 994 (2018) 21600 994 2250 17200 45400 51000
2020-08-04 22:00 15.41 34100 51000 (2019) 994 (2018) 21600 994 2250 17200 45400 51000
2020-08-04 21:00 15.39 34000 51000 (2019) 994 (2018) 21600 994 2250 17200 45400 51000
2020-08-04 20:00 15.21 33500 51000 (2019) 994 (2018) 21600 994 2250 17200 45400 51000
2020-08-04 19:00 14.96 32700 51000 (2019) 994 (2018) 21600 994 2250 17200 45400 51000
2020-08-04 18:00 14.76 32100 51000 (2019) 994 (2018) 21600 994 2250 17200 45400 51000
2020-08-04 17:00 14.44 31100 51000 (2019) 994 (2018) 21600 994 2250 17200 45400 51000
2020-08-04 16:00 14.03 29900 51000 (2019) 994 (2018) 21600 994 2250 17200 45400 51000
2020-08-04 15:00 13.49 28300 51000 (2019) 994 (2018) 21600 994 2250 17200 45400 51000
2020-08-04 14:00 12.83 26300 51000 (2019) 994 (2018) 21600 994 2250 17200 45400 51000
2020-08-04 13:00 11.97 23900 51000 (2019) 994 (2018) 21600 994 2250 17200 45400 51000
2020-08-04 12:00 10.87 20900 51000 (2019) 994 (2018) 21600 994 2250 17200 45400 51000
2020-08-04 11:00 9.62 17300 51000 (2019) 994 (2018) 21600 994 2250 17200 45400 51000
2020-08-04 10:00 8.84 15100 51000 (2019) 994 (2018) 21600 994 2250 17200 45400 51000
2020-08-04 09:00 8.56 14300 51000 (2019) 994 (2018) 21600 994 2250 17200 45400 51000
2020-08-04 08:00 8.36 13800 51000 (2019) 994 (2018) 21600 994 2250 17200 45400 51000
2020-08-04 07:00 8.30 13600 51000 (2019) 994 (2018) 21600 994 2250 17200 45400 51000
2020-08-04 06:00 8.35 13800 51000 (2019) 994 (2018) 21600 994 2250 17200 45400 51000
2020-08-04 05:00 8.92 15300 51000 (2019) 994 (2018) 21600 994 2250 17200 45400 51000
2020-08-04 04:00 9.71 17600 51000 (2019) 994 (2018) 21600 994 2250 17200 45400 51000
2020-08-04 03:00 10.53 20000 51000 (2019) 994 (2018) 21600 994 2250 17200 45400 51000
2020-08-04 02:00 11.28 22000 51000 (2019) 994 (2018) 21600 994 2250 17200 45400 51000
2020-08-04 01:00 11.77 23300 51000 (2019) 994 (2018) 21600 994 2250 17200 45400 51000
2020-08-04 00:00 12.83 26300 51000 (2019) 994 (2018) 21600 994 2250 17200 45400 51000
2020-08-03 23:00 13.84 29300 51100 (2019) 1390 (2018) 23200 1390 5170 20200 44300 51100
2020-08-03 22:00 14.21 30400 51100 (2019) 1390 (2018) 23200 1390 5170 20200 44300 51100
2020-08-03 21:00 14.38 30900 51100 (2019) 1390 (2018) 23200 1390 5170 20200 44300 51100
2020-08-03 20:00 14.07 30000 51100 (2019) 1390 (2018) 23200 1390 5170 20200 44300 51100
2020-08-03 19:00 13.71 28900 51100 (2019) 1390 (2018) 23200 1390 5170 20200 44300 51100
2020-08-03 18:00 13.14 27200 51100 (2019) 1390 (2018) 23200 1390 5170 20200 44300 51100
2020-08-03 17:00 12.39 25100 51100 (2019) 1390 (2018) 23200 1390 5170 20200 44300 51100
2020-08-03 16:00 11.36 22200 51100 (2019) 1390 (2018) 23200 1390 5170 20200 44300 51100
2020-08-03 15:00 9.95 18300 51100 (2019) 1390 (2018) 23200 1390 5170 20200 44300 51100
2020-08-03 14:00 8.06 13000 51100 (2019) 1390 (2018) 23200 1390 5170 20200 44300 51100
2020-08-03 13:00 5.68 7380 51100 (2019) 1390 (2018) 23200 1390 5170 20200 44300 51100
2020-08-03 12:00 2.65 2360 51100 (2019) 1390 (2018) 23200 1390 5170 20200 44300 51100
2020-08-03 11:00 1.97 1570 51100 (2019) 1390 (2018) 23200 1390 5170 20200 44300 51100
2020-08-03 10:00 1.94 1540 51100 (2019) 1390 (2018) 23200 1390 5170 20200 44300 51100
2020-08-03 09:00 1.94 1540 51100 (2019) 1390 (2018) 23200 1390 5170 20200 44300 51100
2020-08-03 08:00 1.94 1540 51100 (2019) 1390 (2018) 23200 1390 5170 20200 44300 51100
2020-08-03 07:00 1.93 1520 51100 (2019) 1390 (2018) 23200 1390 5170 20200 44300 51100
2020-08-03 06:00 1.94 1540 51100 (2019) 1390 (2018) 23200 1390 5170 20200 44300 51100
2020-08-03 05:00 1.94 1540 51100 (2019) 1390 (2018) 23200 1390 5170 20200 44300 51100
2020-08-03 04:00 1.95 1550 51100 (2019) 1390 (2018) 23200 1390 5170 20200 44300 51100
2020-08-03 03:00 1.96 1560 51100 (2019) 1390 (2018) 23200 1390 5170 20200 44300 51100
2020-08-03 02:00 1.97 1570 51100 (2019) 1390 (2018) 23200 1390 5170 20200 44300 51100
2020-08-03 01:00 1.99 1590 51100 (2019) 1390 (2018) 23200 1390 5170 20200 44300 51100
2020-08-03 00:00 2.00 1600 51100 (2019) 1390 (2018) 23200 1390 5170 20200 44300 51100
2020-08-02 23:00 2.02 1620 51100 (2019) 1140 (2018) 23000 1140 4460 19900 44700 51100
2020-08-02 22:00 2.03 1630 51100 (2019) 1140 (2018) 23000 1140 4460 19900 44700 51100
2020-08-02 21:00 2.05 1650 51100 (2019) 1140 (2018) 23000 1140 4460 19900 44700 51100
2020-08-02 20:00 2.06 1670 51100 (2019) 1140 (2018) 23000 1140 4460 19900 44700 51100
2020-08-02 19:00 2.05 1650 51100 (2019) 1140 (2018) 23000 1140 4460 19900 44700 51100
2020-08-02 18:00 2.02 1620 51100 (2019) 1140 (2018) 23000 1140 4460 19900 44700 51100
2020-08-02 17:00 2.02 1620 51100 (2019) 1140 (2018) 23000 1140 4460 19900 44700 51100
2020-08-02 16:00 2.00 1600 51100 (2019) 1140 (2018) 23000 1140 4460 19900 44700 51100
2020-08-02 15:00 2.00 1600 51100 (2019) 1140 (2018) 23000 1140 4460 19900 44700 51100
2020-08-02 14:00 2.00 1600 51100 (2019) 1140 (2018) 23000 1140 4460 19900 44700 51100
2020-08-02 13:00 2.00 1600 51100 (2019) 1140 (2018) 23000 1140 4460 19900 44700 51100
2020-08-02 12:00 2.00 1600 51100 (2019) 1140 (2018) 23000 1140 4460 19900 44700 51100
2020-08-02 11:00 2.00 1600 51100 (2019) 1140 (2018) 23000 1140 4460 19900 44700 51100
2020-08-02 10:00 2.01 1610 51100 (2019) 1140 (2018) 23000 1140 4460 19900 44700 51100
2020-08-02 09:00 2.01 1610 51100 (2019) 1140 (2018) 23000 1140 4460 19900 44700 51100
2020-08-02 08:00 2.01 1610 51100 (2019) 1140 (2018) 23000 1140 4460 19900 44700 51100
2020-08-02 07:00 2.02 1620 51100 (2019) 1140 (2018) 23000 1140 4460 19900 44700 51100
2020-08-02 06:00 2.03 1630 51100 (2019) 1140 (2018) 23000 1140 4460 19900 44700 51100
2020-08-02 05:00 2.04 1640 51100 (2019) 1140 (2018) 23000 1140 4460 19900 44700 51100
2020-08-02 04:00 2.05 1650 51100 (2019) 1140 (2018) 23000 1140 4460 19900 44700 51100
2020-08-02 03:00 2.08 1690 51100 (2019) 1140 (2018) 23000 1140 4460 19900 44700 51100
2020-08-02 02:00 2.10 1710 51100 (2019) 1140 (2018) 23000 1140 4460 19900 44700 51100
2020-08-02 01:00 2.13 1740 51100 (2019) 1140 (2018) 23000 1140 4460 19900 44700 51100
2020-08-02 00:00 2.17 1790 51100 (2019) 1140 (2018) 23000 1140 4460 19900 44700 51100
2020-08-01 23:00 2.20 1820 51100 (2019) 991 (2018) 18900 991 2760 11700 42100 51100
2020-08-01 22:00 2.26 1890 51100 (2019) 991 (2018) 18900 991 2760 11700 42100 51100
2020-08-01 21:00 2.32 1960 51100 (2019) 991 (2018) 18900 991 2760 11700 42100 51100
2020-08-01 20:00 2.40 2050 51100 (2019) 991 (2018) 18900 991 2760 11700 42100 51100
2020-08-01 19:00 2.49 2160 51100 (2019) 991 (2018) 18900 991 2760 11700 42100 51100
2020-08-01 18:00 2.59 2280 51100 (2019) 991 (2018) 18900 991 2760 11700 42100 51100
2020-08-01 17:00 2.70 2420 51100 (2019) 991 (2018) 18900 991 2760 11700 42100 51100
2020-08-01 16:00 2.83 2580 51100 (2019) 991 (2018) 18900 991 2760 11700 42100 51100
2020-08-01 15:00 2.99 2790 51100 (2019) 991 (2018) 18900 991 2760 11700 42100 51100
2020-08-01 14:00 3.17 3030 51100 (2019) 991 (2018) 18900 991 2760 11700 42100 51100
2020-08-01 13:00 3.38 3320 51100 (2019) 991 (2018) 18900 991 2760 11700 42100 51100
2020-08-01 12:00 3.60 3630 51100 (2019) 991 (2018) 18900 991 2760 11700 42100 51100
2020-08-01 11:00 3.86 4070 51100 (2019) 991 (2018) 18900 991 2760 11700 42100 51100
2020-08-01 10:00 4.15 4570 51100 (2019) 991 (2018) 18900 991 2760 11700 42100 51100
2020-08-01 09:00 4.48 5100 51100 (2019) 991 (2018) 18900 991 2760 11700 42100 51100
2020-08-01 08:00 4.85 5750 51100 (2019) 991 (2018) 18900 991 2760 11700 42100 51100
2020-08-01 07:00 5.25 6510 51100 (2019) 991 (2018) 18900 991 2760 11700 42100 51100
2020-08-01 06:00 5.70 7430 51100 (2019) 991 (2018) 18900 991 2760 11700 42100 51100
2020-08-01 05:00 6.18 8460 51100 (2019) 991 (2018) 18900 991 2760 11700 42100 51100
2020-08-01 04:00 6.71 9660 51100 (2019) 991 (2018) 18900 991 2760 11700 42100 51100
2020-08-01 03:00 7.28 11000 51100 (2019) 991 (2018) 18900 991 2760 11700 42100 51100
2020-08-01 02:00 7.90 12600 51100 (2019) 991 (2018) 18900 991 2760 11700 42100 51100
2020-08-01 01:00 8.55 14300 51100 (2019) 991 (2018) 18900 991 2760 11700 42100 51100
2020-08-01 00:00 9.23 16200 51100 (2019) 991 (2018) 18900 991 2760 11700 42100 51100
2020-07-31 23:00 9.84 18000 51200 (2019) 990 (2018) 15000 990 1240 3840 39800 51200
2020-07-31 22:00 10.15 18900 51200 (2019) 990 (2018) 15000 990 1240 3840 39800 51200
2020-07-31 21:00 9.77 17800 51200 (2019) 990 (2018) 15000 990 1240 3840 39800 51200
2020-07-31 20:00 9.47 16900 51200 (2019) 990 (2018) 15000 990 1240 3840 39800 51200
2020-07-31 19:00 9.28 16400 51200 (2019) 990 (2018) 15000 990 1240 3840 39800 51200
2020-07-31 18:00 8.34 13700 51200 (2019) 990 (2018) 15000 990 1240 3840 39800 51200
2020-07-31 17:00 7.26 11000 51200 (2019) 990 (2018) 15000 990 1240 3840 39800 51200
2020-07-31 16:00 5.90 7850 51200 (2019) 990 (2018) 15000 990 1240 3840 39800 51200
2020-07-31 15:00 4.14 4550 51200 (2019) 990 (2018) 15000 990 1240 3840 39800 51200
2020-07-31 14:00 3.21 3090 51200 (2019) 990 (2018) 15000 990 1240 3840 39800 51200
2020-07-31 13:00 3.17 3030 51200 (2019) 990 (2018) 15000 990 1240 3840 39800 51200
2020-07-31 12:00 3.37 3310 51200 (2019) 990 (2018) 15000 990 1240 3840 39800 51200
2020-07-31 11:00 3.61 3650 51200 (2019) 990 (2018) 15000 990 1240 3840 39800 51200
2020-07-31 10:00 3.90 4140 51200 (2019) 990 (2018) 15000 990 1240 3840 39800 51200
2020-07-31 09:00 4.22 4680 51200 (2019) 990 (2018) 15000 990 1240 3840 39800 51200
2020-07-31 08:00 4.58 5270 51200 (2019) 990 (2018) 15000 990 1240 3840 39800 51200
2020-07-31 07:00 4.98 5990 51200 (2019) 990 (2018) 15000 990 1240 3840 39800 51200
2020-07-31 06:00 5.41 6830 51200 (2019) 990 (2018) 15000 990 1240 3840 39800 51200
2020-07-31 05:00 5.89 7830 51200 (2019) 990 (2018) 15000 990 1240 3840 39800 51200
2020-07-31 04:00 6.39 8930 51200 (2019) 990 (2018) 15000 990 1240 3840 39800 51200
2020-07-31 03:00 6.95 10200 51200 (2019) 990 (2018) 15000 990 1240 3840 39800 51200
2020-07-31 02:00 7.55 11700 51200 (2019) 990 (2018) 15000 990 1240 3840 39800 51200
2020-07-31 01:00 8.20 13400 51200 (2019) 990 (2018) 15000 990 1240 3840 39800 51200
2020-07-31 00:00 8.89 15200 51200 (2019) 990 (2018) 15000 990 1240 3840 39800 51200
2020-07-30 23:00 9.56 17200 51300 (2019) 973 (2018) 14600 973 1040 3160 39700 51300
2020-07-30 22:00 10.05 18600 51300 (2019) 973 (2018) 14600 973 1040 3160 39700 51300
2020-07-30 21:00 10.40 19600 51300 (2019) 973 (2018) 14600 973 1040 3160 39700 51300
2020-07-30 20:00 10.88 20900 51300 (2019) 973 (2018) 14600 973 1040 3160 39700 51300
2020-07-30 19:00 10.37 19500 51300 (2019) 973 (2018) 14600 973 1040 3160 39700 51300
2020-07-30 18:00 9.17 16000 51300 (2019) 973 (2018) 14600 973 1040 3160 39700 51300
2020-07-30 17:00 7.94 12700 51300 (2019) 973 (2018) 14600 973 1040 3160 39700 51300
2020-07-30 16:00 6.70 9640 51300 (2019) 973 (2018) 14600 973 1040 3160 39700 51300
2020-07-30 15:00 5.03 6090 51300 (2019) 973 (2018) 14600 973 1040 3160 39700 51300
2020-07-30 14:00 3.58 3600 51300 (2019) 973 (2018) 14600 973 1040 3160 39700 51300
2020-07-30 13:00 3.10 2940 51300 (2019) 973 (2018) 14600 973 1040 3160 39700 51300
2020-07-30 12:00 3.22 3100 51300 (2019) 973 (2018) 14600 973 1040 3160 39700 51300
2020-07-30 11:00 3.47 3450 51300 (2019) 973 (2018) 14600 973 1040 3160 39700 51300
2020-07-30 10:00 3.74 3860 51300 (2019) 973 (2018) 14600 973 1040 3160 39700 51300
2020-07-30 09:00 4.05 4410 51300 (2019) 973 (2018) 14600 973 1040 3160 39700 51300
2020-07-30 08:00 4.38 4940 51300 (2019) 973 (2018) 14600 973 1040 3160 39700 51300
2020-07-30 07:00 4.76 5590 51300 (2019) 973 (2018) 14600 973 1040 3160 39700 51300
2020-07-30 06:00 5.15 6320 51300 (2019) 973 (2018) 14600 973 1040 3160 39700 51300
2020-07-30 05:00 5.59 7200 51300 (2019) 973 (2018) 14600 973 1040 3160 39700 51300
2020-07-30 04:00 6.05 8170 51300 (2019) 973 (2018) 14600 973 1040 3160 39700 51300
2020-07-30 03:00 6.53 9240 51300 (2019) 973 (2018) 14600 973 1040 3160 39700 51300
2020-07-30 02:00 6.98 10300 51300 (2019) 973 (2018) 14600 973 1040 3160 39700 51300
2020-07-30 01:00 7.41 11300 51300 (2019) 973 (2018) 14600 973 1040 3160 39700 51300
2020-07-30 00:00 7.90 12600 51300 (2019) 973 (2018) 14600 973 1040 3160 39700 51300
2020-07-29 23:00 8.52 14200 51300 (2019) 971 (2018) 15600 971 1160 5030 40600 51300
2020-07-29 22:00 9.26 16300 51300 (2019) 971 (2018) 15600 971 1160 5030 40600 51300
2020-07-29 21:00 10.07 18700 51300 (2019) 971 (2018) 15600 971 1160 5030 40600 51300
2020-07-29 20:00 10.92 21000 51300 (2019) 971 (2018) 15600 971 1160 5030 40600 51300
2020-07-29 19:00 11.59 22800 51300 (2019) 971 (2018) 15600 971 1160 5030 40600 51300
2020-07-29 18:00 11.48 22500 51300 (2019) 971 (2018) 15600 971 1160 5030 40600 51300
2020-07-29 17:00 1 18500 51300 (2019) 971 (2018) 15600 971 1160 5030 40600 51300
2020-07-29 16:00 7.50 11600 51300 (2019) 971 (2018) 15600 971 1160 5030 40600 51300
2020-07-29 15:00 4.07 4440 51300 (2019) 971 (2018) 15600 971 1160 5030 40600 51300
2020-07-29 14:00 3.50 3490 51300 (2019) 971 (2018) 15600 971 1160 5030 40600 51300
2020-07-29 13:00 3.77 3910 51300 (2019) 971 (2018) 15600 971 1160 5030 40600 51300
2020-07-29 12:00 4.07 4440 51300 (2019) 971 (2018) 15600 971 1160 5030 40600 51300
2020-07-29 11:00 4.41 4990 51300 (2019) 971 (2018) 15600 971 1160 5030 40600 51300
2020-07-29 10:00 4.79 5640 51300 (2019) 971 (2018) 15600 971 1160 5030 40600 51300
2020-07-29 09:00 5.20 6410 51300 (2019) 971 (2018) 15600 971 1160 5030 40600 51300
2020-07-29 08:00 5.65 7320 51300 (2019) 971 (2018) 15600 971 1160 5030 40600 51300
2020-07-29 07:00 6.12 8330 51300 (2019) 971 (2018) 15600 971 1160 5030 40600 51300
2020-07-29 06:00 6.62 9450 51300 (2019) 971 (2018) 15600 971 1160 5030 40600 51300
2020-07-29 05:00 7.11 10600 51300 (2019) 971 (2018) 15600 971 1160 5030 40600 51300
2020-07-29 04:00 7.59 11800 51300 (2019) 971 (2018) 15600 971 1160 5030 40600 51300
2020-07-29 03:00 8.11 13100 51300 (2019) 971 (2018) 15600 971 1160 5030 40600 51300
2020-07-29 02:00 8.78 14900 51300 (2019) 971 (2018) 15600 971 1160 5030 40600 51300
2020-07-29 01:00 9.57 17200 51300 (2019) 971 (2018) 15600 971 1160 5030 40600 51300
2020-07-29 00:00 10.44 19700 51300 (2019) 971 (2018) 15600 971 1160 5030 40600 51300
2020-07-28 23:00 11.29 22000 51200 (2019) 955 (2018) 15100 955 1250 4170 40000 51200
2020-07-28 22:00 12.01 24000 51200 (2019) 955 (2018) 15100 955 1250 4170 40000 51200
2020-07-28 21:00 11.92 23800 51200 (2019) 955 (2018) 15100 955 1250 4170 40000 51200
2020-07-28 20:00 11.82 23500 51200 (2019) 955 (2018) 15100 955 1250 4170 40000 51200
2020-07-28 19:00 11.40 22300 51200 (2019) 955 (2018) 15100 955 1250 4170 40000 51200
2020-07-28 18:00 10.09 18800 51200 (2019) 955 (2018) 15100 955 1250 4170 40000 51200
2020-07-28 17:00 8.43 14000 51200 (2019) 955 (2018) 15100 955 1250 4170 40000 51200
2020-07-28 16:00 6.87 10000 51200 (2019) 955 (2018) 15100 955 1250 4170 40000 51200
2020-07-28 15:00 5.27 6550 51200 (2019) 955 (2018) 15100 955 1250 4170 40000 51200
2020-07-28 14:00 3.46 3430 51200 (2019) 955 (2018) 15100 955 1250 4170 40000 51200
2020-07-28 13:00 2.47 2140 51200 (2019) 955 (2018) 15100 955 1250 4170 40000 51200
2020-07-28 12:00 2.24 1870 51200 (2019) 955 (2018) 15100 955 1250 4170 40000 51200
2020-07-28 11:00 2.23 1860 51200 (2019) 955 (2018) 15100 955 1250 4170 40000 51200
2020-07-28 10:00 2.30 1940 51200 (2019) 955 (2018) 15100 955 1250 4170 40000 51200
2020-07-28 09:00 2.41 2070 51200 (2019) 955 (2018) 15100 955 1250 4170 40000 51200
2020-07-28 08:00 2.55 2230 51200 (2019) 955 (2018) 15100 955 1250 4170 40000 51200
2020-07-28 07:00 2.70 2420 51200 (2019) 955 (2018) 15100 955 1250 4170 40000 51200
2020-07-28 06:00 2.87 2640 51200 (2019) 955 (2018) 15100 955 1250 4170 40000 51200
2020-07-28 05:00 3.06 2880 51200 (2019) 955 (2018) 15100 955 1250 4170 40000 51200
2020-07-28 04:00 3.27 3170 51200 (2019) 955 (2018) 15100 955 1250 4170 40000 51200
2020-07-28 03:00 3.49 3480 51200 (2019) 955 (2018) 15100 955 1250 4170 40000 51200
2020-07-28 02:00 3.74 3860 51200 (2019) 955 (2018) 15100 955 1250 4170 40000 51200
2020-07-28 01:00 4.00 4320 51200 (2019) 955 (2018) 15100 955 1250 4170 40000 51200
2020-07-28 00:00 4.27 4760 51200 (2019) 955 (2018) 15100 955 1250 4170 40000 51200
2020-07-27 23:00 4.54 5200 51300 (2019) 993 (2018) 15300 993 1500 4540 40000 51300
2020-07-27 22:00 4.81 5680 51300 (2019) 993 (2018) 15300 993 1500 4540 40000 51300
2020-07-27 21:00 5.04 6110 51300 (2019) 993 (2018) 15300 993 1500 4540 40000 51300
2020-07-27 20:00 5.18 6370 51300 (2019) 993 (2018) 15300 993 1500 4540 40000 51300
2020-07-27 19:00 5.09 6200 51300 (2019) 993 (2018) 15300 993 1500 4540 40000 51300
2020-07-27 18:00 4.40 4970 51300 (2019) 993 (2018) 15300 993 1500 4540 40000 51300
2020-07-27 17:00 2.79 2530 51300 (2019) 993 (2018) 15300 993 1500 4540 40000 51300
2020-07-27 16:00 1.81 1400 51300 (2019) 993 (2018) 15300 993 1500 4540 40000 51300
2020-07-27 15:00 1.75 1340 51300 (2019) 993 (2018) 15300 993 1500 4540 40000 51300
2020-07-27 14:00 1.76 1350 51300 (2019) 993 (2018) 15300 993 1500 4540 40000 51300
2020-07-27 13:00 1.78 1370 51300 (2019) 993 (2018) 15300 993 1500 4540 40000 51300
2020-07-27 12:00 1.79 1380 51300 (2019) 993 (2018) 15300 993 1500 4540 40000 51300
2020-07-27 11:00 1.81 1400 51300 (2019) 993 (2018) 15300 993 1500 4540 40000 51300
2020-07-27 10:00 1.94 1540 51300 (2019) 993 (2018) 15300 993 1500 4540 40000 51300
2020-07-27 09:00 1.96 1560 51300 (2019) 993 (2018) 15300 993 1500 4540 40000 51300
2020-07-27 08:00 1.97 1570 51300 (2019) 993 (2018) 15300 993 1500 4540 40000 51300
2020-07-27 07:00 1.99 1590 51300 (2019) 993 (2018) 15300 993 1500 4540 40000 51300
2020-07-27 06:00 2.01 1610 51300 (2019) 993 (2018) 15300 993 1500 4540 40000 51300
2020-07-27 05:00 2.03 1630 51300 (2019) 993 (2018) 15300 993 1500 4540 40000 51300
2020-07-27 04:00 2.04 1640 51300 (2019) 993 (2018) 15300 993 1500 4540 40000 51300
2020-07-27 03:00 2.05 1650 51300 (2019) 993 (2018) 15300 993 1500 4540 40000 51300
2020-07-27 02:00 2.05 1650 51300 (2019) 993 (2018) 15300 993 1500 4540 40000 51300
2020-07-27 01:00 2.04 1640 51300 (2019) 993 (2018) 15300 993 1500 4540 40000 51300
2020-07-27 00:00 2.01 1610 51300 (2019) 993 (2018) 15300 993 1500 4540 40000 51300
2020-07-26 23:00 1.98 1580 51300 (2019) 3780 (2018) 17100 3780 4220 6610 40400 51300
2020-07-26 22:00 1.93 1520 51300 (2019) 3780 (2018) 17100 3780 4220 6610 40400 51300
2020-07-26 21:00 1.84 1430 51300 (2019) 3780 (2018) 17100 3780 4220 6610 40400 51300
2020-07-26 20:00 1.79 1380 51300 (2019) 3780 (2018) 17100 3780 4220 6610 40400 51300
2020-07-26 19:00 1.79 1380 51300 (2019) 3780 (2018) 17100 3780 4220 6610 40400 51300
2020-07-26 18:00 1.79 1380 51300 (2019) 3780 (2018) 17100 3780 4220 6610 40400 51300
2020-07-26 17:00 1.80 1390 51300 (2019) 3780 (2018) 17100 3780 4220 6610 40400 51300
2020-07-26 16:00 1.81 1400 51300 (2019) 3780 (2018) 17100 3780 4220 6610 40400 51300
2020-07-26 15:00 1.83 1420 51300 (2019) 3780 (2018) 17100 3780 4220 6610 40400 51300
2020-07-26 14:00 1.85 1440 51300 (2019) 3780 (2018) 17100 3780 4220 6610 40400 51300
2020-07-26 13:00 1.88 1470 51300 (2019) 3780 (2018) 17100 3780 4220 6610 40400 51300
2020-07-26 12:00 1.91 1500 51300 (2019) 3780 (2018) 17100 3780 4220 6610 40400 51300
2020-07-26 11:00 1.94 1540 51300 (2019) 3780 (2018) 17100 3780 4220 6610 40400 51300
2020-07-26 10:00 1.99 1590 51300 (2019) 3780 (2018) 17100 3780 4220 6610 40400 51300
2020-07-26 09:00 2.05 1650 51300 (2019) 3780 (2018) 17100 3780 4220 6610 40400 51300
2020-07-26 08:00 2.11 1720 51300 (2019) 3780 (2018) 17100 3780 4220 6610 40400 51300
2020-07-26 07:00 2.17 1790 51300 (2019) 3780 (2018) 17100 3780 4220 6610 40400 51300
2020-07-26 06:00 2.24 1870 51300 (2019) 3780 (2018) 17100 3780 4220 6610 40400 51300
2020-07-26 05:00 2.32 1960 51300 (2019) 3780 (2018) 17100 3780 4220 6610 40400 51300
2020-07-26 04:00 2.39 2040 51300 (2019) 3780 (2018) 17100 3780 4220 6610 40400 51300
2020-07-26 03:00 2.47 2140 51300 (2019) 3780 (2018) 17100 3780 4220 6610 40400 51300
2020-07-26 02:00 2.54 2220 51300 (2019) 3780 (2018) 17100 3780 4220 6610 40400 51300
2020-07-26 01:00 2.60 2300 51300 (2019) 3780 (2018) 17100 3780 4220 6610 40400 51300
2020-07-26 00:00 2.64 2340 51300 (2019) 3780 (2018) 17100 3780 4220 6610 40400 51300
2020-07-25 23:00 2.64 2340 51300 (2019) 1320 (2017) 15600 1320 2190 4860 39700 51300
2020-07-25 22:00 2.56 2250 51300 (2019) 1320 (2017) 15600 1320 2190 4860 39700 51300
2020-07-25 21:00 2.38 2030 51300 (2019) 1320 (2017) 15600 1320 2190 4860 39700 51300
2020-07-25 20:00 2.13 1740 51300 (2019) 1320 (2017) 15600 1320 2190 4860 39700 51300
2020-07-25 19:00 1.90 1490 51300 (2019) 1320 (2017) 15600 1320 2190 4860 39700 51300
2020-07-25 18:00 1.84 1430 51300 (2019) 1320 (2017) 15600 1320 2190 4860 39700 51300
2020-07-25 17:00 1.84 1430 51300 (2019) 1320 (2017) 15600 1320 2190 4860 39700 51300
2020-07-25 16:00 1.84 1430 51300 (2019) 1320 (2017) 15600 1320 2190 4860 39700 51300
2020-07-25 15:00 1.84 1430 51300 (2019) 1320 (2017) 15600 1320 2190 4860 39700 51300
2020-07-25 14:00 1.85 1440 51300 (2019) 1320 (2017) 15600 1320 2190 4860 39700 51300
2020-07-25 13:00 1.87 1460 51300 (2019) 1320 (2017) 15600 1320 2190 4860 39700 51300
2020-07-25 12:00 1.88 1470 51300 (2019) 1320 (2017) 15600 1320 2190 4860 39700 51300
2020-07-25 11:00 1.90 1490 51300 (2019) 1320 (2017) 15600 1320 2190 4860 39700 51300
2020-07-25 10:00 1.91 1500 51300 (2019) 1320 (2017) 15600 1320 2190 4860 39700 51300
2020-07-25 09:00 1.93 1520 51300 (2019) 1320 (2017) 15600 1320 2190 4860 39700 51300
2020-07-25 08:00 1.95 1550 51300 (2019) 1320 (2017) 15600 1320 2190 4860 39700 51300
2020-07-25 07:00 1.97 1570 51300 (2019) 1320 (2017) 15600 1320 2190 4860 39700 51300
2020-07-25 06:00 2.00 1600 51300 (2019) 1320 (2017) 15600 1320 2190 4860 39700 51300
2020-07-25 05:00 2.04 1640 51300 (2019) 1320 (2017) 15600 1320 2190 4860 39700 51300
2020-07-25 04:00 2.08 1690 51300 (2019) 1320 (2017) 15600 1320 2190 4860 39700 51300
2020-07-25 03:00 2.12 1730 51300 (2019) 1320 (2017) 15600 1320 2190 4860 39700 51300
2020-07-25 02:00 2.17 1790 51300 (2019) 1320 (2017) 15600 1320 2190 4860 39700 51300
2020-07-25 01:00 2.24 1870 51300 (2019) 1320 (2017) 15600 1320 2190 4860 39700 51300
2020-07-25 00:00 2.30 1940 51300 (2019) 1320 (2017) 15600 1320 2190 4860 39700 51300
2020-07-24 23:00 2.36 2010 51400 (2019) 1130 (2017) 14200 1130 1180 2150 39300 51400
2020-07-24 22:00 2.43 2090 51400 (2019) 1130 (2017) 14200 1130 1180 2150 39300 51400
2020-07-24 21:00 2.48 2150 51400 (2019) 1130 (2017) 14200 1130 1180 2150 39300 51400
2020-07-24 20:00 2.51 2190 51400 (2019) 1130 (2017) 14200 1130 1180 2150 39300 51400
2020-07-24 19:00 2.50 2170 51400 (2019) 1130 (2017) 14200 1130 1180 2150 39300 51400
2020-07-24 18:00 2.43 2090 51400 (2019) 1130 (2017) 14200 1130 1180 2150 39300 51400
2020-07-24 17:00 2.28 1910 51400 (2019) 1130 (2017) 14200 1130 1180 2150 39300 51400
2020-07-24 16:00 2.08 1690 51400 (2019) 1130 (2017) 14200 1130 1180 2150 39300 51400
2020-07-24 15:00 1.95 1550 51400 (2019) 1130 (2017) 14200 1130 1180 2150 39300 51400
2020-07-24 14:00 1.92 1510 51400 (2019) 1130 (2017) 14200 1130 1180 2150 39300 51400
2020-07-24 13:00 1.97 1570 51400 (2019) 1130 (2017) 14200 1130 1180 2150 39300 51400
2020-07-24 12:00 2.02 1620 51400 (2019) 1130 (2017) 14200 1130 1180 2150 39300 51400
2020-07-24 11:00 2.08 1690 51400 (2019) 1130 (2017) 14200 1130 1180 2150 39300 51400
2020-07-24 10:00 2.15 1770 51400 (2019) 1130 (2017) 14200 1130 1180 2150 39300 51400
2020-07-24 09:00 2.22 1850 51400 (2019) 1130 (2017) 14200 1130 1180 2150 39300 51400
2020-07-24 08:00 2.29 1930 51400 (2019) 1130 (2017) 14200 1130 1180 2150 39300 51400
2020-07-24 07:00 2.35 2000 51400 (2019) 1130 (2017) 14200 1130 1180 2150 39300 51400
2020-07-24 06:00 2.40 2050 51400 (2019) 1130 (2017) 14200 1130 1180 2150 39300 51400
2020-07-24 05:00 2.43 2090 51400 (2019) 1130 (2017) 14200 1130 1180 2150 39300 51400
2020-07-24 04:00 2.45 2110 51400 (2019) 1130 (2017) 14200 1130 1180 2150 39300 51400
2020-07-24 03:00 2.44 2100 51400 (2019) 1130 (2017) 14200 1130 1180 2150 39300 51400
2020-07-24 02:00 2.43 2090 51400 (2019) 1130 (2017) 14200 1130 1180 2150 39300 51400
2020-07-24 01:00 2.42 2080 51400 (2019) 1130 (2017) 14200 1130 1180 2150 39300 51400
2020-07-24 00:00 2.41 2070 51400 (2019) 1130 (2017) 14200 1130 1180 2150 39300 51400
2020-07-23 23:00 2.43 2090 51400 (2019) 1360 (2018) 16700 1360 1410 7020 41700 51400
2020-07-23 22:00 2.46 2130 51400 (2019) 1360 (2018) 16700 1360 1410 7020 41700 51400
2020-07-23 21:00 2.52 2200 51400 (2019) 1360 (2018) 16700 1360 1410 7020 41700 51400
2020-07-23 20:00 2.62 2320 51400 (2019) 1360 (2018) 16700 1360 1410 7020 41700 51400
2020-07-23 19:00 2.76 2490 51400 (2019) 1360 (2018) 16700 1360 1410 7020 41700 51400
2020-07-23 18:00 2.93 2710 51400 (2019) 1360 (2018) 16700 1360 1410 7020 41700 51400
2020-07-23 17:00 3.12 2960 51400 (2019) 1360 (2018) 16700 1360 1410 7020 41700 51400
2020-07-23 16:00 3.34 3260 51400 (2019) 1360 (2018) 16700 1360 1410 7020 41700 51400
2020-07-23 15:00 3.59 3620 51400 (2019) 1360 (2018) 16700 1360 1410 7020 41700 51400
2020-07-23 14:00 3.86 4070 51400 (2019) 1360 (2018) 16700 1360 1410 7020 41700 51400
2020-07-23 13:00 4.16 4590 51400 (2019) 1360 (2018) 16700 1360 1410 7020 41700 51400
2020-07-23 12:00 4.51 5150 51400 (2019) 1360 (2018) 16700 1360 1410 7020 41700 51400
2020-07-23 11:00 4.89 5830 51400 (2019) 1360 (2018) 16700 1360 1410 7020 41700 51400
2020-07-23 10:00 5.30 6610 51400 (2019) 1360 (2018) 16700 1360 1410 7020 41700 51400
2020-07-23 09:00 5.76 7550 51400 (2019) 1360 (2018) 16700 1360 1410 7020 41700 51400
2020-07-23 08:00 6.26 8630 51400 (2019) 1360 (2018) 16700 1360 1410 7020 41700 51400
2020-07-23 07:00 6.78 9820 51400 (2019) 1360 (2018) 16700 1360 1410 7020 41700 51400
2020-07-23 06:00 7.35 11200 51400 (2019) 1360 (2018) 16700 1360 1410 7020 41700 51400
2020-07-23 05:00 7.94 12700 51400 (2019) 1360 (2018) 16700 1360 1410 7020 41700 51400
2020-07-23 04:00 8.54 14300 51400 (2019) 1360 (2018) 16700 1360 1410 7020 41700 51400
2020-07-23 03:00 9.08 15800 51400 (2019) 1360 (2018) 16700 1360 1410 7020 41700 51400
2020-07-23 02:00 9.35 16600 51400 (2019) 1360 (2018) 16700 1360 1410 7020 41700 51400
2020-07-23 01:00 8.57 14400 51400 (2019) 1360 (2018) 16700 1360 1410 7020 41700 51400
2020-07-23 00:00 5.67 7360 51400 (2019) 1360 (2018) 16700 1360 1410 7020 41700 51400
2020-07-22 23:00 4.49 5120 51100 (2019) 1460 (2018) 19600 1460 2170 13000 43800 51100
2020-07-22 22:00 4.72 5520 51100 (2019) 1460 (2018) 19600 1460 2170 13000 43800 51100
2020-07-22 21:00 4.99 6010 51100 (2019) 1460 (2018) 19600 1460 2170 13000 43800 51100
2020-07-22 20:00 5.24 6490 51100 (2019) 1460 (2018) 19600 1460 2170 13000 43800 51100
2020-07-22 19:00 5.40 6810 51100 (2019) 1460 (2018) 19600 1460 2170 13000 43800 51100
2020-07-22 18:00 5.41 6830 51100 (2019) 1460 (2018) 19600 1460 2170 13000 43800 51100
2020-07-22 17:00 5.24 6490 51100 (2019) 1460 (2018) 19600 1460 2170 13000 43800 51100
2020-07-22 16:00 4.91 5860 51100 (2019) 1460 (2018) 19600 1460 2170 13000 43800 51100
2020-07-22 15:00 4.53 5180 51100 (2019) 1460 (2018) 19600 1460 2170 13000 43800 51100
2020-07-22 14:00 4.44 5040 51100 (2019) 1460 (2018) 19600 1460 2170 13000 43800 51100
2020-07-22 13:00 4.50 5130 51100 (2019) 1460 (2018) 19600 1460 2170 13000 43800 51100
2020-07-22 12:00 4.67 5430 51100 (2019) 1460 (2018) 19600 1460 2170 13000 43800 51100
2020-07-22 11:00 4.97 5980 51100 (2019) 1460 (2018) 19600 1460 2170 13000 43800 51100
2020-07-22 10:00 5.37 6750 51100 (2019) 1460 (2018) 19600 1460 2170 13000 43800 51100
2020-07-22 09:00 5.84 7720 51100 (2019) 1460 (2018) 19600 1460 2170 13000 43800 51100
2020-07-22 08:00 6.35 8840 51100 (2019) 1460 (2018) 19600 1460 2170 13000 43800 51100
2020-07-22 07:00 6.91 10100 51100 (2019) 1460 (2018) 19600 1460 2170 13000 43800 51100
2020-07-22 06:00 7.53 11600 51100 (2019) 1460 (2018) 19600 1460 2170 13000 43800 51100
2020-07-22 05:00 8.20 13400 51100 (2019) 1460 (2018) 19600 1460 2170 13000 43800 51100
2020-07-22 04:00 8.94 15400 51100 (2019) 1460 (2018) 19600 1460 2170 13000 43800 51100
2020-07-22 03:00 9.75 17700 51100 (2019) 1460 (2018) 19600 1460 2170 13000 43800 51100
2020-07-22 02:00 10.65 20300 51100 (2019) 1460 (2018) 19600 1460 2170 13000 43800 51100
2020-07-22 01:00 11.62 22900 51100 (2019) 1460 (2018) 19600 1460 2170 13000 43800 51100
2020-07-22 00:00 12.64 25800 51100 (2019) 1460 (2018) 19600 1460 2170 13000 43800 51100
2020-07-21 23:00 13.51 28300 50700 (2019) 6680 (2018) 22700 6680 7910 16700 43400 50700
2020-07-21 22:00 13.55 28400 50700 (2019) 6680 (2018) 22700 6680 7910 16700 43400 50700
2020-07-21 21:00 13.46 28200 50700 (2019) 6680 (2018) 22700 6680 7910 16700 43400 50700
2020-07-21 20:00 13.15 27300 50700 (2019) 6680 (2018) 22700 6680 7910 16700 43400 50700
2020-07-21 19:00 12.87 26500 50700 (2019) 6680 (2018) 22700 6680 7910 16700 43400 50700
2020-07-21 18:00 12.09 24200 50700 (2019) 6680 (2018) 22700 6680 7910 16700 43400 50700
2020-07-21 17:00 10.98 21200 50700 (2019) 6680 (2018) 22700 6680 7910 16700 43400 50700
2020-07-21 16:00 9.77 17800 50700 (2019) 6680 (2018) 22700 6680 7910 16700 43400 50700
2020-07-21 15:00 8.74 14800 50700 (2019) 6680 (2018) 22700 6680 7910 16700 43400 50700
2020-07-21 14:00 7.22 10900 50700 (2019) 6680 (2018) 22700 6680 7910 16700 43400 50700
2020-07-21 13:00 5.45 6910 50700 (2019) 6680 (2018) 22700 6680 7910 16700 43400 50700
2020-07-21 12:00 3.84 4040 50700 (2019) 6680 (2018) 22700 6680 7910 16700 43400 50700
2020-07-21 11:00 3.14 2990 50700 (2019) 6680 (2018) 22700 6680 7910 16700 43400 50700
2020-07-21 10:00 3.15 3000 50700 (2019) 6680 (2018) 22700 6680 7910 16700 43400 50700
2020-07-21 09:00 3.36 3290 50700 (2019) 6680 (2018) 22700 6680 7910 16700 43400 50700
2020-07-21 08:00 3.59 3620 50700 (2019) 6680 (2018) 22700 6680 7910 16700 43400 50700
2020-07-21 07:00 3.84 4040 50700 (2019) 6680 (2018) 22700 6680 7910 16700 43400 50700
2020-07-21 06:00 4.13 4540 50700 (2019) 6680 (2018) 22700 6680 7910 16700 43400 50700
2020-07-21 05:00 4.45 5050 50700 (2019) 6680 (2018) 22700 6680 7910 16700 43400 50700
2020-07-21 04:00 4.80 5660 50700 (2019) 6680 (2018) 22700 6680 7910 16700 43400 50700
2020-07-21 03:00 5.19 6390 50700 (2019) 6680 (2018) 22700 6680 7910 16700 43400 50700
2020-07-21 02:00 5.62 7260 50700 (2019) 6680 (2018) 22700 6680 7910 16700 43400 50700
2020-07-21 01:00 6.08 8240 50700 (2019) 6680 (2018) 22700 6680 7910 16700 43400 50700
2020-07-21 00:00 6.56 9310 50700 (2019) 6680 (2018) 22700 6680 7910 16700 43400 50700
2020-07-20 23:00 7.07 10500 50500 (2019) 11100 (2017) 23300 11100 12200 15800 41800 50500
2020-07-20 22:00 7.59 11800 50500 (2019) 11100 (2017) 23300 11100 12200 15800 41800 50500
2020-07-20 21:00 8.08 13100 50500 (2019) 11100 (2017) 23300 11100 12200 15800 41800 50500
2020-07-20 20:00 8.43 14000 50500 (2019) 11100 (2017) 23300 11100 12200 15800 41800 50500
2020-07-20 19:00 8.30 13600 50500 (2019) 11100 (2017) 23300 11100 12200 15800 41800 50500
2020-07-20 18:00 7.40 11300 50500 (2019) 11100 (2017) 23300 11100 12200 15800 41800 50500
2020-07-20 17:00 6.26 8630 50500 (2019) 11100 (2017) 23300 11100 12200 15800 41800 50500
2020-07-20 16:00 4.52 5170 50500 (2019) 11100 (2017) 23300 11100 12200 15800 41800 50500
2020-07-20 15:00 2.97 2770 50500 (2019) 11100 (2017) 23300 11100 12200 15800 41800 50500
2020-07-20 14:00 2.41 2070 50500 (2019) 11100 (2017) 23300 11100 12200 15800 41800 50500
2020-07-20 13:00 2.34 1980 50500 (2019) 11100 (2017) 23300 11100 12200 15800 41800 50500
2020-07-20 12:00 2.34 1980 50500 (2019) 11100 (2017) 23300 11100 12200 15800 41800 50500
2020-07-20 11:00 2.34 1980 50500 (2019) 11100 (2017) 23300 11100 12200 15800 41800 50500
2020-07-20 10:00 2.34 1980 50500 (2019) 11100 (2017) 23300 11100 12200 15800 41800 50500
2020-07-20 09:00 2.33 1970 50500 (2019) 11100 (2017) 23300 11100 12200 15800 41800 50500
2020-07-20 08:00 2.33 1970 50500 (2019) 11100 (2017) 23300 11100 12200 15800 41800 50500
2020-07-20 07:00 2.32 1960 50500 (2019) 11100 (2017) 23300 11100 12200 15800 41800 50500
2020-07-20 06:00 2.32 1960 50500 (2019) 11100 (2017) 23300 11100 12200 15800 41800 50500
2020-07-20 05:00 2.32 1960 50500 (2019) 11100 (2017) 23300 11100 12200 15800 41800 50500
2020-07-20 04:00 2.31 1950 50500 (2019) 11100 (2017) 23300 11100 12200 15800 41800 50500
2020-07-20 03:00 2.32 1960 50500 (2019) 11100 (2017) 23300 11100 12200 15800 41800 50500
2020-07-20 02:00 2.31 1950 50500 (2019) 11100 (2017) 23300 11100 12200 15800 41800 50500
2020-07-20 01:00 2.31 1950 50500 (2019) 11100 (2017) 23300 11100 12200 15800 41800 50500
2020-07-20 00:00 2.32 1960 50500 (2019) 11100 (2017) 23300 11100 12200 15800 41800 50500
2020-07-19 23:00 2.32 1960 50400 (2019) 6040 (2017) 22000 6040 8030 15800 42200 50400
2020-07-19 22:00 2.33 1970 50400 (2019) 6040 (2017) 22000 6040 8030 15800 42200 50400
2020-07-19 21:00 2.33 1970 50400 (2019) 6040 (2017) 22000 6040 8030 15800 42200 50400
2020-07-19 20:00 2.34 1980 50400 (2019) 6040 (2017) 22000 6040 8030 15800 42200 50400
2020-07-19 19:00 2.33 1970 50400 (2019) 6040 (2017) 22000 6040 8030 15800 42200 50400
2020-07-19 18:00 2.33 1970 50400 (2019) 6040 (2017) 22000 6040 8030 15800 42200 50400
2020-07-19 17:00 2.32 1960 50400 (2019) 6040 (2017) 22000 6040 8030 15800 42200 50400
2020-07-19 16:00 2.32 1960 50400 (2019) 6040 (2017) 22000 6040 8030 15800 42200 50400
2020-07-19 15:00 2.33 1970 50400 (2019) 6040 (2017) 22000 6040 8030 15800 42200 50400
2020-07-19 14:00 2.33 1970 50400 (2019) 6040 (2017) 22000 6040 8030 15800 42200 50400
2020-07-19 13:00 2.32 1960 50400 (2019) 6040 (2017) 22000 6040 8030 15800 42200 50400
2020-07-19 12:00 2.33 1970 50400 (2019) 6040 (2017) 22000 6040 8030 15800 42200 50400
2020-07-19 11:00 2.33 1970 50400 (2019) 6040 (2017) 22000 6040 8030 15800 42200 50400
2020-07-19 10:00 2.33 1970 50400 (2019) 6040 (2017) 22000 6040 8030 15800 42200 50400
2020-07-19 09:00 2.33 1970 50400 (2019) 6040 (2017) 22000 6040 8030 15800 42200 50400
2020-07-19 08:00 2.32 1960 50400 (2019) 6040 (2017) 22000 6040 8030 15800 42200 50400
2020-07-19 07:00 2.32 1960 50400 (2019) 6040 (2017) 22000 6040 8030 15800 42200 50400
2020-07-19 06:00 2.32 1960 50400 (2019) 6040 (2017) 22000 6040 8030 15800 42200 50400
2020-07-19 05:00 2.33 1970 50400 (2019) 6040 (2017) 22000 6040 8030 15800 42200 50400
2020-07-19 04:00 2.32 1960 50400 (2019) 6040 (2017) 22000 6040 8030 15800 42200 50400
2020-07-19 03:00 2.32 1960 50400 (2019) 6040 (2017) 22000 6040 8030 15800 42200 50400
2020-07-19 02:00 2.33 1970 50400 (2019) 6040 (2017) 22000 6040 8030 15800 42200 50400
2020-07-19 01:00 2.33 1970 50400 (2019) 6040 (2017) 22000 6040 8030 15800 42200 50400
2020-07-19 00:00 2.33 1970 50400 (2019) 6040 (2017) 22000 6040 8030 15800 42200 50400
2020-07-18 23:00 2.34 1980 50000 (2019) 6000 (2017) 23600 6000 7950 19200 43600 50000
2020-07-18 22:00 2.35 2000 50000 (2019) 6000 (2017) 23600 6000 7950 19200 43600 50000
2020-07-18 21:00 2.37 2020 50000 (2019) 6000 (2017) 23600 6000 7950 19200 43600 50000
2020-07-18 20:00 2.39 2040 50000 (2019) 6000 (2017) 23600 6000 7950 19200 43600 50000
2020-07-18 19:00 2.42 2080 50000 (2019) 6000 (2017) 23600 6000 7950 19200 43600 50000
2020-07-18 18:00 2.47 2140 50000 (2019) 6000 (2017) 23600 6000 7950 19200 43600 50000
2020-07-18 17:00 2.53 2210 50000 (2019) 6000 (2017) 23600 6000 7950 19200 43600 50000
2020-07-18 16:00 2.61 2310 50000 (2019) 6000 (2017) 23600 6000 7950 19200 43600 50000
2020-07-18 15:00 2.69 2410 50000 (2019) 6000 (2017) 23600 6000 7950 19200 43600 50000
2020-07-18 14:00 2.79 2530 50000 (2019) 6000 (2017) 23600 6000 7950 19200 43600 50000
2020-07-18 13:00 2.91 2690 50000 (2019) 6000 (2017) 23600 6000 7950 19200 43600 50000
2020-07-18 12:00 3.05 2870 50000 (2019) 6000 (2017) 23600 6000 7950 19200 43600 50000
2020-07-18 11:00 3.22 3100 50000 (2019) 6000 (2017) 23600 6000 7950 19200 43600 50000
2020-07-18 10:00 3.41 3360 50000 (2019) 6000 (2017) 23600 6000 7950 19200 43600 50000
2020-07-18 09:00 3.62 3660 50000 (2019) 6000 (2017) 23600 6000 7950 19200 43600 50000
2020-07-18 08:00 3.85 4050 50000 (2019) 6000 (2017) 23600 6000 7950 19200 43600 50000
2020-07-18 07:00 4.12 4520 50000 (2019) 6000 (2017) 23600 6000 7950 19200 43600 50000
2020-07-18 06:00 4.42 5000 50000 (2019) 6000 (2017) 23600 6000 7950 19200 43600 50000
2020-07-18 05:00 4.76 5590 50000 (2019) 6000 (2017) 23600 6000 7950 19200 43600 50000
2020-07-18 04:00 5.14 6300 50000 (2019) 6000 (2017) 23600 6000 7950 19200 43600 50000
2020-07-18 03:00 5.55 7120 50000 (2019) 6000 (2017) 23600 6000 7950 19200 43600 50000
2020-07-18 02:00 6.00 8060 50000 (2019) 6000 (2017) 23600 6000 7950 19200 43600 50000
2020-07-18 01:00 6.48 9130 50000 (2019) 6000 (2017) 23600 6000 7950 19200 43600 50000
2020-07-18 00:00 7.01 10400 50000 (2019) 6000 (2017) 23600 6000 7950 19200 43600 50000
2020-07-17 23:00 7.54 11700 50000 (2019) 976 (2018) 19100 976 2980 12800 41600 50000
2020-07-17 22:00 8.10 13100 50000 (2019) 976 (2018) 19100 976 2980 12800 41600 50000
2020-07-17 21:00 8.62 14500 50000 (2019) 976 (2018) 19100 976 2980 12800 41600 50000
2020-07-17 20:00 9.00 15600 50000 (2019) 976 (2018) 19100 976 2980 12800 41600 50000
2020-07-17 19:00 8.76 14900 50000 (2019) 976 (2018) 19100 976 2980 12800 41600 50000
2020-07-17 18:00 7.04 10400 50000 (2019) 976 (2018) 19100 976 2980 12800 41600 50000
2020-07-17 17:00 4.41 4990 50000 (2019) 976 (2018) 19100 976 2980 12800 41600 50000
2020-07-17 16:00 3.41 3360 50000 (2019) 976 (2018) 19100 976 2980 12800 41600 50000
2020-07-17 15:00 3.34 3260 50000 (2019) 976 (2018) 19100 976 2980 12800 41600 50000
2020-07-17 14:00 3.43 3390 50000 (2019) 976 (2018) 19100 976 2980 12800 41600 50000
2020-07-17 13:00 3.51 3500 50000 (2019) 976 (2018) 19100 976 2980 12800 41600 50000
2020-07-17 12:00 3.60 3630 50000 (2019) 976 (2018) 19100 976 2980 12800 41600 50000
2020-07-17 11:00 3.71 3810 50000 (2019) 976 (2018) 19100 976 2980 12800 41600 50000
2020-07-17 10:00 3.89 4120 50000 (2019) 976 (2018) 19100 976 2980 12800 41600 50000
2020-07-17 09:00 4.14 4550 50000 (2019) 976 (2018) 19100 976 2980 12800 41600 50000
2020-07-17 08:00 4.43 5020 50000 (2019) 976 (2018) 19100 976 2980 12800 41600 50000
2020-07-17 07:00 4.75 5570 50000 (2019) 976 (2018) 19100 976 2980 12800 41600 50000
2020-07-17 06:00 5.11 6240 50000 (2019) 976 (2018) 19100 976 2980 12800 41600 50000
2020-07-17 05:00 5.50 7010 50000 (2019) 976 (2018) 19100 976 2980 12800 41600 50000
2020-07-17 04:00 5.95 7960 50000 (2019) 976 (2018) 19100 976 2980 12800 41600 50000
2020-07-17 03:00 6.42 8990 50000 (2019) 976 (2018) 19100 976 2980 12800 41600 50000
2020-07-17 02:00 6.93 10200 50000 (2019) 976 (2018) 19100 976 2980 12800 41600 50000
2020-07-17 01:00 7.47 11500 50000 (2019) 976 (2018) 19100 976 2980 12800 41600 50000
2020-07-17 00:00 8.03 12900 50000 (2019) 976 (2018) 19100 976 2980 12800 41600 50000
2020-07-16 23:00 8.58 14400 50000 (2019) 951 (2018) 18600 951 1760 11800 42300 50000
2020-07-16 22:00 9.04 15700 50000 (2019) 951 (2018) 18600 951 1760 11800 42300 50000
2020-07-16 21:00 9.04 15700 50000 (2019) 951 (2018) 18600 951 1760 11800 42300 50000
2020-07-16 20:00 8.27 13600 50000 (2019) 951 (2018) 18600 951 1760 11800 42300 50000
2020-07-16 19:00 6.64 9500 50000 (2019) 951 (2018) 18600 951 1760 11800 42300 50000
2020-07-16 18:00 3.75 3880 50000 (2019) 951 (2018) 18600 951 1760 11800 42300 50000
2020-07-16 17:00 2.24 1870 50000 (2019) 951 (2018) 18600 951 1760 11800 42300 50000
2020-07-16 16:00 2.14 1750 50000 (2019) 951 (2018) 18600 951 1760 11800 42300 50000
2020-07-16 15:00 2.14 1750 50000 (2019) 951 (2018) 18600 951 1760 11800 42300 50000
2020-07-16 14:00 2.14 1750 50000 (2019) 951 (2018) 18600 951 1760 11800 42300 50000
2020-07-16 13:00 2.14 1750 50000 (2019) 951 (2018) 18600 951 1760 11800 42300 50000
2020-07-16 12:00 2.14 1750 50000 (2019) 951 (2018) 18600 951 1760 11800 42300 50000
2020-07-16 11:00 2.14 1750 50000 (2019) 951 (2018) 18600 951 1760 11800 42300 50000
2020-07-16 10:00 2.13 1740 50000 (2019) 951 (2018) 18600 951 1760 11800 42300 50000
2020-07-16 09:00 2.13 1740 50000 (2019) 951 (2018) 18600 951 1760 11800 42300 50000
2020-07-16 08:00 2.13 1740 50000 (2019) 951 (2018) 18600 951 1760 11800 42300 50000
2020-07-16 06:00 2.13 1740 50000 (2019) 951 (2018) 18600 951 1760 11800 42300 50000
2020-07-16 05:00 2.14 1750 50000 (2019) 951 (2018) 18600 951 1760 11800 42300 50000
2020-07-16 04:00 2.14 1750 50000 (2019) 951 (2018) 18600 951 1760 11800 42300 50000
2020-07-16 03:00 2.14 1750 50000 (2019) 951 (2018) 18600 951 1760 11800 42300 50000
2020-07-16 02:00 2.14 1750 50000 (2019) 951 (2018) 18600 951 1760 11800 42300 50000
2020-07-16 01:00 2.14 1750 50000 (2019) 951 (2018) 18600 951 1760 11800 42300 50000
2020-07-16 00:00 2.15 1770 50000 (2019) 951 (2018) 18600 951 1760 11800 42300 50000
2020-07-15 23:00 2.15 1770 50100 (2019) 1020 (2018) 20500 1020 1730 15400 44300 50100
2020-07-15 22:00 2.16 1780 50100 (2019) 1020 (2018) 20500 1020 1730 15400 44300 50100
2020-07-15 21:00 2.17 1790 50100 (2019) 1020 (2018) 20500 1020 1730 15400 44300 50100
2020-07-15 20:00 1800 50100 (2019) 1020 (2018) 20500 1020 1730 15400 44300 50100
2020-07-15 19:00 2.18 1800 50100 (2019) 1020 (2018) 20500 1020 1730 15400 44300 50100
2020-07-15 18:00 2.17 1790 50100 (2019) 1020 (2018) 20500 1020 1730 15400 44300 50100
2020-07-15 17:00 2.17 1790 50100 (2019) 1020 (2018) 20500 1020 1730 15400 44300 50100
2020-07-15 16:00 2.16 1780 50100 (2019) 1020 (2018) 20500 1020 1730 15400 44300 50100
2020-07-15 15:00 2.17 1790 50100 (2019) 1020 (2018) 20500 1020 1730 15400 44300 50100
2020-07-15 14:00 2.13 1740 50100 (2019) 1020 (2018) 20500 1020 1730 15400 44300 50100
2020-07-15 13:00 2.13 1740 50100 (2019) 1020 (2018) 20500 1020 1730 15400 44300 50100
2020-07-15 12:00 2.13 1740 50100 (2019) 1020 (2018) 20500 1020 1730 15400 44300 50100
2020-07-15 11:00 2.13 1740 50100 (2019) 1020 (2018) 20500 1020 1730 15400 44300 50100
2020-07-15 10:00 2.13 1740 50100 (2019) 1020 (2018) 20500 1020 1730 15400 44300 50100
2020-07-15 09:00 2.13 1740 50100 (2019) 1020 (2018) 20500 1020 1730 15400 44300 50100
2020-07-15 08:00 2.13 1740 50100 (2019) 1020 (2018) 20500 1020 1730 15400 44300 50100
2020-07-15 07:00 2.14 1750 50100 (2019) 1020 (2018) 20500 1020 1730 15400 44300 50100
2020-07-15 06:00 2.14 1750 50100 (2019) 1020 (2018) 20500 1020 1730 15400 44300 50100
2020-07-15 05:00 2.14 1750 50100 (2019) 1020 (2018) 20500 1020 1730 15400 44300 50100
2020-07-15 04:00 2.14 1750 50100 (2019) 1020 (2018) 20500 1020 1730 15400 44300 50100
2020-07-15 03:00 2.14 1750 50100 (2019) 1020 (2018) 20500 1020 1730 15400 44300 50100
2020-07-15 02:00 2.14 1750 50100 (2019) 1020 (2018) 20500 1020 1730 15400 44300 50100
2020-07-15 01:00 2.14 1750 50100 (2019) 1020 (2018) 20500 1020 1730 15400 44300 50100
2020-07-15 00:00 2.13 1740 50100 (2019) 1020 (2018) 20500 1020 1730 15400 44300 50100
2020-07-14 23:00 2.13 1740 50200 (2019) 5960 (2018) 26000 5960 7000 24000 47100 50200
2020-07-14 22:00 2.12 1730 50200 (2019) 5960 (2018) 26000 5960 7000 24000 47100 50200
2020-07-14 21:00 2.11 1720 50200 (2019) 5960 (2018) 26000 5960 7000 24000 47100 50200
2020-07-14 20:00 2.10 1710 50200 (2019) 5960 (2018) 26000 5960 7000 24000 47100 50200
2020-07-14 19:00 2.09 1700 50200 (2019) 5960 (2018) 26000 5960 7000 24000 47100 50200
2020-07-14 18:00 2.10 1710 50200 (2019) 5960 (2018) 26000 5960 7000 24000 47100 50200
2020-07-14 17:00 2.09 1700 50200 (2019) 5960 (2018) 26000 5960 7000 24000 47100 50200
2020-07-14 16:00 2.08 1690 50200 (2019) 5960 (2018) 26000 5960 7000 24000 47100 50200
2020-07-14 15:00 2.07 1680 50200 (2019) 5960 (2018) 26000 5960 7000 24000 47100 50200
2020-07-14 14:00 2.08 1690 50200 (2019) 5960 (2018) 26000 5960 7000 24000 47100 50200
2020-07-14 13:00 2.07 1680 50200 (2019) 5960 (2018) 26000 5960 7000 24000 47100 50200
2020-07-14 12:00 2.07 1680 50200 (2019) 5960 (2018) 26000 5960 7000 24000 47100 50200
2020-07-14 11:00 2.07 1680 50200 (2019) 5960 (2018) 26000 5960 7000 24000 47100 50200
2020-07-14 10:00 2.07 1680 50200 (2019) 5960 (2018) 26000 5960 7000 24000 47100 50200
2020-07-14 09:00 2.07 1680 50200 (2019) 5960 (2018) 26000 5960 7000 24000 47100 50200
2020-07-14 08:00 2.06 1670 50200 (2019) 5960 (2018) 26000 5960 7000 24000 47100 50200
2020-07-14 07:00 2.06 1670 50200 (2019) 5960 (2018) 26000 5960 7000 24000 47100 50200
2020-07-14 06:00 2.06 1670 50200 (2019) 5960 (2018) 26000 5960 7000 24000 47100 50200
2020-07-14 05:00 2.06 1670 50200 (2019) 5960 (2018) 26000 5960 7000 24000 47100 50200
2020-07-14 04:00 2.06 1670 50200 (2019) 5960 (2018) 26000 5960 7000 24000 47100 50200
2020-07-14 03:00 2.06 1670 50200 (2019) 5960 (2018) 26000 5960 7000 24000 47100 50200
2020-07-14 02:00 2.07 1680 50200 (2019) 5960 (2018) 26000 5960 7000 24000 47100 50200
2020-07-14 01:00 2.07 1680 50200 (2019) 5960 (2018) 26000 5960 7000 24000 47100 50200
2020-07-14 00:00 2.08 1690 50200 (2019) 5960 (2018) 26000 5960 7000 24000 47100 50200
2020-07-13 23:00 2.08 1690 50200 (2019) 8790 (2018) 26900 8790 12400 24200 44000 50200
2020-07-13 22:00 2.08 1690 50200 (2019) 8790 (2018) 26900 8790 12400 24200 44000 50200
2020-07-13 21:00 2.08 1690 50200 (2019) 8790 (2018) 26900 8790 12400 24200 44000 50200
2020-07-13 20:00 2.08 1690 50200 (2019) 8790 (2018) 26900 8790 12400 24200 44000 50200
2020-07-13 19:00 2.08 1690 50200 (2019) 8790 (2018) 26900 8790 12400 24200 44000 50200
2020-07-13 18:00 2.07 1680 50200 (2019) 8790 (2018) 26900 8790 12400 24200 44000 50200
2020-07-13 17:00 2.07 1680 50200 (2019) 8790 (2018) 26900 8790 12400 24200 44000 50200
2020-07-13 16:00 2.08 1690 50200 (2019) 8790 (2018) 26900 8790 12400 24200 44000 50200
2020-07-13 15:00 2.08 1690 50200 (2019) 8790 (2018) 26900 8790 12400 24200 44000 50200
2020-07-13 14:00 2.09 1700 50200 (2019) 8790 (2018) 26900 8790 12400 24200 44000 50200
2020-07-13 13:00 2.10 1710 50200 (2019) 8790 (2018) 26900 8790 12400 24200 44000 50200
2020-07-13 12:00 2.11 1720 50200 (2019) 8790 (2018) 26900 8790 12400 24200 44000 50200
2020-07-13 11:00 2.13 1740 50200 (2019) 8790 (2018) 26900 8790 12400 24200 44000 50200
2020-07-13 10:00 2.15 1770 50200 (2019) 8790 (2018) 26900 8790 12400 24200 44000 50200
2020-07-13 09:00 2.17 1790 50200 (2019) 8790 (2018) 26900 8790 12400 24200 44000 50200
2020-07-13 08:00 2.20 1820 50200 (2019) 8790 (2018) 26900 8790 12400 24200 44000 50200
2020-07-13 07:00 2.23 1860 50200 (2019) 8790 (2018) 26900 8790 12400 24200 44000 50200
2020-07-13 06:00 2.26 1890 50200 (2019) 8790 (2018) 26900 8790 12400 24200 44000 50200
2020-07-13 05:00 2.31 1950 50200 (2019) 8790 (2018) 26900 8790 12400 24200 44000 50200
2020-07-13 04:00 2.34 1980 50200 (2019) 8790 (2018) 26900 8790 12400 24200 44000 50200
2020-07-13 03:00 2.39 2040 50200 (2019) 8790 (2018) 26900 8790 12400 24200 44000 50200
2020-07-13 02:00 2.43 2090 50200 (2019) 8790 (2018) 26900 8790 12400 24200 44000 50200
2020-07-13 01:00 2.46 2130 50200 (2019) 8790 (2018) 26900 8790 12400 24200 44000 50200
2020-07-13 00:00 2.48 2150 50200 (2019) 8790 (2018) 26900 8790 12400 24200 44000 50200
2020-07-12 23:00 2.48 2150 50300 (2019) 949 (2018) 24300 949 6110 23000 43800 50300
2020-07-12 22:00 2.44 2100 50300 (2019) 949 (2018) 24300 949 6110 23000 43800 50300
2020-07-12 21:00 2.38 2030 50300 (2019) 949 (2018) 24300 949 6110 23000 43800 50300
2020-07-12 20:00 2.33 1970 50300 (2019) 949 (2018) 24300 949 6110 23000 43800 50300
2020-07-12 19:00 2.27 1900 50300 (2019) 949 (2018) 24300 949 6110 23000 43800 50300
2020-07-12 18:00 2.23 1860 50300 (2019) 949 (2018) 24300 949 6110 23000 43800 50300
2020-07-12 17:00 2.22 1850 50300 (2019) 949 (2018) 24300 949 6110 23000 43800 50300
2020-07-12 16:00 2.20 1820 50300 (2019) 949 (2018) 24300 949 6110 23000 43800 50300
2020-07-12 15:00 2.19 1810 50300 (2019) 949 (2018) 24300 949 6110 23000 43800 50300
2020-07-12 14:00 2.17 1790 50300 (2019) 949 (2018) 24300 949 6110 23000 43800 50300
2020-07-12 13:00 2.15 1770 50300 (2019) 949 (2018) 24300 949 6110 23000 43800 50300
2020-07-12 12:00 2.14 1750 50300 (2019) 949 (2018) 24300 949 6110 23000 43800 50300
2020-07-12 11:00 2.14 1750 50300 (2019) 949 (2018) 24300 949 6110 23000 43800 50300
2020-07-12 10:00 2.15 1770 50300 (2019) 949 (2018) 24300 949 6110 23000 43800 50300
2020-07-12 09:00 2.17 1790 50300 (2019) 949 (2018) 24300 949 6110 23000 43800 50300
2020-07-12 08:00 2.19 1810 50300 (2019) 949 (2018) 24300 949 6110 23000 43800 50300
2020-07-12 07:00 2.20 1820 50300 (2019) 949 (2018) 24300 949 6110 23000 43800 50300
2020-07-12 06:00 2.21 1830 50300 (2019) 949 (2018) 24300 949 6110 23000 43800 50300
2020-07-12 05:00 2.20 1820 50300 (2019) 949 (2018) 24300 949 6110 23000 43800 50300
2020-07-12 04:00 2.18 1800 50300 (2019) 949 (2018) 24300 949 6110 23000 43800 50300
2020-07-12 03:00 2.14 1750 50300 (2019) 949 (2018) 24300 949 6110 23000 43800 50300
2020-07-12 02:00 2.09 1700 50300 (2019) 949 (2018) 24300 949 6110 23000 43800 50300
2020-07-12 01:00 2.07 1680 50300 (2019) 949 (2018) 24300 949 6110 23000 43800 50300
2020-07-12 00:00 2.07 1680 50300 (2019) 949 (2018) 24300 949 6110 23000 43800 50300
2020-07-11 23:00 2.08 1690 50200 (2019) 1140 (2018) 22600 1140 4930 19600 43300 50200
2020-07-11 22:00 2.09 1700 50200 (2019) 1140 (2018) 22600 1140 4930 19600 43300 50200
2020-07-11 21:00 2.08 1690 50200 (2019) 1140 (2018) 22600 1140 4930 19600 43300 50200
2020-07-11 20:00 2.11 1720 50200 (2019) 1140 (2018) 22600 1140 4930 19600 43300 50200
2020-07-11 19:00 2.11 1720 50200 (2019) 1140 (2018) 22600 1140 4930 19600 43300 50200
2020-07-11 18:00 2.12 1730 50200 (2019) 1140 (2018) 22600 1140 4930 19600 43300 50200
2020-07-11 17:00 2.13 1740 50200 (2019) 1140 (2018) 22600 1140 4930 19600 43300 50200
2020-07-11 16:00 2.15 1770 50200 (2019) 1140 (2018) 22600 1140 4930 19600 43300 50200
2020-07-11 15:00 2.17 1790 50200 (2019) 1140 (2018) 22600 1140 4930 19600 43300 50200
2020-07-11 14:00 2.20 1820 50200 (2019) 1140 (2018) 22600 1140 4930 19600 43300 50200
2020-07-11 13:00 2.24 1870 50200 (2019) 1140 (2018) 22600 1140 4930 19600 43300 50200
2020-07-11 12:00 2.28 1910 50200 (2019) 1140 (2018) 22600 1140 4930 19600 43300 50200
2020-07-11 11:00 2.33 1970 50200 (2019) 1140 (2018) 22600 1140 4930 19600 43300 50200
2020-07-11 10:00 2.38 2030 50200 (2019) 1140 (2018) 22600 1140 4930 19600 43300 50200
2020-07-11 09:00 2.44 2100 50200 (2019) 1140 (2018) 22600 1140 4930 19600 43300 50200
2020-07-11 08:00 2.49 2160 50200 (2019) 1140 (2018) 22600 1140 4930 19600 43300 50200
2020-07-11 07:00 2.55 2230 50200 (2019) 1140 (2018) 22600 1140 4930 19600 43300 50200
2020-07-11 06:00 2.59 2280 50200 (2019) 1140 (2018) 22600 1140 4930 19600 43300 50200
2020-07-11 05:00 2.60 2300 50200 (2019) 1140 (2018) 22600 1140 4930 19600 43300 50200
2020-07-11 04:00 2.58 2270 50200 (2019) 1140 (2018) 22600 1140 4930 19600 43300 50200
2020-07-11 03:00 2.52 2200 50200 (2019) 1140 (2018) 22600 1140 4930 19600 43300 50200
2020-07-11 02:00 2.41 2070 50200 (2019) 1140 (2018) 22600 1140 4930 19600 43300 50200
2020-07-11 01:00 2.34 1980 50200 (2019) 1140 (2018) 22600 1140 4930 19600 43300 50200
2020-07-11 00:00 2.34 1980 50200 (2019) 1140 (2018) 22600 1140 4930 19600 43300 50200
2020-07-10 23:00 2.39 2040 50500 (2019) 1110 (2018) 20600 1110 3480 15300 42900 50500
2020-07-10 22:00 2.46 2130 50500 (2019) 1110 (2018) 20600 1110 3480 15300 42900 50500
2020-07-10 21:00 2.53 2210 50500 (2019) 1110 (2018) 20600 1110 3480 15300 42900 50500
2020-07-10 20:00 2.61 2310 50500 (2019) 1110 (2018) 20600 1110 3480 15300 42900 50500
2020-07-10 19:00 2.72 2440 50500 (2019) 1110 (2018) 20600 1110 3480 15300 42900 50500
2020-07-10 18:00 2.83 2580 50500 (2019) 1110 (2018) 20600 1110 3480 15300 42900 50500
2020-07-10 17:00 2.98 2780 50500 (2019) 1110 (2018) 20600 1110 3480 15300 42900 50500
2020-07-10 16:00 3.14 2990 50500 (2019) 1110 (2018) 20600 1110 3480 15300 42900 50500
2020-07-10 15:00 3.33 3250 50500 (2019) 1110 (2018) 20600 1110 3480 15300 42900 50500
2020-07-10 14:00 3.55 3560 50500 (2019) 1110 (2018) 20600 1110 3480 15300 42900 50500
2020-07-10 13:00 3.79 3950 50500 (2019) 1110 (2018) 20600 1110 3480 15300 42900 50500
2020-07-10 12:00 4.06 4430 50500 (2019) 1110 (2018) 20600 1110 3480 15300 42900 50500
2020-07-10 11:00 4.37 4920 50500 (2019) 1110 (2018) 20600 1110 3480 15300 42900 50500
2020-07-10 10:00 4.72 5520 50500 (2019) 1110 (2018) 20600 1110 3480 15300 42900 50500
2020-07-10 09:00 5.12 6260 50500 (2019) 1110 (2018) 20600 1110 3480 15300 42900 50500
2020-07-10 08:00 5.55 7120 50500 (2019) 1110 (2018) 20600 1110 3480 15300 42900 50500
2020-07-10 07:00 6.03 8130 50500 (2019) 1110 (2018) 20600 1110 3480 15300 42900 50500
2020-07-10 06:00 6.56 9310 50500 (2019) 1110 (2018) 20600 1110 3480 15300 42900 50500
2020-07-10 05:00 7.13 10700 50500 (2019) 1110 (2018) 20600 1110 3480 15300 42900 50500
2020-07-10 04:00 7.74 12200 50500 (2019) 1110 (2018) 20600 1110 3480 15300 42900 50500
2020-07-10 03:00 8.40 13900 50500 (2019) 1110 (2018) 20600 1110 3480 15300 42900 50500
2020-07-10 02:00 9.08 15800 50500 (2019) 1110 (2018) 20600 1110 3480 15300 42900 50500
2020-07-10 01:00 9.74 17700 50500 (2019) 1110 (2018) 20600 1110 3480 15300 42900 50500
2020-07-10 00:00 10.17 19000 50500 (2019) 1110 (2018) 20600 1110 3480 15300 42900 50500
2020-07-09 23:00 9.67 17500 50600 (2019) 928 (2018) 19600 928 3220 13400 42100 50600
2020-07-09 22:00 7.09 10600 50600 (2019) 928 (2018) 19600 928 3220 13400 42100 50600
2020-07-09 21:00 3.61 3650 50600 (2019) 928 (2018) 19600 928 3220 13400 42100 50600
2020-07-09 20:00 3.09 2920 50600 (2019) 928 (2018) 19600 928 3220 13400 42100 50600
2020-07-09 19:00 3.24 3130 50600 (2019) 928 (2018) 19600 928 3220 13400 42100 50600
2020-07-09 18:00 3.41 3360 50600 (2019) 928 (2018) 19600 928 3220 13400 42100 50600
2020-07-09 17:00 3.61 3650 50600 (2019) 928 (2018) 19600 928 3220 13400 42100 50600
2020-07-09 16:00 3.81 3980 50600 (2019) 928 (2018) 19600 928 3220 13400 42100 50600
2020-07-09 15:00 4.04 4390 50600 (2019) 928 (2018) 19600 928 3220 13400 42100 50600
2020-07-09 14:00 4.30 4810 50600 (2019) 928 (2018) 19600 928 3220 13400 42100 50600
2020-07-09 13:00 4.62 5340 50600 (2019) 928 (2018) 19600 928 3220 13400 42100 50600
2020-07-09 12:00 4.97 5980 50600 (2019) 928 (2018) 19600 928 3220 13400 42100 50600
2020-07-09 11:00 5.36 6730 50600 (2019) 928 (2018) 19600 928 3220 13400 42100 50600
2020-07-09 10:00 5.78 7590 50600 (2019) 928 (2018) 19600 928 3220 13400 42100 50600
2020-07-09 09:00 6.21 8520 50600 (2019) 928 (2018) 19600 928 3220 13400 42100 50600
2020-07-09 08:00 6.65 9520 50600 (2019) 928 (2018) 19600 928 3220 13400 42100 50600
2020-07-09 07:00 7.08 10500 50600 (2019) 928 (2018) 19600 928 3220 13400 42100 50600
2020-07-09 06:00 7.50 11600 50600 (2019) 928 (2018) 19600 928 3220 13400 42100 50600
2020-07-09 05:00 8.02 12900 50600 (2019) 928 (2018) 19600 928 3220 13400 42100 50600
2020-07-09 04:00 8.67 14600 50600 (2019) 928 (2018) 19600 928 3220 13400 42100 50600
2020-07-09 03:00 9.40 16700 50600 (2019) 928 (2018) 19600 928 3220 13400 42100 50600
2020-07-09 02:00 10.12 18800 50600 (2019) 928 (2018) 19600 928 3220 13400 42100 50600
2020-07-09 01:00 10.70 20400 50600 (2019) 928 (2018) 19600 928 3220 13400 42100 50600
2020-07-09 00:00 10.65 20300 50600 (2019) 928 (2018) 19600 928 3220 13400 42100 50600
2020-07-08 23:00 8.77 14900 51000 (2019) 932 (2018) 23700 932 4300 21400 45400 51000
2020-07-08 22:00 5.38 6770 51000 (2019) 932 (2018) 23700 932 4300 21400 45400 51000
2020-07-08 21:00 2.89 2660 51000 (2019) 932 (2018) 23700 932 4300 21400 45400 51000
2020-07-08 20:00 2.76 2490 51000 (2019) 932 (2018) 23700 932 4300 21400 45400 51000
2020-07-08 19:00 2.76 2490 51000 (2019) 932 (2018) 23700 932 4300 21400 45400 51000
2020-07-08 18:00 2.77 2510 51000 (2019) 932 (2018) 23700 932 4300 21400 45400 51000
2020-07-08 17:00 2.83 2580 51000 (2019) 932 (2018) 23700 932 4300 21400 45400 51000
2020-07-08 16:00 2.93 2710 51000 (2019) 932 (2018) 23700 932 4300 21400 45400 51000
2020-07-08 15:00 3.07 2900 51000 (2019) 932 (2018) 23700 932 4300 21400 45400 51000
2020-07-08 14:00 3.23 3110 51000 (2019) 932 (2018) 23700 932 4300 21400 45400 51000
2020-07-08 13:00 3.41 3360 51000 (2019) 932 (2018) 23700 932 4300 21400 45400 51000
2020-07-08 12:00 3.61 3650 51000 (2019) 932 (2018) 23700 932 4300 21400 45400 51000
2020-07-08 11:00 3.85 4050 51000 (2019) 932 (2018) 23700 932 4300 21400 45400 51000
2020-07-08 10:00 4.11 4510 51000 (2019) 932 (2018) 23700 932 4300 21400 45400 51000
2020-07-08 09:00 4.42 5000 51000 (2019) 932 (2018) 23700 932 4300 21400 45400 51000
2020-07-08 08:00 4.75 5570 51000 (2019) 932 (2018) 23700 932 4300 21400 45400 51000
2020-07-08 07:00 5.12 6260 51000 (2019) 932 (2018) 23700 932 4300 21400 45400 51000
2020-07-08 06:00 5.52 7050 51000 (2019) 932 (2018) 23700 932 4300 21400 45400 51000
2020-07-08 05:00 5.95 7960 51000 (2019) 932 (2018) 23700 932 4300 21400 45400 51000
2020-07-08 04:00 6.39 8930 51000 (2019) 932 (2018) 23700 932 4300 21400 45400 51000
2020-07-08 03:00 6.83 9940 51000 (2019) 932 (2018) 23700 932 4300 21400 45400 51000
2020-07-08 02:00 7.26 11000 51000 (2019) 932 (2018) 23700 932 4300 21400 45400 51000
2020-07-08 01:00 7.71 12100 51000 (2019) 932 (2018) 23700 932 4300 21400 45400 51000
2020-07-08 00:00 8.27 13600 51000 (2019) 932 (2018) 23700 932 4300 21400 45400 51000
2020-07-07 23:00 8.95 15400 50600 (2019) 933 (2018) 26800 933 7250 27800 45300 50600
2020-07-07 22:00 9.67 17500 50600 (2019) 933 (2018) 26800 933 7250 27800 45300 50600
2020-07-07 21:00 10.28 19300 50600 (2019) 933 (2018) 26800 933 7250 27800 45300 50600
2020-07-07 20:00 10.49 19900 50600 (2019) 933 (2018) 26800 933 7250 27800 45300 50600
2020-07-07 19:00 9.32 16500 50600 (2019) 933 (2018) 26800 933 7250 27800 45300 50600
2020-07-07 18:00 7.01 10400 50600 (2019) 933 (2018) 26800 933 7250 27800 45300 50600
2020-07-07 17:00 4.93 5900 50600 (2019) 933 (2018) 26800 933 7250 27800 45300 50600
2020-07-07 16:00 4.36 4910 50600 (2019) 933 (2018) 26800 933 7250 27800 45300 50600
2020-07-07 15:00 4.50 5130 50600 (2019) 933 (2018) 26800 933 7250 27800 45300 50600
2020-07-07 14:00 4.84 5730 50600 (2019) 933 (2018) 26800 933 7250 27800 45300 50600
2020-07-07 13:00 5.22 6450 50600 (2019) 933 (2018) 26800 933 7250 27800 45300 50600
2020-07-07 12:00 5.64 7300 50600 (2019) 933 (2018) 26800 933 7250 27800 45300 50600
2020-07-07 11:00 6.09 8260 50600 (2019) 933 (2018) 26800 933 7250 27800 45300 50600
2020-07-07 10:00 6.58 9360 50600 (2019) 933 (2018) 26800 933 7250 27800 45300 50600
2020-07-07 09:00 7.09 10600 50600 (2019) 933 (2018) 26800 933 7250 27800 45300 50600
2020-07-07 08:00 7.60 11800 50600 (2019) 933 (2018) 26800 933 7250 27800 45300 50600
2020-07-07 07:00 8.11 13100 50600 (2019) 933 (2018) 26800 933 7250 27800 45300 50600
2020-07-07 06:00 8.69 14700 50600 (2019) 933 (2018) 26800 933 7250 27800 45300 50600
2020-07-07 05:00 9.44 16800 50600 (2019) 933 (2018) 26800 933 7250 27800 45300 50600
2020-07-07 04:00 10.31 19400 50600 (2019) 933 (2018) 26800 933 7250 27800 45300 50600
2020-07-07 03:00 11.29 22000 50600 (2019) 933 (2018) 26800 933 7250 27800 45300 50600
2020-07-07 02:00 12.32 24900 50600 (2019) 933 (2018) 26800 933 7250 27800 45300 50600
2020-07-07 01:00 13.40 28000 50600 (2019) 933 (2018) 26800 933 7250 27800 45300 50600
2020-07-07 00:00 14.24 30500 50600 (2019) 933 (2018) 26800 933 7250 27800 45300 50600
2020-07-06 23:00 13.99 29800 48000 (2019) 989 (2018) 24100 989 6120 23600 42400 48000
2020-07-06 22:00 13.45 28200 48000 (2019) 989 (2018) 24100 989 6120 23600 42400 48000
2020-07-06 21:00 12.87 26500 48000 (2019) 989 (2018) 24100 989 6120 23600 42400 48000
2020-07-06 20:00 12.27 24700 48000 (2019) 989 (2018) 24100 989 6120 23600 42400 48000
2020-07-06 19:00 11.77 23300 48000 (2019) 989 (2018) 24100 989 6120 23600 42400 48000
2020-07-06 18:00 10.47 19800 48000 (2019) 989 (2018) 24100 989 6120 23600 42400 48000
2020-07-06 17:00 8.45 14000 48000 (2019) 989 (2018) 24100 989 6120 23600 42400 48000
2020-07-06 16:00 5.31 6630 48000 (2019) 989 (2018) 24100 989 6120 23600 42400 48000
2020-07-06 15:00 2.68 2390 48000 (2019) 989 (2018) 24100 989 6120 23600 42400 48000
2020-07-06 14:00 2.28 1910 48000 (2019) 989 (2018) 24100 989 6120 23600 42400 48000
2020-07-06 13:00 2.26 1890 48000 (2019) 989 (2018) 24100 989 6120 23600 42400 48000
2020-07-06 12:00 2.27 1900 48000 (2019) 989 (2018) 24100 989 6120 23600 42400 48000
2020-07-06 11:00 2.28 1910 48000 (2019) 989 (2018) 24100 989 6120 23600 42400 48000
2020-07-06 10:00 2.29 1930 48000 (2019) 989 (2018) 24100 989 6120 23600 42400 48000
2020-07-06 09:00 2.30 1940 48000 (2019) 989 (2018) 24100 989 6120 23600 42400 48000
2020-07-06 08:00 2.31 1950 48000 (2019) 989 (2018) 24100 989 6120 23600 42400 48000
2020-07-06 07:00 2.33 1970 48000 (2019) 989 (2018) 24100 989 6120 23600 42400 48000
2020-07-06 06:00 2.34 1980 48000 (2019) 989 (2018) 24100 989 6120 23600 42400 48000
2020-07-06 05:00 2.35 2000 48000 (2019) 989 (2018) 24100 989 6120 23600 42400 48000
2020-07-06 04:00 2.36 2010 48000 (2019) 989 (2018) 24100 989 6120 23600 42400 48000
2020-07-06 03:00 2.36 2010 48000 (2019) 989 (2018) 24100 989 6120 23600 42400 48000
2020-07-06 02:00 2.36 2010 48000 (2019) 989 (2018) 24100 989 6120 23600 42400 48000
2020-07-06 01:00 2.35 2000 48000 (2019) 989 (2018) 24100 989 6120 23600 42400 48000
2020-07-06 00:00 2.34 1980 48000 (2019) 989 (2018) 24100 989 6120 23600 42400 48000
2020-07-05 23:00 2.34 1980 46800 (2019) 1310 (2018) 17200 1310 2890 10400 38400 46800
2020-07-05 22:00 2.34 1980 46800 (2019) 1310 (2018) 17200 1310 2890 10400 38400 46800
2020-07-05 21:00 2.35 2000 46800 (2019) 1310 (2018) 17200 1310 2890 10400 38400 46800
2020-07-05 20:00 2.36 2010 46800 (2019) 1310 (2018) 17200 1310 2890 10400 38400 46800
2020-07-05 19:00 2.37 2020 46800 (2019) 1310 (2018) 17200 1310 2890 10400 38400 46800
2020-07-05 18:00 2.38 2030 46800 (2019) 1310 (2018) 17200 1310 2890 10400 38400 46800
2020-07-05 17:00 2.37 2020 46800 (2019) 1310 (2018) 17200 1310 2890 10400 38400 46800
2020-07-05 16:00 2.37 2020 46800 (2019) 1310 (2018) 17200 1310 2890 10400 38400 46800
2020-07-05 15:00 2.37 2020 46800 (2019) 1310 (2018) 17200 1310 2890 10400 38400 46800
2020-07-05 14:00 2.36 2010 46800 (2019) 1310 (2018) 17200 1310 2890 10400 38400 46800
2020-07-05 13:00 2.37 2020 46800 (2019) 1310 (2018) 17200 1310 2890 10400 38400 46800
2020-07-05 12:00 2.39 2040 46800 (2019) 1310 (2018) 17200 1310 2890 10400 38400 46800
2020-07-05 11:00 2.40 2050 46800 (2019) 1310 (2018) 17200 1310 2890 10400 38400 46800
2020-07-05 10:00 2.44 2100 46800 (2019) 1310 (2018) 17200 1310 2890 10400 38400 46800
2020-07-05 09:00 2.48 2150 46800 (2019) 1310 (2018) 17200 1310 2890 10400 38400 46800
2020-07-05 08:00 2.52 2200 46800 (2019) 1310 (2018) 17200 1310 2890 10400 38400 46800
2020-07-05 07:00 2.57 2260 46800 (2019) 1310 (2018) 17200 1310 2890 10400 38400 46800
2020-07-05 06:00 2.63 2330 46800 (2019) 1310 (2018) 17200 1310 2890 10400 38400 46800
2020-07-05 05:00 2.70 2420 46800 (2019) 1310 (2018) 17200 1310 2890 10400 38400 46800
2020-07-05 04:00 2.78 2520 46800 (2019) 1310 (2018) 17200 1310 2890 10400 38400 46800
2020-07-05 03:00 2.88 2650 46800 (2019) 1310 (2018) 17200 1310 2890 10400 38400 46800
2020-07-05 02:00 2.98 2780 46800 (2019) 1310 (2018) 17200 1310 2890 10400 38400 46800
2020-07-05 01:00 3.10 2940 46800 (2019) 1310 (2018) 17200 1310 2890 10400 38400 46800
2020-07-05 00:00 3.23 3110 46800 (2019) 1310 (2018) 17200 1310 2890 10400 38400 46800
2020-07-04 23:00 3.38 3320 45300 (2019) 1360 (2017) 13000 1360 1430 2700 34900 45300
2020-07-04 22:00 3.54 3550 45300 (2019) 1360 (2017) 13000 1360 1430 2700 34900 45300
2020-07-04 21:00 3.72 3830 45300 (2019) 1360 (2017) 13000 1360 1430 2700 34900 45300
2020-07-04 20:00 3.91 4160 45300 (2019) 1360 (2017) 13000 1360 1430 2700 34900 45300
2020-07-04 19:00 4.11 4510 45300 (2019) 1360 (2017) 13000 1360 1430 2700 34900 45300
2020-07-04 18:00 4.32 4840 45300 (2019) 1360 (2017) 13000 1360 1430 2700 34900 45300
2020-07-04 17:00 4.53 5180 45300 (2019) 1360 (2017) 13000 1360 1430 2700 34900 45300
2020-07-04 16:00 4.70 5480 45300 (2019) 1360 (2017) 13000 1360 1430 2700 34900 45300
2020-07-04 15:00 4.81 5680 45300 (2019) 1360 (2017) 13000 1360 1430 2700 34900 45300
2020-07-04 14:00 4.83 5720 45300 (2019) 1360 (2017) 13000 1360 1430 2700 34900 45300
2020-07-04 13:00 4.81 5680 45300 (2019) 1360 (2017) 13000 1360 1430 2700 34900 45300
2020-07-04 12:00 4.97 5980 45300 (2019) 1360 (2017) 13000 1360 1430 2700 34900 45300
2020-07-04 11:00 5.29 6590 45300 (2019) 1360 (2017) 13000 1360 1430 2700 34900 45300
2020-07-04 10:00 5.65 7320 45300 (2019) 1360 (2017) 13000 1360 1430 2700 34900 45300
2020-07-04 09:00 6.06 8190 45300 (2019) 1360 (2017) 13000 1360 1430 2700 34900 45300
2020-07-04 08:00 6.52 9220 45300 (2019) 1360 (2017) 13000 1360 1430 2700 34900 45300
2020-07-04 07:00 7.00 10300 45300 (2019) 1360 (2017) 13000 1360 1430 2700 34900 45300
2020-07-04 06:00 7.51 11600 45300 (2019) 1360 (2017) 13000 1360 1430 2700 34900 45300
2020-07-04 05:00 8.01 12900 45300 (2019) 1360 (2017) 13000 1360 1430 2700 34900 45300
2020-07-04 04:00 8.57 14400 45300 (2019) 1360 (2017) 13000 1360 1430 2700 34900 45300
2020-07-04 03:00 9.25 16300 45300 (2019) 1360 (2017) 13000 1360 1430 2700 34900 45300
2020-07-04 02:00 10.09 18800 45300 (2019) 1360 (2017) 13000 1360 1430 2700 34900 45300
2020-07-04 01:00 11.01 21300 45300 (2019) 1360 (2017) 13000 1360 1430 2700 34900 45300
2020-07-04 00:00 12.01 24000 45300 (2019) 1360 (2017) 13000 1360 1430 2700 34900 45300
2020-07-03 23:00 13.07 27000 44000 (2019) 1590 (2018) 14100 1590 1640 5330 35200 44000
2020-07-03 22:00 14.02 29800 44000 (2019) 1590 (2018) 14100 1590 1640 5330 35200 44000
2020-07-03 21:00 14.27 30600 44000 (2019) 1590 (2018) 14100 1590 1640 5330 35200 44000
2020-07-03 20:00 14.23 30500 44000 (2019) 1590 (2018) 14100 1590 1640 5330 35200 44000
2020-07-03 19:00 13.73 29000 44000 (2019) 1590 (2018) 14100 1590 1640 5330 35200 44000
2020-07-03 18:00 13.13 27200 44000 (2019) 1590 (2018) 14100 1590 1640 5330 35200 44000
2020-07-03 17:00 12.29 24800 44000 (2019) 1590 (2018) 14100 1590 1640 5330 35200 44000
2020-07-03 16:00 11.18 21700 44000 (2019) 1590 (2018) 14100 1590 1640 5330 35200 44000
2020-07-03 15:00 9.44 16800 44000 (2019) 1590 (2018) 14100 1590 1640 5330 35200 44000
2020-07-03 14:00 6.74 9730 44000 (2019) 1590 (2018) 14100 1590 1640 5330 35200 44000
2020-07-03 13:00 4.10 4490 44000 (2019) 1590 (2018) 14100 1590 1640 5330 35200 44000
2020-07-03 12:00 3.90 4140 44000 (2019) 1590 (2018) 14100 1590 1640 5330 35200 44000
2020-07-03 11:00 4.20 4650 44000 (2019) 1590 (2018) 14100 1590 1640 5330 35200 44000
2020-07-03 10:00 4.54 5200 44000 (2019) 1590 (2018) 14100 1590 1640 5330 35200 44000
2020-07-03 09:00 4.93 5900 44000 (2019) 1590 (2018) 14100 1590 1640 5330 35200 44000
2020-07-03 08:00 5.37 6750 44000 (2019) 1590 (2018) 14100 1590 1640 5330 35200 44000
2020-07-03 07:00 5.85 7740 44000 (2019) 1590 (2018) 14100 1590 1640 5330 35200 44000
2020-07-03 06:00 6.37 8880 44000 (2019) 1590 (2018) 14100 1590 1640 5330 35200 44000
2020-07-03 05:00 6.94 10200 44000 (2019) 1590 (2018) 14100 1590 1640 5330 35200 44000
2020-07-03 04:00 7.57 11700 44000 (2019) 1590 (2018) 14100 1590 1640 5330 35200 44000
2020-07-03 03:00 8.25 13500 44000 (2019) 1590 (2018) 14100 1590 1640 5330 35200 44000
2020-07-03 02:00 8.99 15500 44000 (2019) 1590 (2018) 14100 1590 1640 5330 35200 44000
2020-07-03 01:00 9.79 17800 44000 (2019) 1590 (2018) 14100 1590 1640 5330 35200 44000
2020-07-03 00:00 10.65 20300 44000 (2019) 1590 (2018) 14100 1590 1640 5330 35200 44000
2020-07-02 23:00 11.50 22600 42600 (2019) 1610 (2018) 13500 1610 1720 4860 33900 42600
2020-07-02 22:00 12.09 24200 42600 (2019) 1610 (2018) 13500 1610 1720 4860 33900 42600
2020-07-02 21:00 12.31 24900 42600 (2019) 1610 (2018) 13500 1610 1720 4860 33900 42600
2020-07-02 20:00 12.58 25600 42600 (2019) 1610 (2018) 13500 1610 1720 4860 33900 42600
2020-07-02 19:00 12.41 25100 42600 (2019) 1610 (2018) 13500 1610 1720 4860 33900 42600
2020-07-02 18:00 12.13 24300 42600 (2019) 1610 (2018) 13500 1610 1720 4860 33900 42600
2020-07-02 17:00 11.69 23100 42600 (2019) 1610 (2018) 13500 1610 1720 4860 33900 42600
2020-07-02 16:00 11.17 21700 42600 (2019) 1610 (2018) 13500 1610 1720 4860 33900 42600
2020-07-02 15:00 10.54 20000 42600 (2019) 1610 (2018) 13500 1610 1720 4860 33900 42600
2020-07-02 14:00 9.97 18400 42600 (2019) 1610 (2018) 13500 1610 1720 4860 33900 42600
2020-07-02 13:00 9.58 17200 42600 (2019) 1610 (2018) 13500 1610 1720 4860 33900 42600
2020-07-02 12:00 9.20 16100 42600 (2019) 1610 (2018) 13500 1610 1720 4860 33900 42600
2020-07-02 11:00 8.96 15400 42600 (2019) 1610 (2018) 13500 1610 1720 4860 33900 42600
2020-07-02 10:00 9.27 16300 42600 (2019) 1610 (2018) 13500 1610 1720 4860 33900 42600
2020-07-02 09:00 9.95 18300 42600 (2019) 1610 (2018) 13500 1610 1720 4860 33900 42600
2020-07-02 08:00 10.49 19900 42600 (2019) 1610 (2018) 13500 1610 1720 4860 33900 42600
2020-07-02 07:00 10.37 19500 42600 (2019) 1610 (2018) 13500 1610 1720 4860 33900 42600
2020-07-02 06:00 8.48 14100 42600 (2019) 1610 (2018) 13500 1610 1720 4860 33900 42600
2020-07-02 05:00 5.68 7380 42600 (2019) 1610 (2018) 13500 1610 1720 4860 33900 42600
2020-07-02 04:00 4.60 5300 42600 (2019) 1610 (2018) 13500 1610 1720 4860 33900 42600
2020-07-02 03:00 4.86 5770 42600 (2019) 1610 (2018) 13500 1610 1720 4860 33900 42600
2020-07-02 02:00 5.21 6430 42600 (2019) 1610 (2018) 13500 1610 1720 4860 33900 42600
2020-07-02 01:00 5.59 7200 42600 (2019) 1610 (2018) 13500 1610 1720 4860 33900 42600
2020-07-02 00:00 6.01 8090 42600 (2019) 1610 (2018) 13500 1610 1720 4860 33900 42600
2020-07-01 23:00 6.46 9080 42300 (2019) 1820 (2018) 13900 1820 1960 5760 34000 42300
2020-07-01 22:00 6.94 10200 42300 (2019) 1820 (2018) 13900 1820 1960 5760 34000 42300
2020-07-01 21:00 7.44 11400 42300 (2019) 1820 (2018) 13900 1820 1960 5760 34000 42300
2020-07-01 20:00 7.95 12700 42300 (2019) 1820 (2018) 13900 1820 1960 5760 34000 42300
2020-07-01 19:00 8.39 13900 42300 (2019) 1820 (2018) 13900 1820 1960 5760 34000 42300
2020-07-01 18:00 8.62 14500 42300 (2019) 1820 (2018) 13900 1820 1960 5760 34000 42300
2020-07-01 17:00 7.99 12800 42300 (2019) 1820 (2018) 13900 1820 1960 5760 34000 42300
2020-07-01 16:00 5.85 7740 42300 (2019) 1820 (2018) 13900 1820 1960 5760 34000 42300
2020-07-01 15:00 3.75 3880 42300 (2019) 1820 (2018) 13900 1820 1960 5760 34000 42300
2020-07-01 14:00 3.37 3310 42300 (2019) 1820 (2018) 13900 1820 1960 5760 34000 42300
2020-07-01 13:00 3.44 3400 42300 (2019) 1820 (2018) 13900 1820 1960 5760 34000 42300
2020-07-01 12:00 3.51 3500 42300 (2019) 1820 (2018) 13900 1820 1960 5760 34000 42300
2020-07-01 11:00 3.57 3590 42300 (2019) 1820 (2018) 13900 1820 1960 5760 34000 42300
2020-07-01 10:00 3.61 3650 42300 (2019) 1820 (2018) 13900 1820 1960 5760 34000 42300
2020-07-01 09:00 3.57 3590 42300 (2019) 1820 (2018) 13900 1820 1960 5760 34000 42300
2020-07-01 08:00 3.51 3500 42300 (2019) 1820 (2018) 13900 1820 1960 5760 34000 42300
2020-07-01 07:00 3.50 3490 42300 (2019) 1820 (2018) 13900 1820 1960 5760 34000 42300
2020-07-01 06:00 3.51 3500 42300 (2019) 1820 (2018) 13900 1820 1960 5760 34000 42300
2020-07-01 05:00 3.51 3500 42300 (2019) 1820 (2018) 13900 1820 1960 5760 34000 42300
2020-07-01 04:00 3.52 3520 42300 (2019) 1820 (2018) 13900 1820 1960 5760 34000 42300
2020-07-01 03:00 3.52 3520 42300 (2019) 1820 (2018) 13900 1820 1960 5760 34000 42300
2020-07-01 02:00 3.54 3550 42300 (2019) 1820 (2018) 13900 1820 1960 5760 34000 42300
2020-07-01 01:00 3.55 3560 42300 (2019) 1820 (2018) 13900 1820 1960 5760 34000 42300
2020-07-01 00:00 3.56 3570 42300 (2019) 1820 (2018) 13900 1820 1960 5760 34000 42300
2020-06-30 23:00 3.58 3600 42800 (2019) 2650 (2016) 15000 2650 3610 7220 34100 42800
2020-06-30 22:00 3.61 3650 42800 (2019) 2650 (2016) 15000 2650 3610 7220 34100 42800
2020-06-30 21:00 3.63 3680 42800 (2019) 2650 (2016) 15000 2650 3610 7220 34100 42800
2020-06-30 20:00 3.66 3720 42800 (2019) 2650 (2016) 15000 2650 3610 7220 34100 42800
2020-06-30 19:00 3.70 3790 42800 (2019) 2650 (2016) 15000 2650 3610 7220 34100 42800
2020-06-30 18:00 3.73 3840 42800 (2019) 2650 (2016) 15000 2650 3610 7220 34100 42800
2020-06-30 17:00 3.78 3930 42800 (2019) 2650 (2016) 15000 2650 3610 7220 34100 42800
2020-06-30 16:00 3.84 4040 42800 (2019) 2650 (2016) 15000 2650 3610 7220 34100 42800
2020-06-30 15:00 3.90 4140 42800 (2019) 2650 (2016) 15000 2650 3610 7220 34100 42800
2020-06-30 14:00 3.97 4270 42800 (2019) 2650 (2016) 15000 2650 3610 7220 34100 42800
2020-06-30 13:00 4.03 4380 42800 (2019) 2650 (2016) 15000 2650 3610 7220 34100 42800
2020-06-30 12:00 4.10 4490 42800 (2019) 2650 (2016) 15000 2650 3610 7220 34100 42800
2020-06-30 11:00 4.18 4620 42800 (2019) 2650 (2016) 15000 2650 3610 7220 34100 42800
2020-06-30 10:00 4.27 4760 42800 (2019) 2650 (2016) 15000 2650 3610 7220 34100 42800
2020-06-30 09:00 4.39 4950 42800 (2019) 2650 (2016) 15000 2650 3610 7220 34100 42800
2020-06-30 08:00 4.51 5150 42800 (2019) 2650 (2016) 15000 2650 3610 7220 34100 42800
2020-06-30 07:00 4.66 5410 42800 (2019) 2650 (2016) 15000 2650 3610 7220 34100 42800
2020-06-30 06:00 4.83 5720 42800 (2019) 2650 (2016) 15000 2650 3610 7220 34100 42800
2020-06-30 05:00 5.02 6070 42800 (2019) 2650 (2016) 15000 2650 3610 7220 34100 42800
2020-06-30 04:00 5.21 6430 42800 (2019) 2650 (2016) 15000 2650 3610 7220 34100 42800
2020-06-30 03:00 5.41 6830 42800 (2019) 2650 (2016) 15000 2650 3610 7220 34100 42800
2020-06-30 02:00 5.58 7180 42800 (2019) 2650 (2016) 15000 2650 3610 7220 34100 42800
2020-06-30 01:00 5.71 7450 42800 (2019) 2650 (2016) 15000 2650 3610 7220 34100 42800
2020-06-30 00:00 5.84 7720 42800 (2019) 2650 (2016) 15000 2650 3610 7220 34100 42800
2020-06-29 23:00 6.09 8260 44500 (2019) 3430 (2016) 19600 3430 5920 15200 37700 44500
2020-06-29 22:00 6.36 8860 44500 (2019) 3430 (2016) 19600 3430 5920 15200 37700 44500
2020-06-29 21:00 6.59 9380 44500 (2019) 3430 (2016) 19600 3430 5920 15200 37700 44500
2020-06-29 20:00 6.69 9610 44500 (2019) 3430 (2016) 19600 3430 5920 15200 37700 44500
2020-06-29 19:00 6.40 8950 44500 (2019) 3430 (2016) 19600 3430 5920 15200 37700 44500
2020-06-29 18:00 5.19 6390 44500 (2019) 3430 (2016) 19600 3430 5920 15200 37700 44500
2020-06-29 17:00 3.72 3830 44500 (2019) 3430 (2016) 19600 3430 5920 15200 37700 44500
2020-06-29 16:00 3.08 2910 44500 (2019) 3430 (2016) 19600 3430 5920 15200 37700 44500
2020-06-29 15:00 2.95 2740 44500 (2019) 3430 (2016) 19600 3430 5920 15200 37700 44500
2020-06-29 14:00 2.94 2730 44500 (2019) 3430 (2016) 19600 3430 5920 15200 37700 44500
2020-06-29 13:00 2.94 2730 44500 (2019) 3430 (2016) 19600 3430 5920 15200 37700 44500
2020-06-29 12:00 2.95 2740 44500 (2019) 3430 (2016) 19600 3430 5920 15200 37700 44500
2020-06-29 11:00 2.95 2740 44500 (2019) 3430 (2016) 19600 3430 5920 15200 37700 44500
2020-06-29 10:00 2.97 2770 44500 (2019) 3430 (2016) 19600 3430 5920 15200 37700 44500
2020-06-29 09:00 2.96 2750 44500 (2019) 3430 (2016) 19600 3430 5920 15200 37700 44500
2020-06-29 08:00 2.96 2750 44500 (2019) 3430 (2016) 19600 3430 5920 15200 37700 44500
2020-06-29 07:00 2.96 2750 44500 (2019) 3430 (2016) 19600 3430 5920 15200 37700 44500
2020-06-29 06:00 2.96 2750 44500 (2019) 3430 (2016) 19600 3430 5920 15200 37700 44500
2020-06-29 05:00 2.96 2750 44500 (2019) 3430 (2016) 19600 3430 5920 15200 37700 44500
2020-06-29 04:00 2.95 2740 44500 (2019) 3430 (2016) 19600 3430 5920 15200 37700 44500
2020-06-29 03:00 2.95 2740 44500 (2019) 3430 (2016) 19600 3430 5920 15200 37700 44500
2020-06-29 02:00 2.95 2740 44500 (2019) 3430 (2016) 19600 3430 5920 15200 37700 44500
2020-06-29 01:00 2.95 2740 44500 (2019) 3430 (2016) 19600 3430 5920 15200 37700 44500
2020-06-29 00:00 2.95 2740 44500 (2019) 3430 (2016) 19600 3430 5920 15200 37700 44500
2020-06-28 23:00 2.96 2750 44100 (2019) 6320 (2016) 18600 6320 7340 12000 36500 44100
2020-06-28 22:00 2.96 2750 44100 (2019) 6320 (2016) 18600 6320 7340 12000 36500 44100
2020-06-28 21:00 2.97 2770 44100 (2019) 6320 (2016) 18600 6320 7340 12000 36500 44100
2020-06-28 20:00 2.97 2770 44100 (2019) 6320 (2016) 18600 6320 7340 12000 36500 44100
2020-06-28 19:00 2.97 2770 44100 (2019) 6320 (2016) 18600 6320 7340 12000 36500 44100
2020-06-28 18:00 2.98 2780 44100 (2019) 6320 (2016) 18600 6320 7340 12000 36500 44100
2020-06-28 17:00 2.99 2790 44100 (2019) 6320 (2016) 18600 6320 7340 12000 36500 44100
2020-06-28 16:00 2.99 2790 44100 (2019) 6320 (2016) 18600 6320 7340 12000 36500 44100
2020-06-28 15:00 3.00 2800 44100 (2019) 6320 (2016) 18600 6320 7340 12000 36500 44100
2020-06-28 14:00 3.01 2820 44100 (2019) 6320 (2016) 18600 6320 7340 12000 36500 44100
2020-06-28 13:00 3.01 2820 44100 (2019) 6320 (2016) 18600 6320 7340 12000 36500 44100
2020-06-28 12:00 3.01 2820 44100 (2019) 6320 (2016) 18600 6320 7340 12000 36500 44100
2020-06-28 11:00 3.00 2800 44100 (2019) 6320 (2016) 18600 6320 7340 12000 36500 44100
2020-06-28 10:00 3.00 2800 44100 (2019) 6320 (2016) 18600 6320 7340 12000 36500 44100
2020-06-28 09:00 3.00 2800 44100 (2019) 6320 (2016) 18600 6320 7340 12000 36500 44100
2020-06-28 08:00 3.01 2820 44100 (2019) 6320 (2016) 18600 6320 7340 12000 36500 44100
2020-06-28 07:00 3.02 2830 44100 (2019) 6320 (2016) 18600 6320 7340 12000 36500 44100
2020-06-28 06:00 3.03 2840 44100 (2019) 6320 (2016) 18600 6320 7340 12000 36500 44100
2020-06-28 05:00 3.04 2860 44100 (2019) 6320 (2016) 18600 6320 7340 12000 36500 44100
2020-06-28 04:00 3.06 2880 44100 (2019) 6320 (2016) 18600 6320 7340 12000 36500 44100
2020-06-28 03:00 3.09 2920 44100 (2019) 6320 (2016) 18600 6320 7340 12000 36500 44100
2020-06-28 02:00 3.12 2960 44100 (2019) 6320 (2016) 18600 6320 7340 12000 36500 44100
2020-06-28 01:00 3.17 3030 44100 (2019) 6320 (2016) 18600 6320 7340 12000 36500 44100
2020-06-28 00:00 3.22 3100 44100 (2019) 6320 (2016) 18600 6320 7340 12000 36500 44100
2020-06-27 23:00 3.28 3180 46300 (2019) 2260 (2016) 18000 2260 2840 11700 39400 46300
2020-06-27 22:00 3.36 3290 46300 (2019) 2260 (2016) 18000 2260 2840 11700 39400 46300
2020-06-27 21:00 3.46 3430 46300 (2019) 2260 (2016) 18000 2260 2840 11700 39400 46300
2020-06-27 20:00 3.57 3590 46300 (2019) 2260 (2016) 18000 2260 2840 11700 39400 46300
2020-06-27 19:00 3.71 3810 46300 (2019) 2260 (2016) 18000 2260 2840 11700 39400 46300
2020-06-27 18:00 3.88 4110 46300 (2019) 2260 (2016) 18000 2260 2840 11700 39400 46300
2020-06-27 17:00 4.07 4440 46300 (2019) 2260 (2016) 18000 2260 2840 11700 39400 46300
2020-06-27 16:00 4.30 4810 46300 (2019) 2260 (2016) 18000 2260 2840 11700 39400 46300
2020-06-27 15:00 4.53 5180 46300 (2019) 2260 (2016) 18000 2260 2840 11700 39400 46300
2020-06-27 14:00 4.82 5700 46300 (2019) 2260 (2016) 18000 2260 2840 11700 39400 46300
2020-06-27 13:00 5.15 6320 46300 (2019) 2260 (2016) 18000 2260 2840 11700 39400 46300
2020-06-27 12:00 5.54 7090 46300 (2019) 2260 (2016) 18000 2260 2840 11700 39400 46300
2020-06-27 11:00 5.97 8000 46300 (2019) 2260 (2016) 18000 2260 2840 11700 39400 46300
2020-06-27 10:00 6.43 9020 46300 (2019) 2260 (2016) 18000 2260 2840 11700 39400 46300
2020-06-27 09:00 6.94 10200 46300 (2019) 2260 (2016) 18000 2260 2840 11700 39400 46300
2020-06-27 08:00 7.50 11600 46300 (2019) 2260 (2016) 18000 2260 2840 11700 39400 46300
2020-06-27 07:00 8.09 13100 46300 (2019) 2260 (2016) 18000 2260 2840 11700 39400 46300
2020-06-27 06:00 8.73 14800 46300 (2019) 2260 (2016) 18000 2260 2840 11700 39400 46300
2020-06-27 05:00 9.42 16800 46300 (2019) 2260 (2016) 18000 2260 2840 11700 39400 46300
2020-06-27 04:00 10.07 18700 46300 (2019) 2260 (2016) 18000 2260 2840 11700 39400 46300
2020-06-27 03:00 10.51 19900 46300 (2019) 2260 (2016) 18000 2260 2840 11700 39400 46300
2020-06-27 02:00 10.58 20100 46300 (2019) 2260 (2016) 18000 2260 2840 11700 39400 46300
2020-06-27 01:00 10.44 19700 46300 (2019) 2260 (2016) 18000 2260 2840 11700 39400 46300
2020-06-27 00:00 10.40 19600 46300 (2019) 2260 (2016) 18000 2260 2840 11700 39400 46300
2020-06-26 23:00 10.60 20200 47700 (2019) 2010 (2016) 15700 2010 2940 6450 37600 47700
2020-06-26 22:00 10.77 20600 47700 (2019) 2010 (2016) 15700 2010 2940 6450 37600 47700
2020-06-26 21:00 10.68 20400 47700 (2019) 2010 (2016) 15700 2010 2940 6450 37600 47700
2020-06-26 20:00 10.33 19400 47700 (2019) 2010 (2016) 15700 2010 2940 6450 37600 47700
2020-06-26 19:00 9.85 18000 47700 (2019) 2010 (2016) 15700 2010 2940 6450 37600 47700
2020-06-26 18:00 9.10 15800 47700 (2019) 2010 (2016) 15700 2010 2940 6450 37600 47700
2020-06-26 17:00 8.42 14000 47700 (2019) 2010 (2016) 15700 2010 2940 6450 37600 47700
2020-06-26 16:00 7.84 12400 47700 (2019) 2010 (2016) 15700 2010 2940 6450 37600 47700
2020-06-26 15:00 7.20 10800 47700 (2019) 2010 (2016) 15700 2010 2940 6450 37600 47700
2020-06-26 14:00 6.75 9750 47700 (2019) 2010 (2016) 15700 2010 2940 6450 37600 47700
2020-06-26 13:00 6.48 9130 47700 (2019) 2010 (2016) 15700 2010 2940 6450 37600 47700
2020-06-26 12:00 6.43 9020 47700 (2019) 2010 (2016) 15700 2010 2940 6450 37600 47700
2020-06-26 11:00 6.57 9340 47700 (2019) 2010 (2016) 15700 2010 2940 6450 37600 47700
2020-06-26 10:00 6.72 9680 47700 (2019) 2010 (2016) 15700 2010 2940 6450 37600 47700
2020-06-26 09:00 6.91 10100 47700 (2019) 2010 (2016) 15700 2010 2940 6450 37600 47700
2020-06-26 08:00 7.20 10800 47700 (2019) 2010 (2016) 15700 2010 2940 6450 37600 47700
2020-06-26 07:00 7.55 11700 47700 (2019) 2010 (2016) 15700 2010 2940 6450 37600 47700
2020-06-26 06:00 7.95 12700 47700 (2019) 2010 (2016) 15700 2010 2940 6450 37600 47700
2020-06-26 05:00 8.40 13900 47700 (2019) 2010 (2016) 15700 2010 2940 6450 37600 47700
2020-06-26 04:00 8.88 15200 47700 (2019) 2010 (2016) 15700 2010 2940 6450 37600 47700
2020-06-26 03:00 9.41 16700 47700 (2019) 2010 (2016) 15700 2010 2940 6450 37600 47700
2020-06-26 02:00 9.95 18300 47700 (2019) 2010 (2016) 15700 2010 2940 6450 37600 47700
2020-06-26 01:00 10.41 19600 47700 (2019) 2010 (2016) 15700 2010 2940 6450 37600 47700
2020-06-26 00:00 10.72 20500 47700 (2019) 2010 (2016) 15700 2010 2940 6450 37600 47700
2020-06-25 23:00 10.71 20400 47800 (2019) 2210 (2016) 15300 2210 2320 5650 38000 47800
2020-06-25 22:00 10.41 19600 47800 (2019) 2210 (2016) 15300 2210 2320 5650 38000 47800
2020-06-25 21:00 1 18500 47800 (2019) 2210 (2016) 15300 2210 2320 5650 38000 47800
2020-06-25 20:00 9.88 18100 47800 (2019) 2210 (2016) 15300 2210 2320 5650 38000 47800
2020-06-25 19:00 9.92 18200 47800 (2019) 2210 (2016) 15300 2210 2320 5650 38000 47800
2020-06-25 18:00 9.89 18100 47800 (2019) 2210 (2016) 15300 2210 2320 5650 38000 47800
2020-06-25 17:00 9.57 17200 47800 (2019) 2210 (2016) 15300 2210 2320 5650 38000 47800
2020-06-25 16:00 9.21 16200 47800 (2019) 2210 (2016) 15300 2210 2320 5650 38000 47800
2020-06-25 15:00 8.92 15300 47800 (2019) 2210 (2016) 15300 2210 2320 5650 38000 47800
2020-06-25 14:00 8.64 14600 47800 (2019) 2210 (2016) 15300 2210 2320 5650 38000 47800
2020-06-25 13:00 8.07 13000 47800 (2019) 2210 (2016) 15300 2210 2320 5650 38000 47800
2020-06-25 12:00 7.49 11500 47800 (2019) 2210 (2016) 15300 2210 2320 5650 38000 47800
2020-06-25 11:00 7.34 11200 47800 (2019) 2210 (2016) 15300 2210 2320 5650 38000 47800
2020-06-25 10:00 7.42 11400 47800 (2019) 2210 (2016) 15300 2210 2320 5650 38000 47800
2020-06-25 09:00 7.60 11800 47800 (2019) 2210 (2016) 15300 2210 2320 5650 38000 47800
2020-06-25 08:00 7.78 12300 47800 (2019) 2210 (2016) 15300 2210 2320 5650 38000 47800
2020-06-25 07:00 8.00 12800 47800 (2019) 2210 (2016) 15300 2210 2320 5650 38000 47800
2020-06-25 06:00 8.26 13500 47800 (2019) 2210 (2016) 15300 2210 2320 5650 38000 47800
2020-06-25 05:00 8.58 14400 47800 (2019) 2210 (2016) 15300 2210 2320 5650 38000 47800
2020-06-25 04:00 8.93 15400 47800 (2019) 2210 (2016) 15300 2210 2320 5650 38000 47800
2020-06-25 03:00 9.32 16500 47800 (2019) 2210 (2016) 15300 2210 2320 5650 38000 47800
2020-06-25 02:00 9.75 17700 47800 (2019) 2210 (2016) 15300 2210 2320 5650 38000 47800
2020-06-25 01:00 10.19 19100 47800 (2019) 2210 (2016) 15300 2210 2320 5650 38000 47800
2020-06-25 00:00 10.50 19900 47800 (2019) 2210 (2016) 15300 2210 2320 5650 38000 47800
2020-06-24 23:00 10.57 20100 49700 (2019) 967 (2018) 18400 967 2210 11500 41500 49700
2020-06-24 22:00 10.57 20100 49700 (2019) 967 (2018) 18400 967 2210 11500 41500 49700
2020-06-24 21:00 10.54 20000 49700 (2019) 967 (2018) 18400 967 2210 11500 41500 49700
2020-06-24 20:00 10.23 19200 49700 (2019) 967 (2018) 18400 967 2210 11500 41500 49700
2020-06-24 19:00 10.03 18600 49700 (2019) 967 (2018) 18400 967 2210 11500 41500 49700
2020-06-24 18:00 9.80 17900 49700 (2019) 967 (2018) 18400 967 2210 11500 41500 49700
2020-06-24 17:00 9.67 17500 49700 (2019) 967 (2018) 18400 967 2210 11500 41500 49700
2020-06-24 16:00 9.57 17200 49700 (2019) 967 (2018) 18400 967 2210 11500 41500 49700
2020-06-24 15:00 9.24 16200 49700 (2019) 967 (2018) 18400 967 2210 11500 41500 49700
2020-06-24 14:00 8.81 15000 49700 (2019) 967 (2018) 18400 967 2210 11500 41500 49700
2020-06-24 13:00 8.09 13100 49700 (2019) 967 (2018) 18400 967 2210 11500 41500 49700
2020-06-24 12:00 7.52 11600 49700 (2019) 967 (2018) 18400 967 2210 11500 41500 49700
2020-06-24 11:00 7.34 11200 49700 (2019) 967 (2018) 18400 967 2210 11500 41500 49700
2020-06-24 10:00 7.31 11100 49700 (2019) 967 (2018) 18400 967 2210 11500 41500 49700
2020-06-24 09:00 7.38 11300 49700 (2019) 967 (2018) 18400 967 2210 11500 41500 49700
2020-06-24 08:00 7.50 11600 49700 (2019) 967 (2018) 18400 967 2210 11500 41500 49700
2020-06-24 07:00 7.63 11900 49700 (2019) 967 (2018) 18400 967 2210 11500 41500 49700
2020-06-24 06:00 7.80 12300 49700 (2019) 967 (2018) 18400 967 2210 11500 41500 49700
2020-06-24 05:00 7.98 12800 49700 (2019) 967 (2018) 18400 967 2210 11500 41500 49700
2020-06-24 04:00 8.22 13400 49700 (2019) 967 (2018) 18400 967 2210 11500 41500 49700
2020-06-24 03:00 8.49 14100 49700 (2019) 967 (2018) 18400 967 2210 11500 41500 49700
2020-06-24 02:00 8.81 15000 49700 (2019) 967 (2018) 18400 967 2210 11500 41500 49700
2020-06-24 01:00 9.16 16000 49700 (2019) 967 (2018) 18400 967 2210 11500 41500 49700
2020-06-24 00:00 9.53 17100 49700 (2019) 967 (2018) 18400 967 2210 11500 41500 49700
2020-06-23 22:00 10.09 18800 50800 (2019) 1020 (2018) 22300 1020 3770 18600 44400 50800
2020-06-23 21:00 10.44 19700 50800 (2019) 1020 (2018) 22300 1020 3770 18600 44400 50800
2020-06-23 20:00 10.74 20500 50800 (2019) 1020 (2018) 22300 1020 3770 18600 44400 50800
2020-06-23 19:00 10.77 20600 50800 (2019) 1020 (2018) 22300 1020 3770 18600 44400 50800
2020-06-23 18:00 10.87 20900 50800 (2019) 1020 (2018) 22300 1020 3770 18600 44400 50800
2020-06-23 17:00 10.77 20600 50800 (2019) 1020 (2018) 22300 1020 3770 18600 44400 50800
2020-06-23 16:00 10.47 19800 50800 (2019) 1020 (2018) 22300 1020 3770 18600 44400 50800
2020-06-23 15:00 10.13 18900 50800 (2019) 1020 (2018) 22300 1020 3770 18600 44400 50800
2020-06-23 14:00 9.70 17600 50800 (2019) 1020 (2018) 22300 1020 3770 18600 44400 50800
2020-06-23 13:00 9.04 15700 50800 (2019) 1020 (2018) 22300 1020 3770 18600 44400 50800
2020-06-23 12:00 8.79 15000 50800 (2019) 1020 (2018) 22300 1020 3770 18600 44400 50800
2020-06-23 11:00 9.03 15600 50800 (2019) 1020 (2018) 22300 1020 3770 18600 44400 50800
2020-06-23 10:00 9.21 16200 50800 (2019) 1020 (2018) 22300 1020 3770 18600 44400 50800
2020-06-23 09:00 9.27 16300 50800 (2019) 1020 (2018) 22300 1020 3770 18600 44400 50800
2020-06-23 08:00 9.32 16500 50800 (2019) 1020 (2018) 22300 1020 3770 18600 44400 50800
2020-06-23 07:00 9.41 16700 50800 (2019) 1020 (2018) 22300 1020 3770 18600 44400 50800
2020-06-23 06:00 9.50 17000 50800 (2019) 1020 (2018) 22300 1020 3770 18600 44400 50800
2020-06-23 05:00 9.62 17300 50800 (2019) 1020 (2018) 22300 1020 3770 18600 44400 50800
2020-06-23 04:00 9.75 17700 50800 (2019) 1020 (2018) 22300 1020 3770 18600 44400 50800
2020-06-23 03:00 9.91 18200 50800 (2019) 1020 (2018) 22300 1020 3770 18600 44400 50800
2020-06-23 02:00 10.12 18800 50800 (2019) 1020 (2018) 22300 1020 3770 18600 44400 50800
2020-06-23 01:00 10.35 19500 50800 (2019) 1020 (2018) 22300 1020 3770 18600 44400 50800
2020-06-23 00:00 10.62 20200 50800 (2019) 1020 (2018) 22300 1020 3770 18600 44400 50800
2020-06-22 23:00 10.94 21100 50500 (2019) 1070 (2018) 21600 1070 2870 17400 44500 50500
2020-06-22 22:00 11.27 22000 50500 (2019) 1070 (2018) 21600 1070 2870 17400 44500 50500
2020-06-22 21:00 11.62 22900 50500 (2019) 1070 (2018) 21600 1070 2870 17400 44500 50500
2020-06-22 20:00 11.82 23500 50500 (2019) 1070 (2018) 21600 1070 2870 17400 44500 50500
2020-06-22 19:00 11.61 22900 50500 (2019) 1070 (2018) 21600 1070 2870 17400 44500 50500
2020-06-22 18:00 11.40 22300 50500 (2019) 1070 (2018) 21600 1070 2870 17400 44500 50500
2020-06-22 17:00 11.18 21700 50500 (2019) 1070 (2018) 21600 1070 2870 17400 44500 50500
2020-06-22 16:00 11.09 21500 50500 (2019) 1070 (2018) 21600 1070 2870 17400 44500 50500
2020-06-22 15:00 10.92 21000 50500 (2019) 1070 (2018) 21600 1070 2870 17400 44500 50500
2020-06-22 14:00 10.59 20100 50500 (2019) 1070 (2018) 21600 1070 2870 17400 44500 50500
2020-06-22 13:00 10.47 19800 50500 (2019) 1070 (2018) 21600 1070 2870 17400 44500 50500
2020-06-22 12:00 10.54 20000 50500 (2019) 1070 (2018) 21600 1070 2870 17400 44500 50500
2020-06-22 11:00 10.84 20800 50500 (2019) 1070 (2018) 21600 1070 2870 17400 44500 50500
2020-06-22 10:00 11.09 21500 50500 (2019) 1070 (2018) 21600 1070 2870 17400 44500 50500
2020-06-22 09:00 11.28 22000 50500 (2019) 1070 (2018) 21600 1070 2870 17400 44500 50500
2020-06-22 08:00 11.51 22600 50500 (2019) 1070 (2018) 21600 1070 2870 17400 44500 50500
2020-06-22 07:00 11.77 23300 50500 (2019) 1070 (2018) 21600 1070 2870 17400 44500 50500
2020-06-22 06:00 12.05 24100 50500 (2019) 1070 (2018) 21600 1070 2870 17400 44500 50500
2020-06-22 05:00 12.39 25100 50500 (2019) 1070 (2018) 21600 1070 2870 17400 44500 50500
2020-06-22 04:00 12.76 26100 50500 (2019) 1070 (2018) 21600 1070 2870 17400 44500 50500
2020-06-22 03:00 13.18 27400 50500 (2019) 1070 (2018) 21600 1070 2870 17400 44500 50500
2020-06-22 02:00 13.67 28800 50500 (2019) 1070 (2018) 21600 1070 2870 17400 44500 50500
2020-06-22 01:00 14.15 30200 50500 (2019) 1070 (2018) 21600 1070 2870 17400 44500 50500
2020-06-22 00:00 14.36 30900 50500 (2019) 1070 (2018) 21600 1070 2870 17400 44500 50500
2020-06-21 23:00 14.57 31500 50400 (2019) 1220 (2018) 20900 1220 2370 16100 44400 50400
2020-06-21 22:00 14.77 32100 50400 (2019) 1220 (2018) 20900 1220 2370 16100 44400 50400
2020-06-21 21:00 14.91 32500 50400 (2019) 1220 (2018) 20900 1220 2370 16100 44400 50400
2020-06-21 20:00 14.90 32500 50400 (2019) 1220 (2018) 20900 1220 2370 16100 44400 50400
2020-06-21 19:00 14.76 32100 50400 (2019) 1220 (2018) 20900 1220 2370 16100 44400 50400
2020-06-21 18:00 14.44 31100 50400 (2019) 1220 (2018) 20900 1220 2370 16100 44400 50400
2020-06-21 17:00 14.04 29900 50400 (2019) 1220 (2018) 20900 1220 2370 16100 44400 50400
2020-06-21 16:00 13.66 28800 50400 (2019) 1220 (2018) 20900 1220 2370 16100 44400 50400
2020-06-21 15:00 13.21 27400 50400 (2019) 1220 (2018) 20900 1220 2370 16100 44400 50400
2020-06-21 14:00 12.87 26500 50400 (2019) 1220 (2018) 20900 1220 2370 16100 44400 50400
2020-06-21 13:00 12.92 26600 50400 (2019) 1220 (2018) 20900 1220 2370 16100 44400 50400
2020-06-21 12:00 12.84 26400 50400 (2019) 1220 (2018) 20900 1220 2370 16100 44400 50400
2020-06-21 11:00 12.54 25500 50400 (2019) 1220 (2018) 20900 1220 2370 16100 44400 50400
2020-06-21 10:00 12.11 24300 50400 (2019) 1220 (2018) 20900 1220 2370 16100 44400 50400
2020-06-21 09:00 11.74 23300 50400 (2019) 1220 (2018) 20900 1220 2370 16100 44400 50400
2020-06-21 08:00 11.63 22900 50400 (2019) 1220 (2018) 20900 1220 2370 16100 44400 50400
2020-06-21 07:00 11.60 22900 50400 (2019) 1220 (2018) 20900 1220 2370 16100 44400 50400
2020-06-21 06:00 11.70 23100 50400 (2019) 1220 (2018) 20900 1220 2370 16100 44400 50400
2020-06-21 05:00 11.82 23500 50400 (2019) 1220 (2018) 20900 1220 2370 16100 44400 50400
2020-06-21 04:00 11.91 23700 50400 (2019) 1220 (2018) 20900 1220 2370 16100 44400 50400
2020-06-21 03:00 11.87 23600 50400 (2019) 1220 (2018) 20900 1220 2370 16100 44400 50400
2020-06-21 02:00 11.57 22800 50400 (2019) 1220 (2018) 20900 1220 2370 16100 44400 50400
2020-06-21 01:00 11.33 22100 50400 (2019) 1220 (2018) 20900 1220 2370 16100 44400 50400
2020-06-21 00:00 11.38 22300 50400 (2019) 1220 (2018) 20900 1220 2370 16100 44400 50400
2020-06-20 23:00 11.42 22400 49400 (2019) 3090 (2018) 20900 3090 4280 15500 42800 49400
2020-06-20 22:00 11.46 22500 49400 (2019) 3090 (2018) 20900 3090 4280 15500 42800 49400
2020-06-20 21:00 11.52 22600 49400 (2019) 3090 (2018) 20900 3090 4280 15500 42800 49400
2020-06-20 20:00 11.54 22700 49400 (2019) 3090 (2018) 20900 3090 4280 15500 42800 49400
2020-06-20 19:00 11.51 22600 49400 (2019) 3090 (2018) 20900 3090 4280 15500 42800 49400
2020-06-20 18:00 11.44 22400 49400 (2019) 3090 (2018) 20900 3090 4280 15500 42800 49400
2020-06-20 17:00 11.50 22600 49400 (2019) 3090 (2018) 20900 3090 4280 15500 42800 49400
2020-06-20 16:00 11.94 23800 49400 (2019) 3090 (2018) 20900 3090 4280 15500 42800 49400
2020-06-20 15:00 12.20 24500 49400 (2019) 3090 (2018) 20900 3090 4280 15500 42800 49400
2020-06-20 14:00 12.04 24100 49400 (2019) 3090 (2018) 20900 3090 4280 15500 42800 49400
2020-06-20 13:00 12.02 24000 49400 (2019) 3090 (2018) 20900 3090 4280 15500 42800 49400
2020-06-20 12:00 12.15 24400 49400 (2019) 3090 (2018) 20900 3090 4280 15500 42800 49400
2020-06-20 11:00 12.35 25000 49400 (2019) 3090 (2018) 20900 3090 4280 15500 42800 49400
2020-06-20 10:00 12.59 25700 49400 (2019) 3090 (2018) 20900 3090 4280 15500 42800 49400
2020-06-20 09:00 12.80 26300 49400 (2019) 3090 (2018) 20900 3090 4280 15500 42800 49400
2020-06-20 08:00 13.02 26900 49400 (2019) 3090 (2018) 20900 3090 4280 15500 42800 49400
2020-06-20 07:00 13.32 27800 49400 (2019) 3090 (2018) 20900 3090 4280 15500 42800 49400
2020-06-20 06:00 13.64 28700 49400 (2019) 3090 (2018) 20900 3090 4280 15500 42800 49400
2020-06-20 05:00 14.02 29800 49400 (2019) 3090 (2018) 20900 3090 4280 15500 42800 49400
2020-06-20 04:00 14.46 31200 49400 (2019) 3090 (2018) 20900 3090 4280 15500 42800 49400
2020-06-20 03:00 14.92 32600 49400 (2019) 3090 (2018) 20900 3090 4280 15500 42800 49400
2020-06-20 02:00 15.48 34300 49400 (2019) 3090 (2018) 20900 3090 4280 15500 42800 49400
2020-06-20 01:00 15.94 35800 49400 (2019) 3090 (2018) 20900 3090 4280 15500 42800 49400
2020-06-20 00:00 15.99 35900 49400 (2019) 3090 (2018) 20900 3090 4280 15500 42800 49400
2020-06-19 23:00 15.93 35700 50900 (2019) 2830 (2016) 22000 2830 4600 17200 44300 50900
2020-06-19 22:00 15.86 35500 50900 (2019) 2830 (2016) 22000 2830 4600 17200 44300 50900
2020-06-19 21:00 15.79 35300 50900 (2019) 2830 (2016) 22000 2830 4600 17200 44300 50900
2020-06-19 20:00 15.70 35000 50900 (2019) 2830 (2016) 22000 2830 4600 17200 44300 50900
2020-06-19 19:00 15.58 34600 50900 (2019) 2830 (2016) 22000 2830 4600 17200 44300 50900
2020-06-19 18:00 15.44 34200 50900 (2019) 2830 (2016) 22000 2830 4600 17200 44300 50900
2020-06-19 17:00 15.26 33600 50900 (2019) 2830 (2016) 22000 2830 4600 17200 44300 50900
2020-06-19 16:00 15.04 32900 50900 (2019) 2830 (2016) 22000 2830 4600 17200 44300 50900
2020-06-19 15:00 14.78 32100 50900 (2019) 2830 (2016) 22000 2830 4600 17200 44300 50900
2020-06-19 14:00 14.52 31400 50900 (2019) 2830 (2016) 22000 2830 4600 17200 44300 50900
2020-06-19 13:00 14.17 30300 50900 (2019) 2830 (2016) 22000 2830 4600 17200 44300 50900
2020-06-19 12:00 13.80 29200 50900 (2019) 2830 (2016) 22000 2830 4600 17200 44300 50900
2020-06-19 11:00 13.33 27800 50900 (2019) 2830 (2016) 22000 2830 4600 17200 44300 50900
2020-06-19 10:00 12.75 26100 50900 (2019) 2830 (2016) 22000 2830 4600 17200 44300 50900
2020-06-19 09:00 12.29 24800 50900 (2019) 2830 (2016) 22000 2830 4600 17200 44300 50900
2020-06-19 08:00 12.31 24900 50900 (2019) 2830 (2016) 22000 2830 4600 17200 44300 50900
2020-06-19 07:00 12.75 26100 50900 (2019) 2830 (2016) 22000 2830 4600 17200 44300 50900
2020-06-19 06:00 13.19 27400 50900 (2019) 2830 (2016) 22000 2830 4600 17200 44300 50900
2020-06-19 05:00 13.66 28800 50900 (2019) 2830 (2016) 22000 2830 4600 17200 44300 50900
2020-06-19 04:00 14.00 29800 50900 (2019) 2830 (2016) 22000 2830 4600 17200 44300 50900
2020-06-19 03:00 14.23 30500 50900 (2019) 2830 (2016) 22000 2830 4600 17200 44300 50900
2020-06-19 02:00 14.24 30500 50900 (2019) 2830 (2016) 22000 2830 4600 17200 44300 50900
2020-06-19 01:00 14.30 30700 50900 (2019) 2830 (2016) 22000 2830 4600 17200 44300 50900
2020-06-19 00:00 13.90 29500 50900 (2019) 2830 (2016) 22000 2830 4600 17200 44300 50900
2020-06-18 23:00 13.41 28000 52600 (2019) 7590 (2016) 24200 7590 8030 18200 46200 52600
2020-06-18 22:00 12.74 26100 52600 (2019) 7590 (2016) 24200 7590 8030 18200 46200 52600
2020-06-18 21:00 11.94 23800 52600 (2019) 7590 (2016) 24200 7590 8030 18200 46200 52600
2020-06-18 20:00 11.07 21400 52600 (2019) 7590 (2016) 24200 7590 8030 18200 46200 52600
2020-06-18 19:00 10.62 20200 52600 (2019) 7590 (2016) 24200 7590 8030 18200 46200 52600
2020-06-18 18:00 10.67 20300 52600 (2019) 7590 (2016) 24200 7590 8030 18200 46200 52600
2020-06-18 17:00 10.77 20600 52600 (2019) 7590 (2016) 24200 7590 8030 18200 46200 52600
2020-06-18 16:00 10.86 20800 52600 (2019) 7590 (2016) 24200 7590 8030 18200 46200 52600
2020-06-18 15:00 11.02 21300 52600 (2019) 7590 (2016) 24200 7590 8030 18200 46200 52600
2020-06-18 14:00 11.19 21700 52600 (2019) 7590 (2016) 24200 7590 8030 18200 46200 52600
2020-06-18 13:00 11.36 22200 52600 (2019) 7590 (2016) 24200 7590 8030 18200 46200 52600
2020-06-18 12:00 11.61 22900 52600 (2019) 7590 (2016) 24200 7590 8030 18200 46200 52600
2020-06-18 11:00 11.85 23600 52600 (2019) 7590 (2016) 24200 7590 8030 18200 46200 52600
2020-06-18 09:00 12.41 25100 52600 (2019) 7590 (2016) 24200 7590 8030 18200 46200 52600
2020-06-18 08:00 12.42 25200 52600 (2019) 7590 (2016) 24200 7590 8030 18200 46200 52600
2020-06-18 07:00 12.56 25600 52600 (2019) 7590 (2016) 24200 7590 8030 18200 46200 52600
2020-06-18 06:00 12.84 26400 52600 (2019) 7590 (2016) 24200 7590 8030 18200 46200 52600
2020-06-18 05:00 12.92 26600 52600 (2019) 7590 (2016) 24200 7590 8030 18200 46200 52600
2020-06-18 04:00 12.79 26200 52600 (2019) 7590 (2016) 24200 7590 8030 18200 46200 52600
2020-06-18 03:00 12.64 25800 52600 (2019) 7590 (2016) 24200 7590 8030 18200 46200 52600
2020-06-18 02:00 12.60 25700 52600 (2019) 7590 (2016) 24200 7590 8030 18200 46200 52600
2020-06-18 01:00 12.60 25700 52600 (2019) 7590 (2016) 24200 7590 8030 18200 46200 52600
2020-06-18 00:00 12.79 26200 52600 (2019) 7590 (2016) 24200 7590 8030 18200 46200 52600
2020-06-17 23:00 13.00 26800 56700 (2019) 1370 (2018) 27700 1370 5830 26400 50900 56700
2020-06-17 22:00 13.47 28200 56700 (2019) 1370 (2018) 27700 1370 5830 26400 50900 56700
2020-06-17 21:00 13.62 28700 56700 (2019) 1370 (2018) 27700 1370 5830 26400 50900 56700
2020-06-17 20:00 14.01 29800 56700 (2019) 1370 (2018) 27700 1370 5830 26400 50900 56700
2020-06-17 19:00 14.19 30400 56700 (2019) 1370 (2018) 27700 1370 5830 26400 50900 56700
2020-06-17 18:00 13.82 29200 56700 (2019) 1370 (2018) 27700 1370 5830 26400 50900 56700
2020-06-17 17:00 13.33 27800 56700 (2019) 1370 (2018) 27700 1370 5830 26400 50900 56700
2020-06-17 16:00 12.75 26100 56700 (2019) 1370 (2018) 27700 1370 5830 26400 50900 56700
2020-06-17 15:00 12.31 24900 56700 (2019) 1370 (2018) 27700 1370 5830 26400 50900 56700
2020-06-17 14:00 11.95 23800 56700 (2019) 1370 (2018) 27700 1370 5830 26400 50900 56700
2020-06-17 13:00 11.63 22900 56700 (2019) 1370 (2018) 27700 1370 5830 26400 50900 56700
2020-06-17 12:00 11.47 22500 56700 (2019) 1370 (2018) 27700 1370 5830 26400 50900 56700
2020-06-17 11:00 11.29 22000 56700 (2019) 1370 (2018) 27700 1370 5830 26400 50900 56700
2020-06-17 10:00 11.39 22300 56700 (2019) 1370 (2018) 27700 1370 5830 26400 50900 56700
2020-06-17 09:00 11.59 22800 56700 (2019) 1370 (2018) 27700 1370 5830 26400 50900 56700
2020-06-17 08:00 11.79 23400 56700 (2019) 1370 (2018) 27700 1370 5830 26400 50900 56700
2020-06-17 07:00 12.04 24100 56700 (2019) 1370 (2018) 27700 1370 5830 26400 50900 56700
2020-06-17 06:00 12.36 25000 56700 (2019) 1370 (2018) 27700 1370 5830 26400 50900 56700
2020-06-17 05:00 12.54 25500 56700 (2019) 1370 (2018) 27700 1370 5830 26400 50900 56700
2020-06-17 04:00 12.72 26000 56700 (2019) 1370 (2018) 27700 1370 5830 26400 50900 56700
2020-06-17 03:00 12.92 26600 56700 (2019) 1370 (2018) 27700 1370 5830 26400 50900 56700
2020-06-17 02:00 13.14 27200 56700 (2019) 1370 (2018) 27700 1370 5830 26400 50900 56700
2020-06-17 01:00 13.28 27700 56700 (2019) 1370 (2018) 27700 1370 5830 26400 50900 56700
2020-06-17 00:00 13.39 28000 56700 (2019) 1370 (2018) 27700 1370 5830 26400 50900 56700
2020-06-16 23:00 13.64 28700 59000 (2019) 1860 (2018) 28400 1860 6470 26400 52400 59000
2020-06-16 22:00 13.96 29700 59000 (2019) 1860 (2018) 28400 1860 6470 26400 52400 59000
2020-06-16 21:00 14.27 30600 59000 (2019) 1860 (2018) 28400 1860 6470 26400 52400 59000
2020-06-16 20:00 14.49 31300 59000 (2019) 1860 (2018) 28400 1860 6470 26400 52400 59000
2020-06-16 19:00 14.26 30600 59000 (2019) 1860 (2018) 28400 1860 6470 26400 52400 59000
2020-06-16 18:00 14.01 29800 59000 (2019) 1860 (2018) 28400 1860 6470 26400 52400 59000
2020-06-16 17:00 13.54 28400 59000 (2019) 1860 (2018) 28400 1860 6470 26400 52400 59000
2020-06-16 16:00 12.90 26500 59000 (2019) 1860 (2018) 28400 1860 6470 26400 52400 59000
2020-06-16 15:00 12.11 24300 59000 (2019) 1860 (2018) 28400 1860 6470 26400 52400 59000
2020-06-16 14:00 11.40 22300 59000 (2019) 1860 (2018) 28400 1860 6470 26400 52400 59000
2020-06-16 13:00 10.96 21100 59000 (2019) 1860 (2018) 28400 1860 6470 26400 52400 59000
2020-06-16 12:00 10.77 20600 59000 (2019) 1860 (2018) 28400 1860 6470 26400 52400 59000
2020-06-16 11:00 10.65 20300 59000 (2019) 1860 (2018) 28400 1860 6470 26400 52400 59000
2020-06-16 10:00 10.75 20600 59000 (2019) 1860 (2018) 28400 1860 6470 26400 52400 59000
2020-06-16 09:00 10.78 20600 59000 (2019) 1860 (2018) 28400 1860 6470 26400 52400 59000
2020-06-16 08:00 10.83 20800 59000 (2019) 1860 (2018) 28400 1860 6470 26400 52400 59000
2020-06-16 07:00 11.17 21700 59000 (2019) 1860 (2018) 28400 1860 6470 26400 52400 59000
2020-06-16 06:00 11.51 22600 59000 (2019) 1860 (2018) 28400 1860 6470 26400 52400 59000
2020-06-16 05:00 11.96 23900 59000 (2019) 1860 (2018) 28400 1860 6470 26400 52400 59000
2020-06-16 04:00 12.60 25700 59000 (2019) 1860 (2018) 28400 1860 6470 26400 52400 59000
2020-06-16 03:00 13.16 27300 59000 (2019) 1860 (2018) 28400 1860 6470 26400 52400 59000
2020-06-16 02:00 13.50 28300 59000 (2019) 1860 (2018) 28400 1860 6470 26400 52400 59000
2020-06-16 01:00 13.86 29400 59000 (2019) 1860 (2018) 28400 1860 6470 26400 52400 59000
2020-06-16 00:00 14.27 30600 59000 (2019) 1860 (2018) 28400 1860 6470 26400 52400 59000
2020-06-15 23:00 14.56 31500 58700 (2019) 2400 (2018) 28200 2400 6700 26000 52100 58700
2020-06-15 22:00 14.77 32100 58700 (2019) 2400 (2018) 28200 2400 6700 26000 52100 58700
2020-06-15 21:00 14.68 31800 58700 (2019) 2400 (2018) 28200 2400 6700 26000 52100 58700
2020-06-15 20:00 14.72 32000 58700 (2019) 2400 (2018) 28200 2400 6700 26000 52100 58700
2020-06-15 19:00 14.48 31200 58700 (2019) 2400 (2018) 28200 2400 6700 26000 52100 58700
2020-06-15 18:00 14.21 30400 58700 (2019) 2400 (2018) 28200 2400 6700 26000 52100 58700
2020-06-15 17:00 13.79 29200 58700 (2019) 2400 (2018) 28200 2400 6700 26000 52100 58700
2020-06-15 16:00 13.29 27700 58700 (2019) 2400 (2018) 28200 2400 6700 26000 52100 58700
2020-06-15 15:00 12.79 26200 58700 (2019) 2400 (2018) 28200 2400 6700 26000 52100 58700
2020-06-15 14:00 12.39 25100 58700 (2019) 2400 (2018) 28200 2400 6700 26000 52100 58700
2020-06-15 12:00 12.22 24600 58700 (2019) 2400 (2018) 28200 2400 6700 26000 52100 58700
2020-06-15 11:00 12.29 24800 58700 (2019) 2400 (2018) 28200 2400 6700 26000 52100 58700
2020-06-15 10:00 12.52 25500 58700 (2019) 2400 (2018) 28200 2400 6700 26000 52100 58700
2020-06-15 09:00 12.84 26400 58700 (2019) 2400 (2018) 28200 2400 6700 26000 52100 58700
2020-06-15 08:00 12.98 26800 58700 (2019) 2400 (2018) 28200 2400 6700 26000 52100 58700
2020-06-15 07:00 13.11 27200 58700 (2019) 2400 (2018) 28200 2400 6700 26000 52100 58700
2020-06-15 06:00 13.23 27500 58700 (2019) 2400 (2018) 28200 2400 6700 26000 52100 58700
2020-06-15 05:00 13.68 28800 58700 (2019) 2400 (2018) 28200 2400 6700 26000 52100 58700
2020-06-15 04:00 13.95 29600 58700 (2019) 2400 (2018) 28200 2400 6700 26000 52100 58700
2020-06-15 03:00 14.00 29800 58700 (2019) 2400 (2018) 28200 2400 6700 26000 52100 58700
2020-06-15 02:00 13.80 29200 58700 (2019) 2400 (2018) 28200 2400 6700 26000 52100 58700
2020-06-15 01:00 13.42 28100 58700 (2019) 2400 (2018) 28200 2400 6700 26000 52100 58700
2020-06-15 00:00 13.33 27800 58700 (2019) 2400 (2018) 28200 2400 6700 26000 52100 58700
2020-06-14 23:00 13.34 27800 58300 (2019) 2030 (2018) 27800 2030 6250 25500 51700 58300
2020-06-14 22:00 13.47 28200 58300 (2019) 2030 (2018) 27800 2030 6250 25500 51700 58300
2020-06-14 21:00 13.48 28200 58300 (2019) 2030 (2018) 27800 2030 6250 25500 51700 58300
2020-06-14 20:00 13.66 28800 58300 (2019) 2030 (2018) 27800 2030 6250 25500 51700 58300
2020-06-14 19:00 13.85 29300 58300 (2019) 2030 (2018) 27800 2030 6250 25500 51700 58300
2020-06-14 18:00 13.92 29500 58300 (2019) 2030 (2018) 27800 2030 6250 25500 51700 58300
2020-06-14 17:00 13.78 29100 58300 (2019) 2030 (2018) 27800 2030 6250 25500 51700 58300
2020-06-14 16:00 13.42 28100 58300 (2019) 2030 (2018) 27800 2030 6250 25500 51700 58300
2020-06-14 15:00 13.05 27000 58300 (2019) 2030 (2018) 27800 2030 6250 25500 51700 58300
2020-06-14 14:00 12.77 26200 58300 (2019) 2030 (2018) 27800 2030 6250 25500 51700 58300
2020-06-14 13:00 12.45 25300 58300 (2019) 2030 (2018) 27800 2030 6250 25500 51700 58300
2020-06-14 12:00 12.17 24500 58300 (2019) 2030 (2018) 27800 2030 6250 25500 51700 58300
2020-06-14 11:00 11.94 23800 58300 (2019) 2030 (2018) 27800 2030 6250 25500 51700 58300
2020-06-14 10:00 11.67 23100 58300 (2019) 2030 (2018) 27800 2030 6250 25500 51700 58300
2020-06-14 09:00 11.41 22300 58300 (2019) 2030 (2018) 27800 2030 6250 25500 51700 58300
2020-06-14 08:00 11.16 21700 58300 (2019) 2030 (2018) 27800 2030 6250 25500 51700 58300
2020-06-14 07:00 11.05 21400 58300 (2019) 2030 (2018) 27800 2030 6250 25500 51700 58300
2020-06-14 06:00 11.20 21800 58300 (2019) 2030 (2018) 27800 2030 6250 25500 51700 58300
2020-06-14 05:00 11.53 22700 58300 (2019) 2030 (2018) 27800 2030 6250 25500 51700 58300
2020-06-14 04:00 11.87 23600 58300 (2019) 2030 (2018) 27800 2030 6250 25500 51700 58300
2020-06-14 03:00 12.16 24400 58300 (2019) 2030 (2018) 27800 2030 6250 25500 51700 58300
2020-06-14 02:00 12.33 24900 58300 (2019) 2030 (2018) 27800 2030 6250 25500 51700 58300
2020-06-14 01:00 12.32 24900 58300 (2019) 2030 (2018) 27800 2030 6250 25500 51700 58300
2020-06-14 00:00 12.28 24800 58300 (2019) 2030 (2018) 27800 2030 6250 25500 51700 58300
2020-06-13 23:00 12.38 25100 57900 (2019) 1500 (2018) 26600 1500 4770 23500 51500 57900
2020-06-13 22:00 12.56 25600 57900 (2019) 1500 (2018) 26600 1500 4770 23500 51500 57900
2020-06-13 21:00 12.72 26000 57900 (2019) 1500 (2018) 26600 1500 4770 23500 51500 57900
2020-06-13 20:00 12.92 26600 57900 (2019) 1500 (2018) 26600 1500 4770 23500 51500 57900
2020-06-13 19:00 13.15 27300 57900 (2019) 1500 (2018) 26600 1500 4770 23500 51500 57900
2020-06-13 18:00 13.23 27500 57900 (2019) 1500 (2018) 26600 1500 4770 23500 51500 57900
2020-06-13 17:00 13.39 28000 57900 (2019) 1500 (2018) 26600 1500 4770 23500 51500 57900
2020-06-13 16:00 13.51 28300 57900 (2019) 1500 (2018) 26600 1500 4770 23500 51500 57900
2020-06-13 15:00 13.55 28400 57900 (2019) 1500 (2018) 26600 1500 4770 23500 51500 57900
2020-06-13 14:00 13.56 28500 57900 (2019) 1500 (2018) 26600 1500 4770 23500 51500 57900
2020-06-13 13:00 13.52 28400 57900 (2019) 1500 (2018) 26600 1500 4770 23500 51500 57900
2020-06-13 12:00 13.38 27900 57900 (2019) 1500 (2018) 26600 1500 4770 23500 51500 57900
2020-06-13 11:00 13.04 27000 57900 (2019) 1500 (2018) 26600 1500 4770 23500 51500 57900
2020-06-13 10:00 12.87 26500 57900 (2019) 1500 (2018) 26600 1500 4770 23500 51500 57900
2020-06-13 09:00 12.62 25700 57900 (2019) 1500 (2018) 26600 1500 4770 23500 51500 57900
2020-06-13 08:00 12.81 26300 57900 (2019) 1500 (2018) 26600 1500 4770 23500 51500 57900
2020-06-13 07:00 13.24 27500 57900 (2019) 1500 (2018) 26600 1500 4770 23500 51500 57900
2020-06-13 06:00 13.60 28600 57900 (2019) 1500 (2018) 26600 1500 4770 23500 51500 57900
2020-06-13 05:00 14.07 30000 57900 (2019) 1500 (2018) 26600 1500 4770 23500 51500 57900
2020-06-13 04:00 14.58 31500 57900 (2019) 1500 (2018) 26600 1500 4770 23500 51500 57900
2020-06-13 03:00 15.01 32900 57900 (2019) 1500 (2018) 26600 1500 4770 23500 51500 57900
2020-06-13 02:00 15.59 34700 57900 (2019) 1500 (2018) 26600 1500 4770 23500 51500 57900
2020-06-13 01:00 15.87 35500 57900 (2019) 1500 (2018) 26600 1500 4770 23500 51500 57900
2020-06-13 00:00 15.91 35700 57900 (2019) 1500 (2018) 26600 1500 4770 23500 51500 57900
2020-06-12 23:00 15.90 35600 51500 (2019) 1670 (2018) 24100 1670 3930 21600 46800 51500
2020-06-12 22:00 15.89 35600 51500 (2019) 1670 (2018) 24100 1670 3930 21600 46800 51500
2020-06-12 21:00 15.88 35600 51500 (2019) 1670 (2018) 24100 1670 3930 21600 46800 51500
2020-06-12 20:00 15.82 35400 51500 (2019) 1670 (2018) 24100 1670 3930 21600 46800 51500
2020-06-12 19:00 15.77 35200 51500 (2019) 1670 (2018) 24100 1670 3930 21600 46800 51500
2020-06-12 18:00 15.74 35100 51500 (2019) 1670 (2018) 24100 1670 3930 21600 46800 51500
2020-06-12 17:00 15.67 34900 51500 (2019) 1670 (2018) 24100 1670 3930 21600 46800 51500
2020-06-12 16:00 15.60 34700 51500 (2019) 1670 (2018) 24100 1670 3930 21600 46800 51500
2020-06-12 15:00 15.51 34400 51500 (2019) 1670 (2018) 24100 1670 3930 21600 46800 51500
2020-06-12 14:00 15.43 34200 51500 (2019) 1670 (2018) 24100 1670 3930 21600 46800 51500
2020-06-12 13:00 15.31 33800 51500 (2019) 1670 (2018) 24100 1670 3930 21600 46800 51500
2020-06-12 12:00 15.10 33100 51500 (2019) 1670 (2018) 24100 1670 3930 21600 46800 51500
2020-06-12 11:00 14.83 32300 51500 (2019) 1670 (2018) 24100 1670 3930 21600 46800 51500
2020-06-12 10:00 14.54 31400 51500 (2019) 1670 (2018) 24100 1670 3930 21600 46800 51500
2020-06-12 09:00 14.26 30600 51500 (2019) 1670 (2018) 24100 1670 3930 21600 46800 51500
2020-06-12 08:00 14.02 29800 51500 (2019) 1670 (2018) 24100 1670 3930 21600 46800 51500
2020-06-12 07:00 14.13 30200 51500 (2019) 1670 (2018) 24100 1670 3930 21600 46800 51500
2020-06-12 06:00 14.18 30300 51500 (2019) 1670 (2018) 24100 1670 3930 21600 46800 51500
2020-06-12 05:00 14.54 31400 51500 (2019) 1670 (2018) 24100 1670 3930 21600 46800 51500
2020-06-12 04:00 14.86 32400 51500 (2019) 1670 (2018) 24100 1670 3930 21600 46800 51500
2020-06-12 03:00 15.33 33800 51500 (2019) 1670 (2018) 24100 1670 3930 21600 46800 51500
2020-06-12 02:00 15.67 34900 51500 (2019) 1670 (2018) 24100 1670 3930 21600 46800 51500
2020-06-12 01:00 15.66 34900 51500 (2019) 1670 (2018) 24100 1670 3930 21600 46800 51500
2020-06-12 00:00 15.53 34500 51500 (2019) 1670 (2018) 24100 1670 3930 21600 46800 51500
2020-06-11 23:00 15.47 34300 36100 (2019) 1830 (2018) 21100 1830 5100 23200 34900 36100
2020-06-11 22:00 15.37 34000 36100 (2019) 1830 (2018) 21100 1830 5100 23200 34900 36100
2020-06-11 21:00 15.24 33600 36100 (2019) 1830 (2018) 21100 1830 5100 23200 34900 36100
2020-06-11 20:00 15.08 33100 36100 (2019) 1830 (2018) 21100 1830 5100 23200 34900 36100
2020-06-11 19:00 14.87 32400 36100 (2019) 1830 (2018) 21100 1830 5100 23200 34900 36100
2020-06-11 18:00 14.63 31700 36100 (2019) 1830 (2018) 21100 1830 5100 23200 34900 36100
2020-06-11 17:00 14.42 31100 36100 (2019) 1830 (2018) 21100 1830 5100 23200 34900 36100
2020-06-11 16:00 14.39 31000 36100 (2019) 1830 (2018) 21100 1830 5100 23200 34900 36100
2020-06-11 15:00 14.39 31000 36100 (2019) 1830 (2018) 21100 1830 5100 23200 34900 36100
2020-06-11 14:00 14.37 30900 36100 (2019) 1830 (2018) 21100 1830 5100 23200 34900 36100
2020-06-11 13:00 14.31 30700 36100 (2019) 1830 (2018) 21100 1830 5100 23200 34900 36100
2020-06-11 12:00 14.30 30700 36100 (2019) 1830 (2018) 21100 1830 5100 23200 34900 36100
2020-06-11 11:00 14.28 30600 36100 (2019) 1830 (2018) 21100 1830 5100 23200 34900 36100
2020-06-11 10:00 14.24 30500 36100 (2019) 1830 (2018) 21100 1830 5100 23200 34900 36100
2020-06-11 09:00 14.18 30300 36100 (2019) 1830 (2018) 21100 1830 5100 23200 34900 36100
2020-06-11 08:00 14.13 30200 36100 (2019) 1830 (2018) 21100 1830 5100 23200 34900 36100
2020-06-11 07:00 14.03 29900 36100 (2019) 1830 (2018) 21100 1830 5100 23200 34900 36100
2020-06-11 06:00 13.96 29700 36100 (2019) 1830 (2018) 21100 1830 5100 23200 34900 36100
2020-06-11 05:00 13.87 29400 36100 (2019) 1830 (2018) 21100 1830 5100 23200 34900 36100
2020-06-11 04:00 13.72 29000 36100 (2019) 1830 (2018) 21100 1830 5100 23200 34900 36100
2020-06-11 03:00 13.60 28600 36100 (2019) 1830 (2018) 21100 1830 5100 23200 34900 36100
2020-06-11 02:00 13.45 28200 36100 (2019) 1830 (2018) 21100 1830 5100 23200 34900 36100
2020-06-11 01:00 13.32 27800 36100 (2019) 1830 (2018) 21100 1830 5100 23200 34900 36100
2020-06-11 00:00 13.34 27800 36100 (2019) 1830 (2018) 21100 1830 5100 23200 34900 36100
2020-06-10 23:00 13.39 28000 32200 (2017) 2160 (2018) 18700 2160 6290 20300 29600 32200
2020-06-10 22:00 13.47 28200 32200 (2017) 2160 (2018) 18700 2160 6290 20300 29600 32200
2020-06-10 21:00 13.54 28400 32200 (2017) 2160 (2018) 18700 2160 6290 20300 29600 32200
2020-06-10 20:00 13.63 28700 32200 (2017) 2160 (2018) 18700 2160 6290 20300 29600 32200
2020-06-10 19:00 13.70 28900 32200 (2017) 2160 (2018) 18700 2160 6290 20300 29600 32200
2020-06-10 18:00 13.80 29200 32200 (2017) 2160 (2018) 18700 2160 6290 20300 29600 32200
2020-06-10 17:00 13.92 29500 32200 (2017) 2160 (2018) 18700 2160 6290 20300 29600 32200
2020-06-10 16:00 14.05 29900 32200 (2017) 2160 (2018) 18700 2160 6290 20300 29600 32200
2020-06-10 15:00 14.20 30400 32200 (2017) 2160 (2018) 18700 2160 6290 20300 29600 32200
2020-06-10 14:00 14.36 30900 32200 (2017) 2160 (2018) 18700 2160 6290 20300 29600 32200
2020-06-10 13:00 14.54 31400 32200 (2017) 2160 (2018) 18700 2160 6290 20300 29600 32200
2020-06-10 12:00 14.72 32000 32200 (2017) 2160 (2018) 18700 2160 6290 20300 29600 32200
2020-06-10 11:00 14.95 32700 32200 (2017) 2160 (2018) 18700 2160 6290 20300 29600 32200
2020-06-10 10:00 15.17 33400 32200 (2017) 2160 (2018) 18700 2160 6290 20300 29600 32200
2020-06-10 09:00 15.41 34100 32200 (2017) 2160 (2018) 18700 2160 6290 20300 29600 32200
2020-06-10 08:00 15.71 35000 32200 (2017) 2160 (2018) 18700 2160 6290 20300 29600 32200
2020-06-10 07:00 15.85 35500 32200 (2017) 2160 (2018) 18700 2160 6290 20300 29600 32200
2020-06-10 06:00 16.07 36200 32200 (2017) 2160 (2018) 18700 2160 6290 20300 29600 32200
2020-06-10 05:00 16.31 36900 32200 (2017) 2160 (2018) 18700 2160 6290 20300 29600 32200
2020-06-10 04:00 16.59 37800 32200 (2017) 2160 (2018) 18700 2160 6290 20300 29600 32200
2020-06-10 03:00 16.86 38700 32200 (2017) 2160 (2018) 18700 2160 6290 20300 29600 32200
2020-06-10 02:00 17.16 39800 32200 (2017) 2160 (2018) 18700 2160 6290 20300 29600 32200
2020-06-10 01:00 17.50 41000 32200 (2017) 2160 (2018) 18700 2160 6290 20300 29600 32200
2020-06-10 00:00 17.62 41400 32200 (2017) 2160 (2018) 18700 2160 6290 20300 29600 32200
2020-06-09 23:00 17.70 41700 32400 (2017) 8590 (2018) 18900 8590 9770 17400 29700 32400
2020-06-09 22:00 17.78 42000 32400 (2017) 8590 (2018) 18900 8590 9770 17400 29700 32400
2020-06-09 21:00 17.87 42300 32400 (2017) 8590 (2018) 18900 8590 9770 17400 29700 32400
2020-06-09 20:00 18.00 42800 32400 (2017) 8590 (2018) 18900 8590 9770 17400 29700 32400
2020-06-09 19:00 18.09 43100 32400 (2017) 8590 (2018) 18900 8590 9770 17400 29700 32400
2020-06-09 18:00 18.21 43500 32400 (2017) 8590 (2018) 18900 8590 9770 17400 29700 32400
2020-06-09 17:00 18.32 43900 32400 (2017) 8590 (2018) 18900 8590 9770 17400 29700 32400
2020-06-09 16:00 18.40 44200 32400 (2017) 8590 (2018) 18900 8590 9770 17400 29700 32400
2020-06-09 15:00 18.53 44700 32400 (2017) 8590 (2018) 18900 8590 9770 17400 29700 32400
2020-06-09 14:00 18.61 45000 32400 (2017) 8590 (2018) 18900 8590 9770 17400 29700 32400
2020-06-09 13:00 18.67 45200 32400 (2017) 8590 (2018) 18900 8590 9770 17400 29700 32400
2020-06-09 12:00 18.52 44600 32400 (2017) 8590 (2018) 18900 8590 9770 17400 29700 32400
2020-06-09 11:00 18.21 43500 32400 (2017) 8590 (2018) 18900 8590 9770 17400 29700 32400
2020-06-09 10:00 17.78 42000 32400 (2017) 8590 (2018) 18900 8590 9770 17400 29700 32400
2020-06-09 09:00 17.41 40700 32400 (2017) 8590 (2018) 18900 8590 9770 17400 29700 32400
2020-06-09 08:00 17.05 39400 32400 (2017) 8590 (2018) 18900 8590 9770 17400 29700 32400
2020-06-09 07:00 16.71 38200 32400 (2017) 8590 (2018) 18900 8590 9770 17400 29700 32400
2020-06-09 06:00 16.45 37400 32400 (2017) 8590 (2018) 18900 8590 9770 17400 29700 32400
2020-06-09 05:00 16.36 37100 32400 (2017) 8590 (2018) 18900 8590 9770 17400 29700 32400
2020-06-09 04:00 16.35 37100 32400 (2017) 8590 (2018) 18900 8590 9770 17400 29700 32400
2020-06-09 03:00 16.34 37000 32400 (2017) 8590 (2018) 18900 8590 9770 17400 29700 32400
2020-06-09 02:00 16.33 37000 32400 (2017) 8590 (2018) 18900 8590 9770 17400 29700 32400
2020-06-09 01:00 16.36 37100 32400 (2017) 8590 (2018) 18900 8590 9770 17400 29700 32400
2020-06-09 00:00 16.37 37100 32400 (2017) 8590 (2018) 18900 8590 9770 17400 29700 32400
2020-06-08 23:00 16.42 37300 28500 (2017) 13100 (2016) 21400 13100 14600 22000 27600 28500
2020-06-08 22:00 16.42 37300 28500 (2017) 13100 (2016) 21400 13100 14600 22000 27600 28500
2020-06-08 21:00 16.40 37200 28500 (2017) 13100 (2016) 21400 13100 14600 22000 27600 28500
2020-06-08 20:00 16.39 37200 28500 (2017) 13100 (2016) 21400 13100 14600 22000 27600 28500
2020-06-08 19:00 16.42 37300 28500 (2017) 13100 (2016) 21400 13100 14600 22000 27600 28500
2020-06-08 18:00 16.44 37400 28500 (2017) 13100 (2016) 21400 13100 14600 22000 27600 28500
2020-06-08 17:00 16.44 37400 28500 (2017) 13100 (2016) 21400 13100 14600 22000 27600 28500
2020-06-08 16:00 16.44 37400 28500 (2017) 13100 (2016) 21400 13100 14600 22000 27600 28500
2020-06-08 15:00 16.42 37300 28500 (2017) 13100 (2016) 21400 13100 14600 22000 27600 28500
2020-06-08 14:00 16.41 37300 28500 (2017) 13100 (2016) 21400 13100 14600 22000 27600 28500
2020-06-08 13:00 16.43 37300 28500 (2017) 13100 (2016) 21400 13100 14600 22000 27600 28500
2020-06-08 12:00 16.44 37400 28500 (2017) 13100 (2016) 21400 13100 14600 22000 27600 28500
2020-06-08 11:00 16.45 37400 28500 (2017) 13100 (2016) 21400 13100 14600 22000 27600 28500
2020-06-08 10:00 16.43 37300 28500 (2017) 13100 (2016) 21400 13100 14600 22000 27600 28500
2020-06-08 09:00 16.49 37500 28500 (2017) 13100 (2016) 21400 13100 14600 22000 27600 28500
2020-06-08 08:00 16.44 37400 28500 (2017) 13100 (2016) 21400 13100 14600 22000 27600 28500
2020-06-08 07:00 16.46 37400 28500 (2017) 13100 (2016) 21400 13100 14600 22000 27600 28500
2020-06-08 06:00 16.46 37400 28500 (2017) 13100 (2016) 21400 13100 14600 22000 27600 28500
2020-06-08 05:00 16.50 37600 28500 (2017) 13100 (2016) 21400 13100 14600 22000 27600 28500
2020-06-08 04:00 16.50 37600 28500 (2017) 13100 (2016) 21400 13100 14600 22000 27600 28500
2020-06-08 03:00 16.53 37600 28500 (2017) 13100 (2016) 21400 13100 14600 22000 27600 28500
2020-06-08 02:00 16.51 37600 28500 (2017) 13100 (2016) 21400 13100 14600 22000 27600 28500
2020-06-08 01:00 16.56 37700 28500 (2017) 13100 (2016) 21400 13100 14600 22000 27600 28500
2020-06-08 00:00 16.53 37600 28500 (2017) 13100 (2016) 21400 13100 14600 22000 27600 28500
2020-06-07 23:00 16.52 37600 33900 (2017) 10300 (2018) 24800 10300 13300 27600 33700 33900
2020-06-07 22:00 16.52 37600 33900 (2017) 10300 (2018) 24800 10300 13300 27600 33700 33900
2020-06-07 21:00 16.50 37600 33900 (2017) 10300 (2018) 24800 10300 13300 27600 33700 33900
2020-06-07 20:00 16.49 37500 33900 (2017) 10300 (2018) 24800 10300 13300 27600 33700 33900
2020-06-07 19:00 16.50 37600 33900 (2017) 10300 (2018) 24800 10300 13300 27600 33700 33900
2020-06-07 18:00 16.46 37400 33900 (2017) 10300 (2018) 24800 10300 13300 27600 33700 33900
2020-06-07 17:00 16.45 37400 33900 (2017) 10300 (2018) 24800 10300 13300 27600 33700 33900
2020-06-07 16:00 16.43 37300 33900 (2017) 10300 (2018) 24800 10300 13300 27600 33700 33900
2020-06-07 15:00 16.41 37300 33900 (2017) 10300 (2018) 24800 10300 13300 27600 33700 33900
2020-06-07 14:00 16.35 37100 33900 (2017) 10300 (2018) 24800 10300 13300 27600 33700 33900
2020-06-07 13:00 16.38 37200 33900 (2017) 10300 (2018) 24800 10300 13300 27600 33700 33900
2020-06-07 12:00 16.36 37100 33900 (2017) 10300 (2018) 24800 10300 13300 27600 33700 33900
2020-06-07 11:00 16.31 36900 33900 (2017) 10300 (2018) 24800 10300 13300 27600 33700 33900
2020-06-07 10:00 16.25 36800 33900 (2017) 10300 (2018) 24800 10300 13300 27600 33700 33900
2020-06-07 09:00 16.18 36500 33900 (2017) 10300 (2018) 24800 10300 13300 27600 33700 33900
2020-06-07 08:00 16.19 36600 33900 (2017) 10300 (2018) 24800 10300 13300 27600 33700 33900
2020-06-07 07:00 16.22 36700 33900 (2017) 10300 (2018) 24800 10300 13300 27600 33700 33900
2020-06-07 06:00 16.37 37100 33900 (2017) 10300 (2018) 24800 10300 13300 27600 33700 33900
2020-06-07 05:00 16.35 37100 33900 (2017) 10300 (2018) 24800 10300 13300 27600 33700 33900
2020-06-07 04:00 16.30 36900 33900 (2017) 10300 (2018) 24800 10300 13300 27600 33700 33900
2020-06-07 03:00 16.31 36900 33900 (2017) 10300 (2018) 24800 10300 13300 27600 33700 33900
2020-06-07 02:00 16.29 36900 33900 (2017) 10300 (2018) 24800 10300 13300 27600 33700 33900
2020-06-07 01:00 16.26 36800 33900 (2017) 10300 (2018) 24800 10300 13300 27600 33700 33900
2020-06-07 00:00 16.23 36700 33900 (2017) 10300 (2018) 24800 10300 13300 27600 33700 33900
2020-06-06 23:00 16.17 36500 41200 (2019) 5150 (2018) 28000 5150 10400 32900 40800 41200
2020-06-06 22:00 16.08 36200 41200 (2019) 5150 (2018) 28000 5150 10400 32900 40800 41200
2020-06-06 21:00 16.07 36200 41200 (2019) 5150 (2018) 28000 5150 10400 32900 40800 41200
2020-06-06 20:00 16.00 36000 41200 (2019) 5150 (2018) 28000 5150 10400 32900 40800 41200
2020-06-06 19:00 15.94 35800 41200 (2019) 5150 (2018) 28000 5150 10400 32900 40800 41200
2020-06-06 18:00 15.89 35600 41200 (2019) 5150 (2018) 28000 5150 10400 32900 40800 41200
2020-06-06 17:00 15.89 35600 41200 (2019) 5150 (2018) 28000 5150 10400 32900 40800 41200
2020-06-06 16:00 15.84 35400 41200 (2019) 5150 (2018) 28000 5150 10400 32900 40800 41200
2020-06-06 15:00 15.73 35100 41200 (2019) 5150 (2018) 28000 5150 10400 32900 40800 41200
2020-06-06 14:00 15.68 34900 41200 (2019) 5150 (2018) 28000 5150 10400 32900 40800 41200
2020-06-06 13:00 15.60 34700 41200 (2019) 5150 (2018) 28000 5150 10400 32900 40800 41200
2020-06-06 12:00 15.47 34300 41200 (2019) 5150 (2018) 28000 5150 10400 32900 40800 41200
2020-06-06 11:00 15.34 33900 41200 (2019) 5150 (2018) 28000 5150 10400 32900 40800 41200
2020-06-06 10:00 15.17 33400 41200 (2019) 5150 (2018) 28000 5150 10400 32900 40800 41200
2020-06-06 09:00 15.12 33200 41200 (2019) 5150 (2018) 28000 5150 10400 32900 40800 41200
2020-06-06 08:00 15.12 33200 41200 (2019) 5150 (2018) 28000 5150 10400 32900 40800 41200
2020-06-06 07:00 15.18 33400 41200 (2019) 5150 (2018) 28000 5150 10400 32900 40800 41200
2020-06-06 06:00 15.19 33400 41200 (2019) 5150 (2018) 28000 5150 10400 32900 40800 41200
2020-06-06 05:00 15.20 33400 41200 (2019) 5150 (2018) 28000 5150 10400 32900 40800 41200
2020-06-06 04:00 15.22 33500 41200 (2019) 5150 (2018) 28000 5150 10400 32900 40800 41200
2020-06-06 03:00 15.22 33500 41200 (2019) 5150 (2018) 28000 5150 10400 32900 40800 41200
2020-06-06 02:00 15.27 33700 41200 (2019) 5150 (2018) 28000 5150 10400 32900 40800 41200
2020-06-06 01:00 15.32 33800 41200 (2019) 5150 (2018) 28000 5150 10400 32900 40800 41200
2020-06-06 00:00 15.31 33800 41200 (2019) 5150 (2018) 28000 5150 10400 32900 40800 41200
2020-06-05 23:00 15.36 33900 41300 (2019) 6990 (2018) 26000 6990 9040 27900 41100 41300
2020-06-05 22:00 15.38 34000 41300 (2019) 6990 (2018) 26000 6990 9040 27900 41100 41300
2020-06-05 21:00 15.38 34000 41300 (2019) 6990 (2018) 26000 6990 9040 27900 41100 41300
2020-06-05 20:00 15.46 34300 41300 (2019) 6990 (2018) 26000 6990 9040 27900 41100 41300
2020-06-05 19:00 15.50 34400 41300 (2019) 6990 (2018) 26000 6990 9040 27900 41100 41300
2020-06-05 18:00 15.63 34800 41300 (2019) 6990 (2018) 26000 6990 9040 27900 41100 41300
2020-06-05 17:00 15.72 35100 41300 (2019) 6990 (2018) 26000 6990 9040 27900 41100 41300
2020-06-05 16:00 15.76 35200 41300 (2019) 6990 (2018) 26000 6990 9040 27900 41100 41300
2020-06-05 15:00 15.85 35500 41300 (2019) 6990 (2018) 26000 6990 9040 27900 41100 41300
2020-06-05 14:00 15.92 35700 41300 (2019) 6990 (2018) 26000 6990 9040 27900 41100 41300
2020-06-05 13:00 16.01 36000 41300 (2019) 6990 (2018) 26000 6990 9040 27900 41100 41300
2020-06-05 12:00 16.10 36300 41300 (2019) 6990 (2018) 26000 6990 9040 27900 41100 41300
2020-06-05 11:00 16.17 36500 41300 (2019) 6990 (2018) 26000 6990 9040 27900 41100 41300
2020-06-05 10:00 16.15 36400 41300 (2019) 6990 (2018) 26000 6990 9040 27900 41100 41300
2020-06-05 09:00 16.16 36500 41300 (2019) 6990 (2018) 26000 6990 9040 27900 41100 41300
2020-06-05 08:00 16.16 36500 41300 (2019) 6990 (2018) 26000 6990 9040 27900 41100 41300
2020-06-05 07:00 16.23 36700 41300 (2019) 6990 (2018) 26000 6990 9040 27900 41100 41300
2020-06-05 06:00 16.24 36700 41300 (2019) 6990 (2018) 26000 6990 9040 27900 41100 41300
2020-06-05 05:00 16.30 36900 41300 (2019) 6990 (2018) 26000 6990 9040 27900 41100 41300
2020-06-05 04:00 16.31 36900 41300 (2019) 6990 (2018) 26000 6990 9040 27900 41100 41300
2020-06-05 03:00 16.33 37000 41300 (2019) 6990 (2018) 26000 6990 9040 27900 41100 41300
2020-06-05 02:00 16.36 37100 41300 (2019) 6990 (2018) 26000 6990 9040 27900 41100 41300
2020-06-05 01:00 16.42 37300 41300 (2019) 6990 (2018) 26000 6990 9040 27900 41100 41300
2020-06-05 00:00 16.43 37300 41300 (2019) 6990 (2018) 26000 6990 9040 27900 41100 41300
2020-06-04 23:00 16.46 37400 40900 (2017) 10300 (2018) 27800 10300 12800 30000 40700 40900
2020-06-04 22:00 16.48 37500 40900 (2017) 10300 (2018) 27800 10300 12800 30000 40700 40900
2020-06-04 21:00 16.48 37500 40900 (2017) 10300 (2018) 27800 10300 12800 30000 40700 40900
2020-06-04 20:00 16.45 37400 40900 (2017) 10300 (2018) 27800 10300 12800 30000 40700 40900
2020-06-04 19:00 16.41 37300 40900 (2017) 10300 (2018) 27800 10300 12800 30000 40700 40900
2020-06-04 18:00 16.46 37400 40900 (2017) 10300 (2018) 27800 10300 12800 30000 40700 40900
2020-06-04 17:00 16.45 37400 40900 (2017) 10300 (2018) 27800 10300 12800 30000 40700 40900
2020-06-04 16:00 16.41 37300 40900 (2017) 10300 (2018) 27800 10300 12800 30000 40700 40900
2020-06-04 15:00 16.39 37200 40900 (2017) 10300 (2018) 27800 10300 12800 30000 40700 40900
2020-06-04 14:00 16.36 37100 40900 (2017) 10300 (2018) 27800 10300 12800 30000 40700 40900
2020-06-04 13:00 16.29 36900 40900 (2017) 10300 (2018) 27800 10300 12800 30000 40700 40900
2020-06-04 12:00 16.27 36800 40900 (2017) 10300 (2018) 27800 10300 12800 30000 40700 40900
2020-06-04 11:00 16.32 37000 40900 (2017) 10300 (2018) 27800 10300 12800 30000 40700 40900
2020-06-04 10:00 16.35 37100 40900 (2017) 10300 (2018) 27800 10300 12800 30000 40700 40900
2020-06-04 09:00 16.27 36800 40900 (2017) 10300 (2018) 27800 10300 12800 30000 40700 40900
2020-06-04 08:00 16.15 36400 40900 (2017) 10300 (2018) 27800 10300 12800 30000 40700 40900
2020-06-04 07:00 16.06 36100 40900 (2017) 10300 (2018) 27800 10300 12800 30000 40700 40900
2020-06-04 06:00 15.89 35600 40900 (2017) 10300 (2018) 27800 10300 12800 30000 40700 40900
2020-06-04 05:00 15.74 35100 40900 (2017) 10300 (2018) 27800 10300 12800 30000 40700 40900
2020-06-04 04:00 15.53 34500 40900 (2017) 10300 (2018) 27800 10300 12800 30000 40700 40900
2020-06-04 03:00 15.32 33800 40900 (2017) 10300 (2018) 27800 10300 12800 30000 40700 40900
2020-06-04 02:00 15.06 33000 40900 (2017) 10300 (2018) 27800 10300 12800 30000 40700 40900
2020-06-04 01:00 14.98 32800 40900 (2017) 10300 (2018) 27800 10300 12800 30000 40700 40900
2020-06-04 00:00 15.31 33800 40900 (2017) 10300 (2018) 27800 10300 12800 30000 40700 40900
2020-06-03 23:00 15.56 34600 44000 (2017) 13900 (2018) 30800 13900 18100 32800 41700 44000
2020-06-03 22:00 15.58 34600 44000 (2017) 13900 (2018) 30800 13900 18100 32800 41700 44000
2020-06-03 21:00 15.45 34200 44000 (2017) 13900 (2018) 30800 13900 18100 32800 41700 44000
2020-06-03 20:00 15.32 33800 44000 (2017) 13900 (2018) 30800 13900 18100 32800 41700 44000
2020-06-03 19:00 15.13 33200 44000 (2017) 13900 (2018) 30800 13900 18100 32800 41700 44000
2020-06-03 18:00 14.94 32600 44000 (2017) 13900 (2018) 30800 13900 18100 32800 41700 44000
2020-06-03 17:00 14.65 31800 44000 (2017) 13900 (2018) 30800 13900 18100 32800 41700 44000
2020-06-03 16:00 14.38 30900 44000 (2017) 13900 (2018) 30800 13900 18100 32800 41700 44000
2020-06-03 15:00 13.98 29700 44000 (2017) 13900 (2018) 30800 13900 18100 32800 41700 44000
2020-06-03 14:00 13.50 28300 44000 (2017) 13900 (2018) 30800 13900 18100 32800 41700 44000
2020-06-03 13:00 12.85 26400 44000 (2017) 13900 (2018) 30800 13900 18100 32800 41700 44000
2020-06-03 12:00 12.12 24300 44000 (2017) 13900 (2018) 30800 13900 18100 32800 41700 44000
2020-06-03 11:00 11.23 21900 44000 (2017) 13900 (2018) 30800 13900 18100 32800 41700 44000
2020-06-03 10:00 10.34 19500 44000 (2017) 13900 (2018) 30800 13900 18100 32800 41700 44000
2020-06-03 09:00 9.71 17600 44000 (2017) 13900 (2018) 30800 13900 18100 32800 41700 44000
2020-06-03 08:00 9.35 16600 44000 (2017) 13900 (2018) 30800 13900 18100 32800 41700 44000
2020-06-03 07:00 9.33 16500 44000 (2017) 13900 (2018) 30800 13900 18100 32800 41700 44000
2020-06-03 06:00 9.49 17000 44000 (2017) 13900 (2018) 30800 13900 18100 32800 41700 44000
2020-06-03 05:00 9.93 18300 44000 (2017) 13900 (2018) 30800 13900 18100 32800 41700 44000
2020-06-03 04:00 10.60 20200 44000 (2017) 13900 (2018) 30800 13900 18100 32800 41700 44000
2020-06-03 03:00 11.27 22000 44000 (2017) 13900 (2018) 30800 13900 18100 32800 41700 44000
2020-06-03 02:00 11.74 23300 44000 (2017) 13900 (2018) 30800 13900 18100 32800 41700 44000
2020-06-03 01:00 11.68 23100 44000 (2017) 13900 (2018) 30800 13900 18100 32800 41700 44000
2020-06-03 00:00 11.74 23300 44000 (2017) 13900 (2018) 30800 13900 18100 32800 41700 44000
2020-06-02 23:00 11.79 23400 46900 (2017) 19600 (2018) 32700 19600 22200 32100 43800 46900
2020-06-02 22:00 11.98 23900 46900 (2017) 19600 (2018) 32700 19600 22200 32100 43800 46900
2020-06-02 21:00 11.96 23900 46900 (2017) 19600 (2018) 32700 19600 22200 32100 43800 46900
2020-06-02 20:00 11.84 23500 46900 (2017) 19600 (2018) 32700 19600 22200 32100 43800 46900
2020-06-02 19:00 11.62 22900 46900 (2017) 19600 (2018) 32700 19600 22200 32100 43800 46900
2020-06-02 18:00 10.75 20600 46900 (2017) 19600 (2018) 32700 19600 22200 32100 43800 46900
2020-06-02 17:00 9.08 15800 46900 (2017) 19600 (2018) 32700 19600 22200 32100 43800 46900
2020-06-02 16:00 6.32 8770 46900 (2017) 19600 (2018) 32700 19600 22200 32100 43800 46900
2020-06-02 15:00 3.68 3760 46900 (2017) 19600 (2018) 32700 19600 22200 32100 43800 46900
2020-06-02 14:00 3.33 3250 46900 (2017) 19600 (2018) 32700 19600 22200 32100 43800 46900
2020-06-02 13:00 3.33 3250 46900 (2017) 19600 (2018) 32700 19600 22200 32100 43800 46900
2020-06-02 12:00 3.33 3250 46900 (2017) 19600 (2018) 32700 19600 22200 32100 43800 46900
2020-06-02 11:00 3.32 3240 46900 (2017) 19600 (2018) 32700 19600 22200 32100 43800 46900
2020-06-02 10:00 3.31 3220 46900 (2017) 19600 (2018) 32700 19600 22200 32100 43800 46900
2020-06-02 09:00 3.31 3220 46900 (2017) 19600 (2018) 32700 19600 22200 32100 43800 46900
2020-06-02 08:00 3.30 3210 46900 (2017) 19600 (2018) 32700 19600 22200 32100 43800 46900
2020-06-02 07:00 3.29 3200 46900 (2017) 19600 (2018) 32700 19600 22200 32100 43800 46900
2020-06-02 06:00 3.28 3180 46900 (2017) 19600 (2018) 32700 19600 22200 32100 43800 46900
2020-06-02 05:00 3.27 3170 46900 (2017) 19600 (2018) 32700 19600 22200 32100 43800 46900
2020-06-02 04:00 3.25 3140 46900 (2017) 19600 (2018) 32700 19600 22200 32100 43800 46900
2020-06-02 03:00 3.24 3130 46900 (2017) 19600 (2018) 32700 19600 22200 32100 43800 46900
2020-06-02 02:00 3.22 3100 46900 (2017) 19600 (2018) 32700 19600 22200 32100 43800 46900
2020-06-02 01:00 3.21 3090 46900 (2017) 19600 (2018) 32700 19600 22200 32100 43800 46900
2020-06-02 00:00 3.19 3060 46900 (2017) 19600 (2018) 32700 19600 22200 32100 43800 46900
2020-06-01 23:00 3.19 3060 50500 (2017) 24200 (2016) 34500 24200 25700 31800 46200 50500
2020-06-01 22:00 3.20 3070 50500 (2017) 24200 (2016) 34500 24200 25700 31800 46200 50500
2020-06-01 21:00 3.21 3090 50500 (2017) 24200 (2016) 34500 24200 25700 31800 46200 50500
2020-06-01 20:00 3.24 3130 50500 (2017) 24200 (2016) 34500 24200 25700 31800 46200 50500
2020-06-01 19:00 3.26 3150 50500 (2017) 24200 (2016) 34500 24200 25700 31800 46200 50500
2020-06-01 18:00 3.27 3170 50500 (2017) 24200 (2016) 34500 24200 25700 31800 46200 50500
2020-06-01 17:00 3.29 3200 50500 (2017) 24200 (2016) 34500 24200 25700 31800 46200 50500
2020-06-01 16:00 3.29 3200 50500 (2017) 24200 (2016) 34500 24200 25700 31800 46200 50500
2020-06-01 15:00 3.29 3200 50500 (2017) 24200 (2016) 34500 24200 25700 31800 46200 50500
2020-06-01 14:00 3.30 3210 50500 (2017) 24200 (2016) 34500 24200 25700 31800 46200 50500
2020-06-01 13:00 3.30 3210 50500 (2017) 24200 (2016) 34500 24200 25700 31800 46200 50500
2020-06-01 12:00 3.31 3220 50500 (2017) 24200 (2016) 34500 24200 25700 31800 46200 50500
2020-06-01 11:00 3.31 3220 50500 (2017) 24200 (2016) 34500 24200 25700 31800 46200 50500
2020-06-01 10:00 3.32 3240 50500 (2017) 24200 (2016) 34500 24200 25700 31800 46200 50500
2020-06-01 09:00 3.32 3240 50500 (2017) 24200 (2016) 34500 24200 25700 31800 46200 50500
2020-06-01 08:00 3.32 3240 50500 (2017) 24200 (2016) 34500 24200 25700 31800 46200 50500
2020-06-01 07:00 3.32 3240 50500 (2017) 24200 (2016) 34500 24200 25700 31800 46200 50500
2020-06-01 06:00 3.32 3240 50500 (2017) 24200 (2016) 34500 24200 25700 31800 46200 50500
2020-06-01 05:00 3.33 3250 50500 (2017) 24200 (2016) 34500 24200 25700 31800 46200 50500
2020-06-01 04:00 3.33 3250 50500 (2017) 24200 (2016) 34500 24200 25700 31800 46200 50500
2020-06-01 03:00 3.34 3260 50500 (2017) 24200 (2016) 34500 24200 25700 31800 46200 50500
2020-06-01 02:00 3.34 3260 50500 (2017) 24200 (2016) 34500 24200 25700 31800 46200 50500
2020-06-01 01:00 3.34 3260 50500 (2017) 24200 (2016) 34500 24200 25700 31800 46200 50500
2020-06-01 00:00 3.35 3280 50500 (2017) 24200 (2016) 34500 24200 25700 31800 46200 50500
2020-05-31 23:00 3.35 3280 50900 (2017) 8510 (2016) 29300 8510 13500 28900 45600 50900
2020-05-31 22:00 3.36 3290 50900 (2017) 8510 (2016) 29300 8510 13500 28900 45600 50900
2020-05-31 21:00 3.37 3310 50900 (2017) 8510 (2016) 29300 8510 13500 28900 45600 50900
2020-05-31 20:00 3.37 3310 50900 (2017) 8510 (2016) 29300 8510 13500 28900 45600 50900
2020-05-31 19:00 3.38 3320 50900 (2017) 8510 (2016) 29300 8510 13500 28900 45600 50900
2020-05-31 18:00 3.39 3330 50900 (2017) 8510 (2016) 29300 8510 13500 28900 45600 50900
2020-05-31 17:00 3.40 3350 50900 (2017) 8510 (2016) 29300 8510 13500 28900 45600 50900
2020-05-31 16:00 3.41 3360 50900 (2017) 8510 (2016) 29300 8510 13500 28900 45600 50900
2020-05-31 15:00 3.42 3380 50900 (2017) 8510 (2016) 29300 8510 13500 28900 45600 50900
2020-05-31 14:00 3.43 3390 50900 (2017) 8510 (2016) 29300 8510 13500 28900 45600 50900
2020-05-31 13:00 3.44 3400 50900 (2017) 8510 (2016) 29300 8510 13500 28900 45600 50900
2020-05-31 12:00 3.46 3430 50900 (2017) 8510 (2016) 29300 8510 13500 28900 45600 50900
2020-05-31 11:00 3.48 3460 50900 (2017) 8510 (2016) 29300 8510 13500 28900 45600 50900
2020-05-31 10:00 3.50 3490 50900 (2017) 8510 (2016) 29300 8510 13500 28900 45600 50900
2020-05-31 09:00 3.51 3500 50900 (2017) 8510 (2016) 29300 8510 13500 28900 45600 50900
2020-05-31 08:00 3.53 3530 50900 (2017) 8510 (2016) 29300 8510 13500 28900 45600 50900
2020-05-31 07:00 3.57 3590 50900 (2017) 8510 (2016) 29300 8510 13500 28900 45600 50900
2020-05-31 06:00 3.59 3620 50900 (2017) 8510 (2016) 29300 8510 13500 28900 45600 50900
2020-05-31 05:00 3.64 3690 50900 (2017) 8510 (2016) 29300 8510 13500 28900 45600 50900
2020-05-31 04:00 3.68 3760 50900 (2017) 8510 (2016) 29300 8510 13500 28900 45600 50900
2020-05-31 03:00 3.75 3880 50900 (2017) 8510 (2016) 29300 8510 13500 28900 45600 50900
2020-05-31 02:00 3.82 4000 50900 (2017) 8510 (2016) 29300 8510 13500 28900 45600 50900
2020-05-31 01:00 3.92 4180 50900 (2017) 8510 (2016) 29300 8510 13500 28900 45600 50900
2020-05-31 00:00 4.04 4390 50900 (2017) 8510 (2016) 29300 8510 13500 28900 45600 50900
2020-05-30 23:00 4.17 4600 51400 (2017) 2720 (2016) 27800 2720 8890 28400 45900 51400
2020-05-30 22:00 4.34 4870 51400 (2017) 2720 (2016) 27800 2720 8890 28400 45900 51400
2020-05-30 21:00 4.54 5200 51400 (2017) 2720 (2016) 27800 2720 8890 28400 45900 51400
2020-05-30 20:00 4.78 5620 51400 (2017) 2720 (2016) 27800 2720 8890 28400 45900 51400
2020-05-30 19:00 5.05 6130 51400 (2017) 2720 (2016) 27800 2720 8890 28400 45900 51400
2020-05-30 18:00 5.37 6750 51400 (2017) 2720 (2016) 27800 2720 8890 28400 45900 51400
2020-05-30 17:00 5.74 7510 51400 (2017) 2720 (2016) 27800 2720 8890 28400 45900 51400
2020-05-30 16:00 6.14 8370 51400 (2017) 2720 (2016) 27800 2720 8890 28400 45900 51400
2020-05-30 15:00 6.59 9380 51400 (2017) 2720 (2016) 27800 2720 8890 28400 45900 51400
2020-05-30 14:00 7.08 10500 51400 (2017) 2720 (2016) 27800 2720 8890 28400 45900 51400
2020-05-30 13:00 7.62 11900 51400 (2017) 2720 (2016) 27800 2720 8890 28400 45900 51400
2020-05-30 12:00 8.22 13400 51400 (2017) 2720 (2016) 27800 2720 8890 28400 45900 51400
2020-05-30 11:00 8.88 15200 51400 (2017) 2720 (2016) 27800 2720 8890 28400 45900 51400
2020-05-30 10:00 9.58 17200 51400 (2017) 2720 (2016) 27800 2720 8890 28400 45900 51400
2020-05-30 09:00 10.34 19500 51400 (2017) 2720 (2016) 27800 2720 8890 28400 45900 51400
2020-05-30 08:00 11.18 21700 51400 (2017) 2720 (2016) 27800 2720 8890 28400 45900 51400
2020-05-30 07:00 12.05 24100 51400 (2017) 2720 (2016) 27800 2720 8890 28400 45900 51400
2020-05-30 06:00 12.98 26800 51400 (2017) 2720 (2016) 27800 2720 8890 28400 45900 51400
2020-05-30 05:00 14.01 29800 51400 (2017) 2720 (2016) 27800 2720 8890 28400 45900 51400
2020-05-30 04:00 15.00 32800 51400 (2017) 2720 (2016) 27800 2720 8890 28400 45900 51400
2020-05-30 03:00 15.46 34300 51400 (2017) 2720 (2016) 27800 2720 8890 28400 45900 51400
2020-05-30 02:00 15.86 35500 51400 (2017) 2720 (2016) 27800 2720 8890 28400 45900 51400
2020-05-30 01:00 16.04 36100 51400 (2017) 2720 (2016) 27800 2720 8890 28400 45900 51400
2020-05-30 00:00 16.15 36400 51400 (2017) 2720 (2016) 27800 2720 8890 28400 45900 51400
2020-05-29 23:00 16.15 36400 52100 (2017) 5750 (2016) 27900 5750 11000 26900 45800 52100
2020-05-29 22:00 16.21 36600 52100 (2017) 5750 (2016) 27900 5750 11000 26900 45800 52100
2020-05-29 21:00 16.18 36500 52100 (2017) 5750 (2016) 27900 5750 11000 26900 45800 52100
2020-05-29 20:00 16.14 36400 52100 (2017) 5750 (2016) 27900 5750 11000 26900 45800 52100
2020-05-29 19:00 16.12 36300 52100 (2017) 5750 (2016) 27900 5750 11000 26900 45800 52100
2020-05-29 18:00 16.10 36300 52100 (2017) 5750 (2016) 27900 5750 11000 26900 45800 52100
2020-05-29 17:00 16.09 36200 52100 (2017) 5750 (2016) 27900 5750 11000 26900 45800 52100
2020-05-29 16:00 16.28 36800 52100 (2017) 5750 (2016) 27900 5750 11000 26900 45800 52100
2020-05-29 15:00 16.31 36900 52100 (2017) 5750 (2016) 27900 5750 11000 26900 45800 52100
2020-05-29 14:00 16.32 37000 52100 (2017) 5750 (2016) 27900 5750 11000 26900 45800 52100
2020-05-29 13:00 16.33 37000 52100 (2017) 5750 (2016) 27900 5750 11000 26900 45800 52100
2020-05-29 12:00 16.33 37000 52100 (2017) 5750 (2016) 27900 5750 11000 26900 45800 52100
2020-05-29 11:00 16.31 36900 52100 (2017) 5750 (2016) 27900 5750 11000 26900 45800 52100
2020-05-29 10:00 16.29 36900 52100 (2017) 5750 (2016) 27900 5750 11000 26900 45800 52100
2020-05-29 09:00 16.29 36900 52100 (2017) 5750 (2016) 27900 5750 11000 26900 45800 52100
2020-05-29 08:00 16.28 36800 52100 (2017) 5750 (2016) 27900 5750 11000 26900 45800 52100
2020-05-29 07:00 16.31 36900 52100 (2017) 5750 (2016) 27900 5750 11000 26900 45800 52100
2020-05-29 06:00 16.29 36900 52100 (2017) 5750 (2016) 27900 5750 11000 26900 45800 52100
2020-05-29 05:00 16.31 36900 52100 (2017) 5750 (2016) 27900 5750 11000 26900 45800 52100
2020-05-29 04:00 16.35 37100 52100 (2017) 5750 (2016) 27900 5750 11000 26900 45800 52100
2020-05-29 03:00 16.32 37000 52100 (2017) 5750 (2016) 27900 5750 11000 26900 45800 52100
2020-05-29 02:00 16.36 37100 52100 (2017) 5750 (2016) 27900 5750 11000 26900 45800 52100
2020-05-29 01:00 16.56 37700 52100 (2017) 5750 (2016) 27900 5750 11000 26900 45800 52100
2020-05-29 00:00 16.59 37800 52100 (2017) 5750 (2016) 27900 5750 11000 26900 45800 52100
2020-05-28 23:00 16.54 37700 52500 (2017) 17200 (2018) 29000 17200 18400 23200 45500 52500
2020-05-28 22:00 16.53 37600 52500 (2017) 17200 (2018) 29000 17200 18400 23200 45500 52500
2020-05-28 21:00 16.46 37400 52500 (2017) 17200 (2018) 29000 17200 18400 23200 45500 52500
2020-05-28 20:00 16.43 37300 52500 (2017) 17200 (2018) 29000 17200 18400 23200 45500 52500
2020-05-28 19:00 16.40 37200 52500 (2017) 17200 (2018) 29000 17200 18400 23200 45500 52500
2020-05-28 18:00 16.34 37000 52500 (2017) 17200 (2018) 29000 17200 18400 23200 45500 52500
2020-05-28 17:00 16.32 37000 52500 (2017) 17200 (2018) 29000 17200 18400 23200 45500 52500
2020-05-28 16:00 16.29 36900 52500 (2017) 17200 (2018) 29000 17200 18400 23200 45500 52500
2020-05-28 15:00 16.24 36700 52500 (2017) 17200 (2018) 29000 17200 18400 23200 45500 52500
2020-05-28 14:00 16.23 36700 52500 (2017) 17200 (2018) 29000 17200 18400 23200 45500 52500
2020-05-28 13:00 16.15 36400 52500 (2017) 17200 (2018) 29000 17200 18400 23200 45500 52500
2020-05-28 12:00 16.14 36400 52500 (2017) 17200 (2018) 29000 17200 18400 23200 45500 52500
2020-05-28 11:00 16.05 36100 52500 (2017) 17200 (2018) 29000 17200 18400 23200 45500 52500
2020-05-28 10:00 15.96 35800 52500 (2017) 17200 (2018) 29000 17200 18400 23200 45500 52500
2020-05-28 09:00 15.89 35600 52500 (2017) 17200 (2018) 29000 17200 18400 23200 45500 52500
2020-05-28 08:00 15.88 35600 52500 (2017) 17200 (2018) 29000 17200 18400 23200 45500 52500
2020-05-28 07:00 15.96 35800 52500 (2017) 17200 (2018) 29000 17200 18400 23200 45500 52500
2020-05-28 06:00 16.44 37400 52500 (2017) 17200 (2018) 29000 17200 18400 23200 45500 52500
2020-05-28 05:00 16.71 38200 52500 (2017) 17200 (2018) 29000 17200 18400 23200 45500 52500
2020-05-28 04:00 16.75 38400 52500 (2017) 17200 (2018) 29000 17200 18400 23200 45500 52500
2020-05-28 03:00 16.75 38400 52500 (2017) 17200 (2018) 29000 17200 18400 23200 45500 52500
2020-05-28 02:00 16.75 38400 52500 (2017) 17200 (2018) 29000 17200 18400 23200 45500 52500
2020-05-28 01:00 16.78 38500 52500 (2017) 17200 (2018) 29000 17200 18400 23200 45500 52500
2020-05-28 00:00 16.76 38400 52500 (2017) 17200 (2018) 29000 17200 18400 23200 45500 52500
2020-05-27 23:00 16.79 38500 51800 (2017) 10900 (2018) 29700 10900 12800 28100 48300 51800
2020-05-27 22:00 16.77 38400 51800 (2017) 10900 (2018) 29700 10900 12800 28100 48300 51800
2020-05-27 21:00 16.78 38500 51800 (2017) 10900 (2018) 29700 10900 12800 28100 48300 51800
2020-05-27 20:00 16.78 38500 51800 (2017) 10900 (2018) 29700 10900 12800 28100 48300 51800
2020-05-27 19:00 16.75 38400 51800 (2017) 10900 (2018) 29700 10900 12800 28100 48300 51800
2020-05-27 18:00 16.77 38400 51800 (2017) 10900 (2018) 29700 10900 12800 28100 48300 51800
2020-05-27 17:00 16.72 38300 51800 (2017) 10900 (2018) 29700 10900 12800 28100 48300 51800
2020-05-27 16:00 16.72 38300 51800 (2017) 10900 (2018) 29700 10900 12800 28100 48300 51800
2020-05-27 15:00 16.69 38200 51800 (2017) 10900 (2018) 29700 10900 12800 28100 48300 51800
2020-05-27 14:00 16.62 37900 51800 (2017) 10900 (2018) 29700 10900 12800 28100 48300 51800
2020-05-27 13:00 16.64 38000 51800 (2017) 10900 (2018) 29700 10900 12800 28100 48300 51800
2020-05-27 12:00 16.64 38000 51800 (2017) 10900 (2018) 29700 10900 12800 28100 48300 51800
2020-05-27 11:00 16.64 38000 51800 (2017) 10900 (2018) 29700 10900 12800 28100 48300 51800
2020-05-27 10:00 16.65 38000 51800 (2017) 10900 (2018) 29700 10900 12800 28100 48300 51800
2020-05-27 09:00 16.65 38000 51800 (2017) 10900 (2018) 29700 10900 12800 28100 48300 51800
2020-05-27 08:00 16.61 37900 51800 (2017) 10900 (2018) 29700 10900 12800 28100 48300 51800
2020-05-27 07:00 16.65 38000 51800 (2017) 10900 (2018) 29700 10900 12800 28100 48300 51800
2020-05-27 06:00 16.62 37900 51800 (2017) 10900 (2018) 29700 10900 12800 28100 48300 51800
2020-05-27 05:00 16.62 37900 51800 (2017) 10900 (2018) 29700 10900 12800 28100 48300 51800
2020-05-27 04:00 16.62 37900 51800 (2017) 10900 (2018) 29700 10900 12800 28100 48300 51800
2020-05-27 03:00 16.61 37900 51800 (2017) 10900 (2018) 29700 10900 12800 28100 48300 51800
2020-05-27 02:00 16.56 37700 51800 (2017) 10900 (2018) 29700 10900 12800 28100 48300 51800
2020-05-27 01:00 16.55 37700 51800 (2017) 10900 (2018) 29700 10900 12800 28100 48300 51800
2020-05-27 00:00 16.54 37700 51800 (2017) 10900 (2018) 29700 10900 12800 28100 48300 51800
2020-05-26 23:00 16.54 37700 51200 (2017) 5550 (2018) 22500 5550 7840 16700 43000 51200
2020-05-26 22:00 16.49 37500 51200 (2017) 5550 (2018) 22500 5550 7840 16700 43000 51200
2020-05-26 21:00 16.48 37500 51200 (2017) 5550 (2018) 22500 5550 7840 16700 43000 51200
2020-05-26 20:00 16.45 37400 51200 (2017) 5550 (2018) 22500 5550 7840 16700 43000 51200
2020-05-26 19:00 16.48 37500 51200 (2017) 5550 (2018) 22500 5550 7840 16700 43000 51200
2020-05-26 18:00 16.51 37600 51200 (2017) 5550 (2018) 22500 5550 7840 16700 43000 51200
2020-05-26 17:00 16.54 37700 51200 (2017) 5550 (2018) 22500 5550 7840 16700 43000 51200
2020-05-26 15:00 16.53 37600 51200 (2017) 5550 (2018) 22500 5550 7840 16700 43000 51200
2020-05-26 14:00 16.57 37800 51200 (2017) 5550 (2018) 22500 5550 7840 16700 43000 51200
2020-05-26 13:00 16.51 37600 51200 (2017) 5550 (2018) 22500 5550 7840 16700 43000 51200
2020-05-26 12:00 16.55 37700 51200 (2017) 5550 (2018) 22500 5550 7840 16700 43000 51200
2020-05-26 11:00 16.56 37700 51200 (2017) 5550 (2018) 22500 5550 7840 16700 43000 51200
2020-05-26 10:00 16.54 37700 51200 (2017) 5550 (2018) 22500 5550 7840 16700 43000 51200
2020-05-26 09:00 16.53 37600 51200 (2017) 5550 (2018) 22500 5550 7840 16700 43000 51200
2020-05-26 08:00 16.53 37600 51200 (2017) 5550 (2018) 22500 5550 7840 16700 43000 51200
2020-05-26 07:00 16.51 37600 51200 (2017) 5550 (2018) 22500 5550 7840 16700 43000 51200
2020-05-26 06:00 16.54 37700 51200 (2017) 5550 (2018) 22500 5550 7840 16700 43000 51200
2020-05-26 05:00 16.55 37700 51200 (2017) 5550 (2018) 22500 5550 7840 16700 43000 51200
2020-05-26 04:00 16.51 37600 51200 (2017) 5550 (2018) 22500 5550 7840 16700 43000 51200
2020-05-26 03:00 16.55 37700 51200 (2017) 5550 (2018) 22500 5550 7840 16700 43000 51200
2020-05-26 02:00 16.52 37600 51200 (2017) 5550 (2018) 22500 5550 7840 16700 43000 51200
2020-05-26 01:00 16.56 37700 51200 (2017) 5550 (2018) 22500 5550 7840 16700 43000 51200
2020-05-26 00:00 16.53 37600 51200 (2017) 5550 (2018) 22500 5550 7840 16700 43000 51200
2020-05-25 23:00 16.55 37700 51400 (2017) 8100 (2018) 21300 8100 8730 13000 42400 51400
2020-05-25 22:00 16.53 37600 51400 (2017) 8100 (2018) 21300 8100 8730 13000 42400 51400
2020-05-25 21:00 16.52 37600 51400 (2017) 8100 (2018) 21300 8100 8730 13000 42400 51400
2020-05-25 20:00 16.51 37600 51400 (2017) 8100 (2018) 21300 8100 8730 13000 42400 51400
2020-05-25 19:00 16.49 37500 51400 (2017) 8100 (2018) 21300 8100 8730 13000 42400 51400
2020-05-25 18:00 16.49 37500 51400 (2017) 8100 (2018) 21300 8100 8730 13000 42400 51400
2020-05-25 17:00 16.44 37400 51400 (2017) 8100 (2018) 21300 8100 8730 13000 42400 51400
2020-05-25 16:00 16.45 37400 51400 (2017) 8100 (2018) 21300 8100 8730 13000 42400 51400
2020-05-25 15:00 16.42 37300 51400 (2017) 8100 (2018) 21300 8100 8730 13000 42400 51400
2020-05-25 14:00 16.39 37200 51400 (2017) 8100 (2018) 21300 8100 8730 13000 42400 51400
2020-05-25 13:00 16.32 37000 51400 (2017) 8100 (2018) 21300 8100 8730 13000 42400 51400
2020-05-25 12:00 16.28 36800 51400 (2017) 8100 (2018) 21300 8100 8730 13000 42400 51400
2020-05-25 11:00 16.15 36400 51400 (2017) 8100 (2018) 21300 8100 8730 13000 42400 51400
2020-05-25 10:00 16.07 36200 51400 (2017) 8100 (2018) 21300 8100 8730 13000 42400 51400
2020-05-25 09:00 15.95 35800 51400 (2017) 8100 (2018) 21300 8100 8730 13000 42400 51400
2020-05-25 08:00 15.86 35500 51400 (2017) 8100 (2018) 21300 8100 8730 13000 42400 51400
2020-05-25 07:00 15.79 35300 51400 (2017) 8100 (2018) 21300 8100 8730 13000 42400 51400
2020-05-25 06:00 15.73 35100 51400 (2017) 8100 (2018) 21300 8100 8730 13000 42400 51400
2020-05-25 05:00 15.64 34800 51400 (2017) 8100 (2018) 21300 8100 8730 13000 42400 51400
2020-05-25 04:00 15.51 34400 51400 (2017) 8100 (2018) 21300 8100 8730 13000 42400 51400
2020-05-25 03:00 15.44 34200 51400 (2017) 8100 (2018) 21300 8100 8730 13000 42400 51400
2020-05-25 02:00 15.31 33800 51400 (2017) 8100 (2018) 21300 8100 8730 13000 42400 51400
2020-05-25 01:00 15.19 33400 51400 (2017) 8100 (2018) 21300 8100 8730 13000 42400 51400
2020-05-25 00:00 14.99 32800 51400 (2017) 8100 (2018) 21300 8100 8730 13000 42400 51400
2020-05-24 23:00 14.77 32100 51400 (2017) 9780 (2016) 25800 9780 11300 21000 45100 51400
2020-05-24 22:00 14.50 31300 51400 (2017) 9780 (2016) 25800 9780 11300 21000 45100 51400
2020-05-24 21:00 14.20 30400 51400 (2017) 9780 (2016) 25800 9780 11300 21000 45100 51400
2020-05-24 20:00 13.83 29300 51400 (2017) 9780 (2016) 25800 9780 11300 21000 45100 51400
2020-05-24 19:00 13.60 28600 51400 (2017) 9780 (2016) 25800 9780 11300 21000 45100 51400
2020-05-24 18:00 13.52 28400 51400 (2017) 9780 (2016) 25800 9780 11300 21000 45100 51400
2020-05-24 17:00 13.05 27000 51400 (2017) 9780 (2016) 25800 9780 11300 21000 45100 51400
2020-05-24 16:00 12.55 25500 51400 (2017) 9780 (2016) 25800 9780 11300 21000 45100 51400
2020-05-24 15:00 12.02 24000 51400 (2017) 9780 (2016) 25800 9780 11300 21000 45100 51400
2020-05-24 14:00 11.68 23100 51400 (2017) 9780 (2016) 25800 9780 11300 21000 45100 51400
2020-05-24 13:00 11.33 22100 51400 (2017) 9780 (2016) 25800 9780 11300 21000 45100 51400
2020-05-24 12:00 11.01 21300 51400 (2017) 9780 (2016) 25800 9780 11300 21000 45100 51400
2020-05-24 11:00 10.80 20700 51400 (2017) 9780 (2016) 25800 9780 11300 21000 45100 51400
2020-05-24 10:00 10.88 20900 51400 (2017) 9780 (2016) 25800 9780 11300 21000 45100 51400
2020-05-24 09:00 11.03 21300 51400 (2017) 9780 (2016) 25800 9780 11300 21000 45100 51400
2020-05-24 08:00 11.28 22000 51400 (2017) 9780 (2016) 25800 9780 11300 21000 45100 51400
2020-05-24 07:00 11.67 23100 51400 (2017) 9780 (2016) 25800 9780 11300 21000 45100 51400
2020-05-24 06:00 12.29 24800 51400 (2017) 9780 (2016) 25800 9780 11300 21000 45100 51400
2020-05-24 05:00 13.01 26900 51400 (2017) 9780 (2016) 25800 9780 11300 21000 45100 51400
2020-05-24 04:00 13.76 29100 51400 (2017) 9780 (2016) 25800 9780 11300 21000 45100 51400
2020-05-24 03:00 14.60 31600 51400 (2017) 9780 (2016) 25800 9780 11300 21000 45100 51400
2020-05-24 02:00 15.42 34100 51400 (2017) 9780 (2016) 25800 9780 11300 21000 45100 51400
2020-05-24 01:00 16.02 36000 51400 (2017) 9780 (2016) 25800 9780 11300 21000 45100 51400
2020-05-24 00:00 16.11 36300 51400 (2017) 9780 (2016) 25800 9780 11300 21000 45100 51400
2020-05-23 23:00 16.08 36200 51400 (2017) 10100 (2016) 30700 10100 14000 30600 47400 51400
2020-05-23 22:00 16.09 36200 51400 (2017) 10100 (2016) 30700 10100 14000 30600 47400 51400
2020-05-23 21:00 16.04 36100 51400 (2017) 10100 (2016) 30700 10100 14000 30600 47400 51400
2020-05-23 20:00 16.00 36000 51400 (2017) 10100 (2016) 30700 10100 14000 30600 47400 51400
2020-05-23 19:00 15.97 35900 51400 (2017) 10100 (2016) 30700 10100 14000 30600 47400 51400
2020-05-23 18:00 15.94 35800 51400 (2017) 10100 (2016) 30700 10100 14000 30600 47400 51400
2020-05-23 17:00 15.91 35700 51400 (2017) 10100 (2016) 30700 10100 14000 30600 47400 51400
2020-05-23 16:00 15.87 35500 51400 (2017) 10100 (2016) 30700 10100 14000 30600 47400 51400
2020-05-23 15:00 15.81 35400 51400 (2017) 10100 (2016) 30700 10100 14000 30600 47400 51400
2020-05-23 14:00 15.73 35100 51400 (2017) 10100 (2016) 30700 10100 14000 30600 47400 51400
2020-05-23 13:00 15.68 34900 51400 (2017) 10100 (2016) 30700 10100 14000 30600 47400 51400
2020-05-23 12:00 15.57 34600 51400 (2017) 10100 (2016) 30700 10100 14000 30600 47400 51400
2020-05-23 11:00 15.51 34400 51400 (2017) 10100 (2016) 30700 10100 14000 30600 47400 51400
2020-05-23 10:00 15.36 33900 51400 (2017) 10100 (2016) 30700 10100 14000 30600 47400 51400
2020-05-23 09:00 15.19 33400 51400 (2017) 10100 (2016) 30700 10100 14000 30600 47400 51400
2020-05-23 08:00 15.05 33000 51400 (2017) 10100 (2016) 30700 10100 14000 30600 47400 51400
2020-05-23 07:00 14.84 32300 51400 (2017) 10100 (2016) 30700 10100 14000 30600 47400 51400
2020-05-23 06:00 14.57 31500 51400 (2017) 10100 (2016) 30700 10100 14000 30600 47400 51400
2020-05-23 05:00 14.30 30700 51400 (2017) 10100 (2016) 30700 10100 14000 30600 47400 51400
2020-05-23 04:00 13.98 29700 51400 (2017) 10100 (2016) 30700 10100 14000 30600 47400 51400
2020-05-23 03:00 13.62 28700 51400 (2017) 10100 (2016) 30700 10100 14000 30600 47400 51400
2020-05-23 02:00 13.16 27300 51400 (2017) 10100 (2016) 30700 10100 14000 30600 47400 51400
2020-05-23 01:00 12.76 26100 51400 (2017) 10100 (2016) 30700 10100 14000 30600 47400 51400
2020-05-23 00:00 12.70 26000 51400 (2017) 10100 (2016) 30700 10100 14000 30600 47400 51400
2020-05-22 23:00 12.71 26000 51100 (2017) 3180 (2016) 31100 3180 9180 35100 49100 51100
2020-05-22 22:00 12.81 26300 51100 (2017) 3180 (2016) 31100 3180 9180 35100 49100 51100
2020-05-22 21:00 12.64 25800 51100 (2017) 3180 (2016) 31100 3180 9180 35100 49100 51100
2020-05-22 20:00 12.57 25600 51100 (2017) 3180 (2016) 31100 3180 9180 35100 49100 51100
2020-05-22 19:00 12.54 25500 51100 (2017) 3180 (2016) 31100 3180 9180 35100 49100 51100
2020-05-22 18:00 12.55 25500 51100 (2017) 3180 (2016) 31100 3180 9180 35100 49100 51100
2020-05-22 17:00 12.66 25900 51100 (2017) 3180 (2016) 31100 3180 9180 35100 49100 51100
2020-05-22 16:00 12.92 26600 51100 (2017) 3180 (2016) 31100 3180 9180 35100 49100 51100
2020-05-22 15:00 13.26 27600 51100 (2017) 3180 (2016) 31100 3180 9180 35100 49100 51100
2020-05-22 14:00 13.52 28400 51100 (2017) 3180 (2016) 31100 3180 9180 35100 49100 51100
2020-05-22 13:00 13.43 28100 51100 (2017) 3180 (2016) 31100 3180 9180 35100 49100 51100
2020-05-22 12:00 13.27 27600 51100 (2017) 3180 (2016) 31100 3180 9180 35100 49100 51100
2020-05-22 11:00 13.25 27600 51100 (2017) 3180 (2016) 31100 3180 9180 35100 49100 51100
2020-05-22 10:00 13.21 27400 51100 (2017) 3180 (2016) 31100 3180 9180 35100 49100 51100
2020-05-22 09:00 13.16 27300 51100 (2017) 3180 (2016) 31100 3180 9180 35100 49100 51100
2020-05-22 08:00 13.48 28200 51100 (2017) 3180 (2016) 31100 3180 9180 35100 49100 51100
2020-05-22 07:00 13.87 29400 51100 (2017) 3180 (2016) 31100 3180 9180 35100 49100 51100
2020-05-22 06:00 13.90 29500 51100 (2017) 3180 (2016) 31100 3180 9180 35100 49100 51100
2020-05-22 05:00 14.25 30500 51100 (2017) 3180 (2016) 31100 3180 9180 35100 49100 51100
2020-05-22 04:00 14.58 31500 51100 (2017) 3180 (2016) 31100 3180 9180 35100 49100 51100
2020-05-22 03:00 14.86 32400 51100 (2017) 3180 (2016) 31100 3180 9180 35100 49100 51100
2020-05-22 02:00 14.93 32600 51100 (2017) 3180 (2016) 31100 3180 9180 35100 49100 51100
2020-05-22 01:00 14.92 32600 51100 (2017) 3180 (2016) 31100 3180 9180 35100 49100 51100
2020-05-22 00:00 14.96 32700 51100 (2017) 3180 (2016) 31100 3180 9180 35100 49100 51100
2020-05-21 23:00 14.97 32700 51700 (2017) 3850 (2016) 33500 3850 11900 39200 49300 51700
2020-05-21 22:00 15.01 32900 51700 (2017) 3850 (2016) 33500 3850 11900 39200 49300 51700
2020-05-21 21:00 15.02 32900 51700 (2017) 3850 (2016) 33500 3850 11900 39200 49300 51700
2020-05-21 20:00 15.07 33000 51700 (2017) 3850 (2016) 33500 3850 11900 39200 49300 51700
2020-05-21 19:00 15.11 33200 51700 (2017) 3850 (2016) 33500 3850 11900 39200 49300 51700
2020-05-21 18:00 15.17 33400 51700 (2017) 3850 (2016) 33500 3850 11900 39200 49300 51700
2020-05-21 17:00 15.20 33400 51700 (2017) 3850 (2016) 33500 3850 11900 39200 49300 51700
2020-05-21 16:00 15.28 33700 51700 (2017) 3850 (2016) 33500 3850 11900 39200 49300 51700
2020-05-21 15:00 15.37 34000 51700 (2017) 3850 (2016) 33500 3850 11900 39200 49300 51700
2020-05-21 14:00 15.42 34100 51700 (2017) 3850 (2016) 33500 3850 11900 39200 49300 51700
2020-05-21 13:00 15.52 34400 51700 (2017) 3850 (2016) 33500 3850 11900 39200 49300 51700
2020-05-21 12:00 15.63 34800 51700 (2017) 3850 (2016) 33500 3850 11900 39200 49300 51700
2020-05-21 11:00 15.75 35200 51700 (2017) 3850 (2016) 33500 3850 11900 39200 49300 51700
2020-05-21 10:00 15.91 35700 51700 (2017) 3850 (2016) 33500 3850 11900 39200 49300 51700
2020-05-21 09:00 16.08 36200 51700 (2017) 3850 (2016) 33500 3850 11900 39200 49300 51700
2020-05-21 08:00 16.25 36800 51700 (2017) 3850 (2016) 33500 3850 11900 39200 49300 51700
2020-05-21 07:00 16.32 37000 51700 (2017) 3850 (2016) 33500 3850 11900 39200 49300 51700
2020-05-21 06:00 16.31 36900 51700 (2017) 3850 (2016) 33500 3850 11900 39200 49300 51700
2020-05-21 05:00 16.30 36900 51700 (2017) 3850 (2016) 33500 3850 11900 39200 49300 51700
2020-05-21 04:00 16.28 36800 51700 (2017) 3850 (2016) 33500 3850 11900 39200 49300 51700
2020-05-21 03:00 16.26 36800 51700 (2017) 3850 (2016) 33500 3850 11900 39200 49300 51700
2020-05-21 02:00 16.26 36800 51700 (2017) 3850 (2016) 33500 3850 11900 39200 49300 51700
2020-05-21 01:00 16.21 36600 51700 (2017) 3850 (2016) 33500 3850 11900 39200 49300 51700
2020-05-21 00:00 16.20 36600 51700 (2017) 3850 (2016) 33500 3850 11900 39200 49300 51700
2020-05-20 23:00 16.17 36500 53000 (2017) 4630 (2016) 24700 4630 5760 20700 47800 53000
2020-05-20 22:00 16.14 36400 53000 (2017) 4630 (2016) 24700 4630 5760 20700 47800 53000
2020-05-20 21:00 16.09 36200 53000 (2017) 4630 (2016) 24700 4630 5760 20700 47800 53000
2020-05-20 20:00 16.03 36100 53000 (2017) 4630 (2016) 24700 4630 5760 20700 47800 53000
2020-05-20 19:00 16.01 36000 53000 (2017) 4630 (2016) 24700 4630 5760 20700 47800 53000
2020-05-20 18:00 16.00 36000 53000 (2017) 4630 (2016) 24700 4630 5760 20700 47800 53000
2020-05-20 17:00 15.97 35900 53000 (2017) 4630 (2016) 24700 4630 5760 20700 47800 53000
2020-05-20 16:00 15.94 35800 53000 (2017) 4630 (2016) 24700 4630 5760 20700 47800 53000
2020-05-20 15:00 15.88 35600 53000 (2017) 4630 (2016) 24700 4630 5760 20700 47800 53000
2020-05-20 14:00 15.79 35300 53000 (2017) 4630 (2016) 24700 4630 5760 20700 47800 53000
2020-05-20 13:00 15.74 35100 53000 (2017) 4630 (2016) 24700 4630 5760 20700 47800 53000
2020-05-20 12:00 15.67 34900 53000 (2017) 4630 (2016) 24700 4630 5760 20700 47800 53000
2020-05-20 11:00 15.58 34600 53000 (2017) 4630 (2016) 24700 4630 5760 20700 47800 53000
2020-05-20 10:00 15.47 34300 53000 (2017) 4630 (2016) 24700 4630 5760 20700 47800 53000
2020-05-20 09:00 15.35 33900 53000 (2017) 4630 (2016) 24700 4630 5760 20700 47800 53000
2020-05-20 08:00 15.23 33500 53000 (2017) 4630 (2016) 24700 4630 5760 20700 47800 53000
2020-05-20 07:00 15.05 33000 53000 (2017) 4630 (2016) 24700 4630 5760 20700 47800 53000
2020-05-20 06:00 14.85 32400 53000 (2017) 4630 (2016) 24700 4630 5760 20700 47800 53000
2020-05-20 05:00 14.60 31600 53000 (2017) 4630 (2016) 24700 4630 5760 20700 47800 53000
2020-05-20 04:00 14.29 30700 53000 (2017) 4630 (2016) 24700 4630 5760 20700 47800 53000
2020-05-20 03:00 13.91 29500 53000 (2017) 4630 (2016) 24700 4630 5760 20700 47800 53000
2020-05-20 02:00 13.47 28200 53000 (2017) 4630 (2016) 24700 4630 5760 20700 47800 53000
2020-05-20 01:00 13.00 26800 53000 (2017) 4630 (2016) 24700 4630 5760 20700 47800 53000
2020-05-20 00:00 12.62 25700 53000 (2017) 4630 (2016) 24700 4630 5760 20700 47800 53000
2020-05-19 23:00 12.47 25300 50800 (2017) 1550 (2018) 24100 1550 2440 22100 47900 50800
2020-05-19 22:00 12.67 25900 50800 (2017) 1550 (2018) 24100 1550 2440 22100 47900 50800
2020-05-19 21:00 12.83 26300 50800 (2017) 1550 (2018) 24100 1550 2440 22100 47900 50800
2020-05-19 20:00 13.02 26900 50800 (2017) 1550 (2018) 24100 1550 2440 22100 47900 50800
2020-05-19 19:00 13.27 27600 50800 (2017) 1550 (2018) 24100 1550 2440 22100 47900 50800
2020-05-19 18:00 13.41 28000 50800 (2017) 1550 (2018) 24100 1550 2440 22100 47900 50800
2020-05-19 17:00 13.50 28300 50800 (2017) 1550 (2018) 24100 1550 2440 22100 47900 50800
2020-05-19 16:00 13.65 28700 50800 (2017) 1550 (2018) 24100 1550 2440 22100 47900 50800
2020-05-19 15:00 13.94 29600 50800 (2017) 1550 (2018) 24100 1550 2440 22100 47900 50800
2020-05-19 14:00 14.22 30400 50800 (2017) 1550 (2018) 24100 1550 2440 22100 47900 50800
2020-05-19 13:00 14.14 30200 50800 (2017) 1550 (2018) 24100 1550 2440 22100 47900 50800
2020-05-19 12:00 13.81 29200 50800 (2017) 1550 (2018) 24100 1550 2440 22100 47900 50800
2020-05-19 11:00 13.55 28400 50800 (2017) 1550 (2018) 24100 1550 2440 22100 47900 50800
2020-05-19 10:00 13.30 27700 50800 (2017) 1550 (2018) 24100 1550 2440 22100 47900 50800
2020-05-19 09:00 12.99 26800 50800 (2017) 1550 (2018) 24100 1550 2440 22100 47900 50800
2020-05-19 08:00 13.08 27100 50800 (2017) 1550 (2018) 24100 1550 2440 22100 47900 50800
2020-05-19 07:00 13.24 27500 50800 (2017) 1550 (2018) 24100 1550 2440 22100 47900 50800
2020-05-19 06:00 13.56 28500 50800 (2017) 1550 (2018) 24100 1550 2440 22100 47900 50800
2020-05-19 05:00 13.63 28700 50800 (2017) 1550 (2018) 24100 1550 2440 22100 47900 50800
2020-05-19 04:00 13.63 28700 50800 (2017) 1550 (2018) 24100 1550 2440 22100 47900 50800
2020-05-19 03:00 13.62 28700 50800 (2017) 1550 (2018) 24100 1550 2440 22100 47900 50800
2020-05-19 02:00 13.68 28800 50800 (2017) 1550 (2018) 24100 1550 2440 22100 47900 50800
2020-05-19 01:00 13.84 29300 50800 (2017) 1550 (2018) 24100 1550 2440 22100 47900 50800
2020-05-19 00:00 13.73 29000 50800 (2017) 1550 (2018) 24100 1550 2440 22100 47900 50800
2020-05-18 23:00 13.34 27800 50500 (2017) 1390 (2018) 25500 1390 3790 25200 47700 50500
2020-05-18 22:00 12.82 26300 50500 (2017) 1390 (2018) 25500 1390 3790 25200 47700 50500
2020-05-18 21:00 12.35 25000 50500 (2017) 1390 (2018) 25500 1390 3790 25200 47700 50500
2020-05-18 20:00 12.22 24600 50500 (2017) 1390 (2018) 25500 1390 3790 25200 47700 50500
2020-05-18 19:00 12.28 24800 50500 (2017) 1390 (2018) 25500 1390 3790 25200 47700 50500
2020-05-18 18:00 12.35 25000 50500 (2017) 1390 (2018) 25500 1390 3790 25200 47700 50500
2020-05-18 17:00 12.56 25600 50500 (2017) 1390 (2018) 25500 1390 3790 25200 47700 50500
2020-05-18 16:00 12.86 26400 50500 (2017) 1390 (2018) 25500 1390 3790 25200 47700 50500
2020-05-18 15:00 13.13 27200 50500 (2017) 1390 (2018) 25500 1390 3790 25200 47700 50500
2020-05-18 14:00 13.21 27400 50500 (2017) 1390 (2018) 25500 1390 3790 25200 47700 50500
2020-05-18 13:00 13.27 27600 50500 (2017) 1390 (2018) 25500 1390 3790 25200 47700 50500
2020-05-18 12:00 13.33 27800 50500 (2017) 1390 (2018) 25500 1390 3790 25200 47700 50500
2020-05-18 11:00 13.40 28000 50500 (2017) 1390 (2018) 25500 1390 3790 25200 47700 50500
2020-05-18 10:00 13.45 28200 50500 (2017) 1390 (2018) 25500 1390 3790 25200 47700 50500
2020-05-18 09:00 13.60 28600 50500 (2017) 1390 (2018) 25500 1390 3790 25200 47700 50500
2020-05-18 08:00 13.59 28600 50500 (2017) 1390 (2018) 25500 1390 3790 25200 47700 50500
2020-05-18 07:00 13.47 28200 50500 (2017) 1390 (2018) 25500 1390 3790 25200 47700 50500
2020-05-18 06:00 13.67 28800 50500 (2017) 1390 (2018) 25500 1390 3790 25200 47700 50500
2020-05-18 05:00 14.17 30300 50500 (2017) 1390 (2018) 25500 1390 3790 25200 47700 50500
2020-05-18 04:00 14.76 32100 50500 (2017) 1390 (2018) 25500 1390 3790 25200 47700 50500
2020-05-18 03:00 14.79 32200 50500 (2017) 1390 (2018) 25500 1390 3790 25200 47700 50500
2020-05-18 02:00 14.63 31700 50500 (2017) 1390 (2018) 25500 1390 3790 25200 47700 50500
2020-05-18 01:00 14.64 31700 50500 (2017) 1390 (2018) 25500 1390 3790 25200 47700 50500
2020-05-18 00:00 14.45 31100 50500 (2017) 1390 (2018) 25500 1390 3790 25200 47700 50500
2020-05-17 23:00 14.09 30100 50400 (2017) 1880 (2018) 27700 1880 6260 29200 47600 50400
2020-05-17 22:00 13.73 29000 50400 (2017) 1880 (2018) 27700 1880 6260 29200 47600 50400
2020-05-17 21:00 13.52 28400 50400 (2017) 1880 (2018) 27700 1880 6260 29200 47600 50400
2020-05-17 20:00 13.36 27900 50400 (2017) 1880 (2018) 27700 1880 6260 29200 47600 50400
2020-05-17 19:00 13.49 28300 50400 (2017) 1880 (2018) 27700 1880 6260 29200 47600 50400
2020-05-17 18:00 13.62 28700 50400 (2017) 1880 (2018) 27700 1880 6260 29200 47600 50400
2020-05-17 17:00 13.62 28700 50400 (2017) 1880 (2018) 27700 1880 6260 29200 47600 50400
2020-05-17 16:00 13.69 28900 50400 (2017) 1880 (2018) 27700 1880 6260 29200 47600 50400
2020-05-17 15:00 13.87 29400 50400 (2017) 1880 (2018) 27700 1880 6260 29200 47600 50400
2020-05-17 14:00 13.77 29100 50400 (2017) 1880 (2018) 27700 1880 6260 29200 47600 50400
2020-05-17 13:00 13.71 28900 50400 (2017) 1880 (2018) 27700 1880 6260 29200 47600 50400
2020-05-17 12:00 13.87 29400 50400 (2017) 1880 (2018) 27700 1880 6260 29200 47600 50400
2020-05-17 11:00 13.98 29700 50400 (2017) 1880 (2018) 27700 1880 6260 29200 47600 50400
2020-05-17 10:00 14.12 30100 50400 (2017) 1880 (2018) 27700 1880 6260 29200 47600 50400
2020-05-17 09:00 14.34 30800 50400 (2017) 1880 (2018) 27700 1880 6260 29200 47600 50400
2020-05-17 08:00 14.47 31200 50400 (2017) 1880 (2018) 27700 1880 6260 29200 47600 50400
2020-05-17 07:00 14.68 31800 50400 (2017) 1880 (2018) 27700 1880 6260 29200 47600 50400
2020-05-17 06:00 14.49 31300 50400 (2017) 1880 (2018) 27700 1880 6260 29200 47600 50400
2020-05-17 05:00 14.47 31200 50400 (2017) 1880 (2018) 27700 1880 6260 29200 47600 50400
2020-05-17 04:00 14.27 30600 50400 (2017) 1880 (2018) 27700 1880 6260 29200 47600 50400
2020-05-17 03:00 14.05 29900 50400 (2017) 1880 (2018) 27700 1880 6260 29200 47600 50400
2020-05-17 02:00 13.98 29700 50400 (2017) 1880 (2018) 27700 1880 6260 29200 47600 50400
2020-05-17 01:00 13.96 29700 50400 (2017) 1880 (2018) 27700 1880 6260 29200 47600 50400
2020-05-17 00:00 13.75 29000 50400 (2017) 1880 (2018) 27700 1880 6260 29200 47600 50400
2020-05-16 23:00 13.58 28500 50400 (2017) 2780 (2018) 27300 2780 6530 28000 47300 50400
2020-05-16 22:00 13.57 28500 50400 (2017) 2780 (2018) 27300 2780 6530 28000 47300 50400
2020-05-16 21:00 13.67 28800 50400 (2017) 2780 (2018) 27300 2780 6530 28000 47300 50400
2020-05-16 20:00 13.69 28900 50400 (2017) 2780 (2018) 27300 2780 6530 28000 47300 50400
2020-05-16 19:00 13.87 29400 50400 (2017) 2780 (2018) 27300 2780 6530 28000 47300 50400
2020-05-16 18:00 13.83 29300 50400 (2017) 2780 (2018) 27300 2780 6530 28000 47300 50400
2020-05-16 17:00 13.70 28900 50400 (2017) 2780 (2018) 27300 2780 6530 28000 47300 50400
2020-05-16 16:00 13.77 29100 50400 (2017) 2780 (2018) 27300 2780 6530 28000 47300 50400
2020-05-16 15:00 13.96 29700 50400 (2017) 2780 (2018) 27300 2780 6530 28000 47300 50400
2020-05-16 14:00 14.21 30400 50400 (2017) 2780 (2018) 27300 2780 6530 28000 47300 50400
2020-05-16 13:00 14.27 30600 50400 (2017) 2780 (2018) 27300 2780 6530 28000 47300 50400
2020-05-16 12:00 14.06 30000 50400 (2017) 2780 (2018) 27300 2780 6530 28000 47300 50400
2020-05-16 11:00 13.99 29800 50400 (2017) 2780 (2018) 27300 2780 6530 28000 47300 50400
2020-05-16 10:00 14.05 29900 50400 (2017) 2780 (2018) 27300 2780 6530 28000 47300 50400
2020-05-16 09:00 14.02 29800 50400 (2017) 2780 (2018) 27300 2780 6530 28000 47300 50400
2020-05-16 08:00 14.13 30200 50400 (2017) 2780 (2018) 27300 2780 6530 28000 47300 50400
2020-05-16 07:00 14.20 30400 50400 (2017) 2780 (2018) 27300 2780 6530 28000 47300 50400
2020-05-16 06:00 14.00 29800 50400 (2017) 2780 (2018) 27300 2780 6530 28000 47300 50400
2020-05-16 05:00 13.99 29800 50400 (2017) 2780 (2018) 27300 2780 6530 28000 47300 50400
2020-05-16 04:00 13.68 28800 50400 (2017) 2780 (2018) 27300 2780 6530 28000 47300 50400
2020-05-16 03:00 13.29 27700 50400 (2017) 2780 (2018) 27300 2780 6530 28000 47300 50400
2020-05-16 02:00 13.01 26900 50400 (2017) 2780 (2018) 27300 2780 6530 28000 47300 50400
2020-05-16 01:00 13.00 26800 50400 (2017) 2780 (2018) 27300 2780 6530 28000 47300 50400
2020-05-16 00:00 13.01 26900 50400 (2017) 2780 (2018) 27300 2780 6530 28000 47300 50400
2020-05-15 23:00 12.98 26800 50400 (2017) 1350 (2018) 25600 1350 4040 25300 47400 50400
2020-05-15 22:00 13.33 27800 50400 (2017) 1350 (2018) 25600 1350 4040 25300 47400 50400
2020-05-15 21:00 13.65 28700 50400 (2017) 1350 (2018) 25600 1350 4040 25300 47400 50400
2020-05-15 20:00 13.75 29000 50400 (2017) 1350 (2018) 25600 1350 4040 25300 47400 50400
2020-05-15 19:00 13.79 29200 50400 (2017) 1350 (2018) 25600 1350 4040 25300 47400 50400
2020-05-15 18:00 13.55 28400 50400 (2017) 1350 (2018) 25600 1350 4040 25300 47400 50400
2020-05-15 17:00 13.36 27900 50400 (2017) 1350 (2018) 25600 1350 4040 25300 47400 50400
2020-05-15 16:00 13.28 27700 50400 (2017) 1350 (2018) 25600 1350 4040 25300 47400 50400
2020-05-15 15:00 13.24 27500 50400 (2017) 1350 (2018) 25600 1350 4040 25300 47400 50400
2020-05-15 14:00 13.15 27300 50400 (2017) 1350 (2018) 25600 1350 4040 25300 47400 50400
2020-05-15 13:00 13.14 27200 50400 (2017) 1350 (2018) 25600 1350 4040 25300 47400 50400
2020-05-15 12:00 13.12 27200 50400 (2017) 1350 (2018) 25600 1350 4040 25300 47400 50400
2020-05-15 11:00 13.01 26900 50400 (2017) 1350 (2018) 25600 1350 4040 25300 47400 50400
2020-05-15 10:00 12.80 26300 50400 (2017) 1350 (2018) 25600 1350 4040 25300 47400 50400
2020-05-15 09:00 12.82 26300 50400 (2017) 1350 (2018) 25600 1350 4040 25300 47400 50400
2020-05-15 08:00 12.82 26300 50400 (2017) 1350 (2018) 25600 1350 4040 25300 47400 50400
2020-05-15 07:00 12.86 26400 50400 (2017) 1350 (2018) 25600 1350 4040 25300 47400 50400
2020-05-15 06:00 12.98 26800 50400 (2017) 1350 (2018) 25600 1350 4040 25300 47400 50400
2020-05-15 05:00 13.14 27200 50400 (2017) 1350 (2018) 25600 1350 4040 25300 47400 50400
2020-05-15 04:00 13.35 27900 50400 (2017) 1350 (2018) 25600 1350 4040 25300 47400 50400
2020-05-15 03:00 13.54 28400 50400 (2017) 1350 (2018) 25600 1350 4040 25300 47400 50400
2020-05-15 02:00 13.74 29000 50400 (2017) 1350 (2018) 25600 1350 4040 25300 47400 50400
2020-05-15 01:00 13.79 29200 50400 (2017) 1350 (2018) 25600 1350 4040 25300 47400 50400
2020-05-15 00:00 13.98 29700 50400 (2017) 1350 (2018) 25600 1350 4040 25300 47400 50400
2020-05-14 23:00 13.99 29800 50400 (2017) 1360 (2018) 25500 1360 4570 25200 46900 50400
2020-05-14 22:00 13.99 29800 50400 (2017) 1360 (2018) 25500 1360 4570 25200 46900 50400
2020-05-14 21:00 13.95 29600 50400 (2017) 1360 (2018) 25500 1360 4570 25200 46900 50400
2020-05-14 20:00 13.82 29200 50400 (2017) 1360 (2018) 25500 1360 4570 25200 46900 50400
2020-05-14 19:00 13.78 29100 50400 (2017) 1360 (2018) 25500 1360 4570 25200 46900 50400
2020-05-14 18:00 13.58 28500 50400 (2017) 1360 (2018) 25500 1360 4570 25200 46900 50400
2020-05-14 17:00 13.33 27800 50400 (2017) 1360 (2018) 25500 1360 4570 25200 46900 50400
2020-05-14 16:00 13.09 27100 50400 (2017) 1360 (2018) 25500 1360 4570 25200 46900 50400
2020-05-14 15:00 12.94 26700 50400 (2017) 1360 (2018) 25500 1360 4570 25200 46900 50400
2020-05-14 14:00 12.72 26000 50400 (2017) 1360 (2018) 25500 1360 4570 25200 46900 50400
2020-05-14 13:00 12.36 25000 50400 (2017) 1360 (2018) 25500 1360 4570 25200 46900 50400
2020-05-14 12:00 11.92 23800 50400 (2017) 1360 (2018) 25500 1360 4570 25200 46900 50400
2020-05-14 11:00 11.46 22500 50400 (2017) 1360 (2018) 25500 1360 4570 25200 46900 50400
2020-05-14 10:00 11.15 21600 50400 (2017) 1360 (2018) 25500 1360 4570 25200 46900 50400
2020-05-14 09:00 11.14 21600 50400 (2017) 1360 (2018) 25500 1360 4570 25200 46900 50400
2020-05-14 08:00 11.22 21800 50400 (2017) 1360 (2018) 25500 1360 4570 25200 46900 50400
2020-05-14 07:00 11.51 22600 50400 (2017) 1360 (2018) 25500 1360 4570 25200 46900 50400
2020-05-14 06:00 11.82 23500 50400 (2017) 1360 (2018) 25500 1360 4570 25200 46900 50400
2020-05-14 05:00 12.16 24400 50400 (2017) 1360 (2018) 25500 1360 4570 25200 46900 50400
2020-05-14 04:00 12.83 26300 50400 (2017) 1360 (2018) 25500 1360 4570 25200 46900 50400
2020-05-14 03:00 13.56 28500 50400 (2017) 1360 (2018) 25500 1360 4570 25200 46900 50400
2020-05-14 02:00 14.26 30600 50400 (2017) 1360 (2018) 25500 1360 4570 25200 46900 50400
2020-05-14 01:00 14.61 31600 50400 (2017) 1360 (2018) 25500 1360 4570 25200 46900 50400
2020-05-14 00:00 14.68 31800 50400 (2017) 1360 (2018) 25500 1360 4570 25200 46900 50400
2020-05-13 23:00 14.60 31600 50400 (2017) 1440 (2018) 20800 1440 4410 15800 42300 50400
2020-05-13 22:00 14.37 30900 50400 (2017) 1440 (2018) 20800 1440 4410 15800 42300 50400
2020-05-13 21:00 14.13 30200 50400 (2017) 1440 (2018) 20800 1440 4410 15800 42300 50400
2020-05-13 20:00 14.01 29800